<?xml version="1.0" encoding="UTF-8" standalone="no" ?>
<gpx xmlns="http://www.topografix.com/GPX/1/1" xmlns:xsi="http://www.w3.org/2001/XMLSchema-instance" xsi:schemaLocation="http://www.topografix.com/GPX/1/1 http://www.topografix.com/GPX/1/1/gpx.xsd" version="1.1" creator="VisuGPX - https://www.visugpx.com">
  <metadata>
    <name>Lac Noir - Col du Granier</name>
    <desc><![CDATA[Barraux - Chapareillan - Rte col du Granier - Piste des Eparres - Lac noir - ]]></desc>
  </metadata>
  <trk>
    <name><![CDATA[lac noir gragnier ]]></name>
    <desc><![CDATA[<h1>OruxMaps</h1><br /><hr align="center" width="480" style="height: 2px; width: 517px"/><h2>Nom: lac noir gragnier </h2><br /><p>Temps de départ: 08/08/2014 08:21</p><p>Temps d'arrivée: 08/08/2014 13:03</p><p>Distance: 37,5 km (04:41)</p><p>Temps déplacement: 03:04</p><p>Vitesse moyenne: 8 km/h</p><p>Vitesse moyenne: 12,2 km/h</p><p>Vitess Max.: 38 km/h</p><p>Altitude minimale: 245 m</p><p>Altitude maximale: 1326 m</p><p>Vitesse d'élévation: 639,8 m/h</p><p>Vitesse de descente: -1270,1 m/h</p><p>Gain Altitude: 1769 m</p><p>Perte Altitude: -1801 m</p><p>Temps d'élévation: 02:45</p><p>Temps de descente: 01:25</p><hr align="center" width="480" style="height: 2px; width: 517px"/>]]></desc>
    <trkseg>
      <trkpt lat="45.42901" lon="5.98397">
        <ele>329</ele>
        <time>2014-08-08T06:21:25Z</time>
      </trkpt>
      <trkpt lat="45.4292" lon="5.98387">
        <ele>330</ele>
        <time>2014-08-08T06:21:32Z</time>
      </trkpt>
      <trkpt lat="45.42933" lon="5.98366">
        <ele>331</ele>
        <time>2014-08-08T06:21:37Z</time>
      </trkpt>
      <trkpt lat="45.42936" lon="5.98341">
        <ele>330</ele>
        <time>2014-08-08T06:21:43Z</time>
      </trkpt>
      <trkpt lat="45.42946" lon="5.98315">
        <ele>330</ele>
        <time>2014-08-08T06:21:48Z</time>
      </trkpt>
      <trkpt lat="45.42962" lon="5.98298">
        <ele>330</ele>
        <time>2014-08-08T06:21:52Z</time>
      </trkpt>
      <trkpt lat="45.42979" lon="5.98282">
        <ele>330</ele>
        <time>2014-08-08T06:21:56Z</time>
      </trkpt>
      <trkpt lat="45.42991" lon="5.98259">
        <ele>329</ele>
        <time>2014-08-08T06:22:01Z</time>
      </trkpt>
      <trkpt lat="45.43003" lon="5.98237">
        <ele>329</ele>
        <time>2014-08-08T06:22:07Z</time>
      </trkpt>
      <trkpt lat="45.43014" lon="5.98213">
        <ele>329</ele>
        <time>2014-08-08T06:22:14Z</time>
      </trkpt>
      <trkpt lat="45.43027" lon="5.98191">
        <ele>329</ele>
        <time>2014-08-08T06:22:20Z</time>
      </trkpt>
      <trkpt lat="45.43036" lon="5.98167">
        <ele>330</ele>
        <time>2014-08-08T06:22:25Z</time>
      </trkpt>
      <trkpt lat="45.43052" lon="5.98156">
        <ele>331</ele>
        <time>2014-08-08T06:22:33Z</time>
      </trkpt>
      <trkpt lat="45.43071" lon="5.98156">
        <ele>331</ele>
        <time>2014-08-08T06:22:39Z</time>
      </trkpt>
      <trkpt lat="45.43092" lon="5.98156">
        <ele>332</ele>
        <time>2014-08-08T06:22:44Z</time>
      </trkpt>
      <trkpt lat="45.43115" lon="5.98154">
        <ele>332</ele>
        <time>2014-08-08T06:22:49Z</time>
      </trkpt>
      <trkpt lat="45.43135" lon="5.98152">
        <ele>332</ele>
        <time>2014-08-08T06:22:54Z</time>
      </trkpt>
      <trkpt lat="45.43147" lon="5.98132">
        <ele>332</ele>
        <time>2014-08-08T06:23:01Z</time>
      </trkpt>
      <trkpt lat="45.43151" lon="5.98104">
        <ele>333</ele>
        <time>2014-08-08T06:23:08Z</time>
      </trkpt>
      <trkpt lat="45.43155" lon="5.98079">
        <ele>334</ele>
        <time>2014-08-08T06:23:15Z</time>
      </trkpt>
      <trkpt lat="45.4316" lon="5.98052">
        <ele>335</ele>
        <time>2014-08-08T06:23:22Z</time>
      </trkpt>
      <trkpt lat="45.43165" lon="5.98025">
        <ele>337</ele>
        <time>2014-08-08T06:23:30Z</time>
      </trkpt>
      <trkpt lat="45.43175" lon="5.98001">
        <ele>339</ele>
        <time>2014-08-08T06:23:37Z</time>
      </trkpt>
      <trkpt lat="45.43185" lon="5.97977">
        <ele>341</ele>
        <time>2014-08-08T06:23:44Z</time>
      </trkpt>
      <trkpt lat="45.43194" lon="5.97953">
        <ele>342</ele>
        <time>2014-08-08T06:23:51Z</time>
      </trkpt>
      <trkpt lat="45.43202" lon="5.97928">
        <ele>343</ele>
        <time>2014-08-08T06:23:59Z</time>
      </trkpt>
      <trkpt lat="45.43211" lon="5.97902">
        <ele>346</ele>
        <time>2014-08-08T06:24:07Z</time>
      </trkpt>
      <trkpt lat="45.43224" lon="5.9788">
        <ele>347</ele>
        <time>2014-08-08T06:24:15Z</time>
      </trkpt>
      <trkpt lat="45.43235" lon="5.9786">
        <ele>348</ele>
        <time>2014-08-08T06:24:23Z</time>
      </trkpt>
      <trkpt lat="45.43246" lon="5.97839">
        <ele>350</ele>
        <time>2014-08-08T06:24:32Z</time>
      </trkpt>
      <trkpt lat="45.43261" lon="5.9782">
        <ele>354</ele>
        <time>2014-08-08T06:24:41Z</time>
      </trkpt>
      <trkpt lat="45.43273" lon="5.97798">
        <ele>356</ele>
        <time>2014-08-08T06:24:49Z</time>
      </trkpt>
      <trkpt lat="45.43283" lon="5.97776">
        <ele>357</ele>
        <time>2014-08-08T06:24:56Z</time>
      </trkpt>
      <trkpt lat="45.43292" lon="5.97751">
        <ele>357</ele>
        <time>2014-08-08T06:25:04Z</time>
      </trkpt>
      <trkpt lat="45.43307" lon="5.97733">
        <ele>362</ele>
        <time>2014-08-08T06:25:13Z</time>
      </trkpt>
      <trkpt lat="45.43326" lon="5.97736">
        <ele>362</ele>
        <time>2014-08-08T06:25:23Z</time>
      </trkpt>
      <trkpt lat="45.43345" lon="5.97741">
        <ele>363</ele>
        <time>2014-08-08T06:25:32Z</time>
      </trkpt>
      <trkpt lat="45.43363" lon="5.97748">
        <ele>364</ele>
        <time>2014-08-08T06:25:38Z</time>
      </trkpt>
      <trkpt lat="45.43381" lon="5.97761">
        <ele>361</ele>
        <time>2014-08-08T06:25:47Z</time>
      </trkpt>
      <trkpt lat="45.43398" lon="5.97774">
        <ele>362</ele>
        <time>2014-08-08T06:25:53Z</time>
      </trkpt>
      <trkpt lat="45.43414" lon="5.97791">
        <ele>361</ele>
        <time>2014-08-08T06:25:58Z</time>
      </trkpt>
      <trkpt lat="45.43433" lon="5.97805">
        <ele>361</ele>
        <time>2014-08-08T06:26:01Z</time>
      </trkpt>
      <trkpt lat="45.43451" lon="5.97822">
        <ele>361</ele>
        <time>2014-08-08T06:26:05Z</time>
      </trkpt>
      <trkpt lat="45.43469" lon="5.97833">
        <ele>360</ele>
        <time>2014-08-08T06:26:09Z</time>
      </trkpt>
      <trkpt lat="45.43487" lon="5.9784">
        <ele>358</ele>
        <time>2014-08-08T06:26:13Z</time>
      </trkpt>
      <trkpt lat="45.43509" lon="5.97843">
        <ele>357</ele>
        <time>2014-08-08T06:26:18Z</time>
      </trkpt>
      <trkpt lat="45.43528" lon="5.97844">
        <ele>357</ele>
        <time>2014-08-08T06:26:22Z</time>
      </trkpt>
      <trkpt lat="45.43548" lon="5.97849">
        <ele>357</ele>
        <time>2014-08-08T06:26:31Z</time>
      </trkpt>
      <trkpt lat="45.43568" lon="5.97845">
        <ele>357</ele>
        <time>2014-08-08T06:26:38Z</time>
      </trkpt>
      <trkpt lat="45.43589" lon="5.97844">
        <ele>358</ele>
        <time>2014-08-08T06:26:42Z</time>
      </trkpt>
      <trkpt lat="45.43611" lon="5.97845">
        <ele>358</ele>
        <time>2014-08-08T06:26:46Z</time>
      </trkpt>
      <trkpt lat="45.43634" lon="5.97848">
        <ele>358</ele>
        <time>2014-08-08T06:26:50Z</time>
      </trkpt>
      <trkpt lat="45.43653" lon="5.97856">
        <ele>359</ele>
        <time>2014-08-08T06:26:54Z</time>
      </trkpt>
      <trkpt lat="45.43674" lon="5.97861">
        <ele>361</ele>
        <time>2014-08-08T06:26:59Z</time>
      </trkpt>
      <trkpt lat="45.43693" lon="5.97869">
        <ele>361</ele>
        <time>2014-08-08T06:27:06Z</time>
      </trkpt>
      <trkpt lat="45.4371" lon="5.97878">
        <ele>361</ele>
        <time>2014-08-08T06:27:12Z</time>
      </trkpt>
      <trkpt lat="45.43727" lon="5.9789">
        <ele>361</ele>
        <time>2014-08-08T06:27:18Z</time>
      </trkpt>
      <trkpt lat="45.43743" lon="5.97901">
        <ele>362</ele>
        <time>2014-08-08T06:27:24Z</time>
      </trkpt>
      <trkpt lat="45.43763" lon="5.97911">
        <ele>363</ele>
        <time>2014-08-08T06:27:30Z</time>
      </trkpt>
      <trkpt lat="45.43782" lon="5.97921">
        <ele>362</ele>
        <time>2014-08-08T06:27:36Z</time>
      </trkpt>
      <trkpt lat="45.438" lon="5.97929">
        <ele>363</ele>
        <time>2014-08-08T06:27:41Z</time>
      </trkpt>
      <trkpt lat="45.43817" lon="5.9794">
        <ele>363</ele>
        <time>2014-08-08T06:27:46Z</time>
      </trkpt>
      <trkpt lat="45.43837" lon="5.97951">
        <ele>366</ele>
        <time>2014-08-08T06:28:13Z</time>
      </trkpt>
      <trkpt lat="45.43857" lon="5.97959">
        <ele>366</ele>
        <time>2014-08-08T06:28:18Z</time>
      </trkpt>
      <trkpt lat="45.43876" lon="5.97975">
        <ele>366</ele>
        <time>2014-08-08T06:28:25Z</time>
      </trkpt>
      <trkpt lat="45.43894" lon="5.97984">
        <ele>367</ele>
        <time>2014-08-08T06:28:29Z</time>
      </trkpt>
      <trkpt lat="45.43912" lon="5.97994">
        <ele>367</ele>
        <time>2014-08-08T06:28:33Z</time>
      </trkpt>
      <trkpt lat="45.43932" lon="5.98001">
        <ele>365</ele>
        <time>2014-08-08T06:28:37Z</time>
      </trkpt>
      <trkpt lat="45.43951" lon="5.98006">
        <ele>363</ele>
        <time>2014-08-08T06:28:41Z</time>
      </trkpt>
      <trkpt lat="45.43972" lon="5.98012">
        <ele>363</ele>
        <time>2014-08-08T06:28:46Z</time>
      </trkpt>
      <trkpt lat="45.43994" lon="5.98017">
        <ele>363</ele>
        <time>2014-08-08T06:28:51Z</time>
      </trkpt>
      <trkpt lat="45.44014" lon="5.98023">
        <ele>362</ele>
        <time>2014-08-08T06:28:55Z</time>
      </trkpt>
      <trkpt lat="45.44037" lon="5.98028">
        <ele>361</ele>
        <time>2014-08-08T06:28:59Z</time>
      </trkpt>
      <trkpt lat="45.4406" lon="5.98035">
        <ele>361</ele>
        <time>2014-08-08T06:29:03Z</time>
      </trkpt>
      <trkpt lat="45.44081" lon="5.98036">
        <ele>361</ele>
        <time>2014-08-08T06:29:07Z</time>
      </trkpt>
      <trkpt lat="45.44103" lon="5.98031">
        <ele>361</ele>
        <time>2014-08-08T06:29:11Z</time>
      </trkpt>
      <trkpt lat="45.44123" lon="5.98027">
        <ele>360</ele>
        <time>2014-08-08T06:29:16Z</time>
      </trkpt>
      <trkpt lat="45.44143" lon="5.98023">
        <ele>360</ele>
        <time>2014-08-08T06:29:21Z</time>
      </trkpt>
      <trkpt lat="45.44164" lon="5.98021">
        <ele>360</ele>
        <time>2014-08-08T06:29:26Z</time>
      </trkpt>
      <trkpt lat="45.44183" lon="5.98021">
        <ele>360</ele>
        <time>2014-08-08T06:29:30Z</time>
      </trkpt>
      <trkpt lat="45.44202" lon="5.98022">
        <ele>360</ele>
        <time>2014-08-08T06:29:34Z</time>
      </trkpt>
      <trkpt lat="45.44221" lon="5.98027">
        <ele>359</ele>
        <time>2014-08-08T06:29:38Z</time>
      </trkpt>
      <trkpt lat="45.44239" lon="5.98035">
        <ele>359</ele>
        <time>2014-08-08T06:29:42Z</time>
      </trkpt>
      <trkpt lat="45.44257" lon="5.98042">
        <ele>360</ele>
        <time>2014-08-08T06:29:46Z</time>
      </trkpt>
      <trkpt lat="45.44275" lon="5.9805">
        <ele>360</ele>
        <time>2014-08-08T06:29:50Z</time>
      </trkpt>
      <trkpt lat="45.44294" lon="5.9806">
        <ele>360</ele>
        <time>2014-08-08T06:29:55Z</time>
      </trkpt>
      <trkpt lat="45.44315" lon="5.98068">
        <ele>360</ele>
        <time>2014-08-08T06:30:01Z</time>
      </trkpt>
      <trkpt lat="45.44332" lon="5.98079">
        <ele>360</ele>
        <time>2014-08-08T06:30:06Z</time>
      </trkpt>
      <trkpt lat="45.4435" lon="5.98089">
        <ele>361</ele>
        <time>2014-08-08T06:30:11Z</time>
      </trkpt>
      <trkpt lat="45.44367" lon="5.98104">
        <ele>362</ele>
        <time>2014-08-08T06:30:17Z</time>
      </trkpt>
      <trkpt lat="45.44381" lon="5.9812">
        <ele>362</ele>
        <time>2014-08-08T06:30:22Z</time>
      </trkpt>
      <trkpt lat="45.44398" lon="5.98137">
        <ele>362</ele>
        <time>2014-08-08T06:30:28Z</time>
      </trkpt>
      <trkpt lat="45.44413" lon="5.98152">
        <ele>362</ele>
        <time>2014-08-08T06:30:33Z</time>
      </trkpt>
      <trkpt lat="45.4443" lon="5.98166">
        <ele>364</ele>
        <time>2014-08-08T06:30:38Z</time>
      </trkpt>
      <trkpt lat="45.44445" lon="5.98184">
        <ele>363</ele>
        <time>2014-08-08T06:30:43Z</time>
      </trkpt>
      <trkpt lat="45.44462" lon="5.98202">
        <ele>363</ele>
        <time>2014-08-08T06:30:48Z</time>
      </trkpt>
      <trkpt lat="45.4448" lon="5.98211">
        <ele>363</ele>
        <time>2014-08-08T06:30:52Z</time>
      </trkpt>
      <trkpt lat="45.44502" lon="5.98215">
        <ele>366</ele>
        <time>2014-08-08T06:30:56Z</time>
      </trkpt>
      <trkpt lat="45.4452" lon="5.98224">
        <ele>366</ele>
        <time>2014-08-08T06:31:00Z</time>
      </trkpt>
      <trkpt lat="45.44538" lon="5.98238">
        <ele>366</ele>
        <time>2014-08-08T06:31:05Z</time>
      </trkpt>
      <trkpt lat="45.44554" lon="5.9826">
        <ele>361</ele>
        <time>2014-08-08T06:31:09Z</time>
      </trkpt>
      <trkpt lat="45.44573" lon="5.98279">
        <ele>361</ele>
        <time>2014-08-08T06:31:13Z</time>
      </trkpt>
      <trkpt lat="45.44591" lon="5.98294">
        <ele>362</ele>
        <time>2014-08-08T06:31:16Z</time>
      </trkpt>
      <trkpt lat="45.44607" lon="5.98308">
        <ele>361</ele>
        <time>2014-08-08T06:31:19Z</time>
      </trkpt>
      <trkpt lat="45.44624" lon="5.9832">
        <ele>361</ele>
        <time>2014-08-08T06:31:22Z</time>
      </trkpt>
      <trkpt lat="45.44641" lon="5.98331">
        <ele>361</ele>
        <time>2014-08-08T06:31:25Z</time>
      </trkpt>
      <trkpt lat="45.4466" lon="5.98344">
        <ele>358</ele>
        <time>2014-08-08T06:31:29Z</time>
      </trkpt>
      <trkpt lat="45.44679" lon="5.98355">
        <ele>360</ele>
        <time>2014-08-08T06:31:33Z</time>
      </trkpt>
      <trkpt lat="45.44697" lon="5.98364">
        <ele>361</ele>
        <time>2014-08-08T06:31:37Z</time>
      </trkpt>
      <trkpt lat="45.44717" lon="5.98371">
        <ele>362</ele>
        <time>2014-08-08T06:31:42Z</time>
      </trkpt>
      <trkpt lat="45.44736" lon="5.98377">
        <ele>362</ele>
        <time>2014-08-08T06:31:48Z</time>
      </trkpt>
      <trkpt lat="45.44756" lon="5.98379">
        <ele>368</ele>
        <time>2014-08-08T06:31:55Z</time>
      </trkpt>
      <trkpt lat="45.44775" lon="5.98381">
        <ele>369</ele>
        <time>2014-08-08T06:32:02Z</time>
      </trkpt>
      <trkpt lat="45.44794" lon="5.98376">
        <ele>371</ele>
        <time>2014-08-08T06:32:12Z</time>
      </trkpt>
      <trkpt lat="45.44814" lon="5.98371">
        <ele>372</ele>
        <time>2014-08-08T06:32:20Z</time>
      </trkpt>
      <trkpt lat="45.44833" lon="5.98369">
        <ele>373</ele>
        <time>2014-08-08T06:32:27Z</time>
      </trkpt>
      <trkpt lat="45.4485" lon="5.98373">
        <ele>382</ele>
        <time>2014-08-08T06:32:34Z</time>
      </trkpt>
      <trkpt lat="45.44868" lon="5.98383">
        <ele>383</ele>
        <time>2014-08-08T06:32:42Z</time>
      </trkpt>
      <trkpt lat="45.44884" lon="5.98396">
        <ele>383</ele>
        <time>2014-08-08T06:32:49Z</time>
      </trkpt>
      <trkpt lat="45.44902" lon="5.98407">
        <ele>384</ele>
        <time>2014-08-08T06:32:58Z</time>
      </trkpt>
      <trkpt lat="45.44917" lon="5.98421">
        <ele>385</ele>
        <time>2014-08-08T06:33:13Z</time>
      </trkpt>
      <trkpt lat="45.44935" lon="5.98429">
        <ele>386</ele>
        <time>2014-08-08T06:33:22Z</time>
      </trkpt>
      <trkpt lat="45.44953" lon="5.98424">
        <ele>386</ele>
        <time>2014-08-08T06:33:30Z</time>
      </trkpt>
      <trkpt lat="45.44973" lon="5.98419">
        <ele>387</ele>
        <time>2014-08-08T06:33:43Z</time>
      </trkpt>
      <trkpt lat="45.4499" lon="5.98428">
        <ele>388</ele>
        <time>2014-08-08T06:33:50Z</time>
      </trkpt>
      <trkpt lat="45.45008" lon="5.9844">
        <ele>391</ele>
        <time>2014-08-08T06:33:59Z</time>
      </trkpt>
      <trkpt lat="45.45027" lon="5.98441">
        <ele>392</ele>
        <time>2014-08-08T06:34:07Z</time>
      </trkpt>
      <trkpt lat="45.45045" lon="5.98439">
        <ele>393</ele>
        <time>2014-08-08T06:34:14Z</time>
      </trkpt>
      <trkpt lat="45.45063" lon="5.98434">
        <ele>394</ele>
        <time>2014-08-08T06:34:20Z</time>
      </trkpt>
      <trkpt lat="45.45083" lon="5.98438">
        <ele>394</ele>
        <time>2014-08-08T06:34:29Z</time>
      </trkpt>
      <trkpt lat="45.451" lon="5.98448">
        <ele>400</ele>
        <time>2014-08-08T06:34:35Z</time>
      </trkpt>
      <trkpt lat="45.45119" lon="5.98455">
        <ele>400</ele>
        <time>2014-08-08T06:34:46Z</time>
      </trkpt>
      <trkpt lat="45.45137" lon="5.9846">
        <ele>401</ele>
        <time>2014-08-08T06:34:55Z</time>
      </trkpt>
      <trkpt lat="45.45154" lon="5.98476">
        <ele>402</ele>
        <time>2014-08-08T06:35:05Z</time>
      </trkpt>
      <trkpt lat="45.45174" lon="5.98481">
        <ele>406</ele>
        <time>2014-08-08T06:35:19Z</time>
      </trkpt>
      <trkpt lat="45.45192" lon="5.98492">
        <ele>407</ele>
        <time>2014-08-08T06:35:30Z</time>
      </trkpt>
      <trkpt lat="45.45211" lon="5.98502">
        <ele>402</ele>
        <time>2014-08-08T06:35:37Z</time>
      </trkpt>
      <trkpt lat="45.45229" lon="5.9851">
        <ele>402</ele>
        <time>2014-08-08T06:35:43Z</time>
      </trkpt>
      <trkpt lat="45.45247" lon="5.98509">
        <ele>403</ele>
        <time>2014-08-08T06:35:52Z</time>
      </trkpt>
      <trkpt lat="45.45266" lon="5.985">
        <ele>398</ele>
        <time>2014-08-08T06:36:00Z</time>
      </trkpt>
      <trkpt lat="45.45291" lon="5.98496">
        <ele>404</ele>
        <time>2014-08-08T06:36:04Z</time>
      </trkpt>
      <trkpt lat="45.45309" lon="5.98492">
        <ele>401</ele>
        <time>2014-08-08T06:36:07Z</time>
      </trkpt>
      <trkpt lat="45.45326" lon="5.98502">
        <ele>391</ele>
        <time>2014-08-08T06:36:13Z</time>
      </trkpt>
      <trkpt lat="45.45345" lon="5.98497">
        <ele>391</ele>
        <time>2014-08-08T06:36:20Z</time>
      </trkpt>
      <trkpt lat="45.45361" lon="5.98479">
        <ele>391</ele>
        <time>2014-08-08T06:36:26Z</time>
      </trkpt>
      <trkpt lat="45.45372" lon="5.98456">
        <ele>392</ele>
        <time>2014-08-08T06:36:33Z</time>
      </trkpt>
      <trkpt lat="45.45381" lon="5.98433">
        <ele>393</ele>
        <time>2014-08-08T06:36:43Z</time>
      </trkpt>
      <trkpt lat="45.45382" lon="5.98407">
        <ele>401</ele>
        <time>2014-08-08T06:36:54Z</time>
      </trkpt>
      <trkpt lat="45.45381" lon="5.98379">
        <ele>403</ele>
        <time>2014-08-08T06:37:04Z</time>
      </trkpt>
      <trkpt lat="45.45394" lon="5.9836">
        <ele>403</ele>
        <time>2014-08-08T06:37:17Z</time>
      </trkpt>
      <trkpt lat="45.4541" lon="5.98343">
        <ele>400</ele>
        <time>2014-08-08T06:37:31Z</time>
      </trkpt>
      <trkpt lat="45.45419" lon="5.98321">
        <ele>391</ele>
        <time>2014-08-08T06:37:36Z</time>
      </trkpt>
      <trkpt lat="45.45423" lon="5.98289">
        <ele>387</ele>
        <time>2014-08-08T06:37:42Z</time>
      </trkpt>
      <trkpt lat="45.45425" lon="5.98258">
        <ele>394</ele>
        <time>2014-08-08T06:37:46Z</time>
      </trkpt>
      <trkpt lat="45.45434" lon="5.98232">
        <ele>394</ele>
        <time>2014-08-08T06:37:51Z</time>
      </trkpt>
      <trkpt lat="45.4545" lon="5.98217">
        <ele>390</ele>
        <time>2014-08-08T06:38:05Z</time>
      </trkpt>
      <trkpt lat="45.45457" lon="5.98188">
        <ele>391</ele>
        <time>2014-08-08T06:38:11Z</time>
      </trkpt>
      <trkpt lat="45.45464" lon="5.98162">
        <ele>398</ele>
        <time>2014-08-08T06:38:17Z</time>
      </trkpt>
      <trkpt lat="45.45481" lon="5.9815">
        <ele>393</ele>
        <time>2014-08-08T06:38:24Z</time>
      </trkpt>
      <trkpt lat="45.45497" lon="5.98134">
        <ele>393</ele>
        <time>2014-08-08T06:38:27Z</time>
      </trkpt>
      <trkpt lat="45.45513" lon="5.98119">
        <ele>374</ele>
        <time>2014-08-08T06:38:30Z</time>
      </trkpt>
      <trkpt lat="45.45526" lon="5.98098">
        <ele>374</ele>
        <time>2014-08-08T06:38:34Z</time>
      </trkpt>
      <trkpt lat="45.45544" lon="5.98083">
        <ele>375</ele>
        <time>2014-08-08T06:38:39Z</time>
      </trkpt>
      <trkpt lat="45.45561" lon="5.98077">
        <ele>371</ele>
        <time>2014-08-08T06:38:46Z</time>
      </trkpt>
      <trkpt lat="45.45572" lon="5.98103">
        <ele>366</ele>
        <time>2014-08-08T06:38:50Z</time>
      </trkpt>
      <trkpt lat="45.45577" lon="5.98132">
        <ele>366</ele>
        <time>2014-08-08T06:38:53Z</time>
      </trkpt>
      <trkpt lat="45.45577" lon="5.98158">
        <ele>361</ele>
        <time>2014-08-08T06:38:57Z</time>
      </trkpt>
      <trkpt lat="45.45568" lon="5.98183">
        <ele>360</ele>
        <time>2014-08-08T06:39:00Z</time>
      </trkpt>
      <trkpt lat="45.45554" lon="5.98206">
        <ele>361</ele>
        <time>2014-08-08T06:39:04Z</time>
      </trkpt>
      <trkpt lat="45.45535" lon="5.98222">
        <ele>362</ele>
        <time>2014-08-08T06:39:09Z</time>
      </trkpt>
      <trkpt lat="45.45525" lon="5.98244">
        <ele>361</ele>
        <time>2014-08-08T06:39:12Z</time>
      </trkpt>
      <trkpt lat="45.45518" lon="5.98277">
        <ele>356</ele>
        <time>2014-08-08T06:39:15Z</time>
      </trkpt>
      <trkpt lat="45.45514" lon="5.98307">
        <ele>356</ele>
        <time>2014-08-08T06:39:17Z</time>
      </trkpt>
      <trkpt lat="45.45524" lon="5.98335">
        <ele>352</ele>
        <time>2014-08-08T06:39:20Z</time>
      </trkpt>
      <trkpt lat="45.45539" lon="5.98355">
        <ele>350</ele>
        <time>2014-08-08T06:39:23Z</time>
      </trkpt>
      <trkpt lat="45.45551" lon="5.98378">
        <ele>348</ele>
        <time>2014-08-08T06:39:26Z</time>
      </trkpt>
      <trkpt lat="45.45559" lon="5.98405">
        <ele>345</ele>
        <time>2014-08-08T06:39:29Z</time>
      </trkpt>
      <trkpt lat="45.45568" lon="5.98429">
        <ele>342</ele>
        <time>2014-08-08T06:39:32Z</time>
      </trkpt>
      <trkpt lat="45.45581" lon="5.98452">
        <ele>343</ele>
        <time>2014-08-08T06:39:35Z</time>
      </trkpt>
      <trkpt lat="45.456" lon="5.98465">
        <ele>339</ele>
        <time>2014-08-08T06:39:38Z</time>
      </trkpt>
      <trkpt lat="45.45619" lon="5.98465">
        <ele>339</ele>
        <time>2014-08-08T06:39:40Z</time>
      </trkpt>
      <trkpt lat="45.4564" lon="5.98465">
        <ele>340</ele>
        <time>2014-08-08T06:39:44Z</time>
      </trkpt>
      <trkpt lat="45.45658" lon="5.98473">
        <ele>338</ele>
        <time>2014-08-08T06:39:47Z</time>
      </trkpt>
      <trkpt lat="45.45679" lon="5.98486">
        <ele>342</ele>
        <time>2014-08-08T06:39:50Z</time>
      </trkpt>
      <trkpt lat="45.45691" lon="5.98509">
        <ele>331</ele>
        <time>2014-08-08T06:39:53Z</time>
      </trkpt>
      <trkpt lat="45.45694" lon="5.98542">
        <ele>330</ele>
        <time>2014-08-08T06:39:56Z</time>
      </trkpt>
      <trkpt lat="45.45697" lon="5.98579">
        <ele>329</ele>
        <time>2014-08-08T06:39:59Z</time>
      </trkpt>
      <trkpt lat="45.45711" lon="5.98609">
        <ele>322</ele>
        <time>2014-08-08T06:40:02Z</time>
      </trkpt>
      <trkpt lat="45.4573" lon="5.98631">
        <ele>320</ele>
        <time>2014-08-08T06:40:05Z</time>
      </trkpt>
      <trkpt lat="45.45751" lon="5.98649">
        <ele>314</ele>
        <time>2014-08-08T06:40:08Z</time>
      </trkpt>
      <trkpt lat="45.45768" lon="5.98659">
        <ele>314</ele>
        <time>2014-08-08T06:40:10Z</time>
      </trkpt>
      <trkpt lat="45.45792" lon="5.98665">
        <ele>315</ele>
        <time>2014-08-08T06:40:13Z</time>
      </trkpt>
      <trkpt lat="45.45815" lon="5.98671">
        <ele>314</ele>
        <time>2014-08-08T06:40:16Z</time>
      </trkpt>
      <trkpt lat="45.45838" lon="5.98689">
        <ele>314</ele>
        <time>2014-08-08T06:40:20Z</time>
      </trkpt>
      <trkpt lat="45.45853" lon="5.98715">
        <ele>313</ele>
        <time>2014-08-08T06:40:23Z</time>
      </trkpt>
      <trkpt lat="45.45864" lon="5.98737">
        <ele>312</ele>
        <time>2014-08-08T06:40:25Z</time>
      </trkpt>
      <trkpt lat="45.45877" lon="5.98761">
        <ele>308</ele>
        <time>2014-08-08T06:40:28Z</time>
      </trkpt>
      <trkpt lat="45.45897" lon="5.98779">
        <ele>307</ele>
        <time>2014-08-08T06:40:32Z</time>
      </trkpt>
      <trkpt lat="45.45912" lon="5.98803">
        <ele>306</ele>
        <time>2014-08-08T06:40:35Z</time>
      </trkpt>
      <trkpt lat="45.45928" lon="5.98825">
        <ele>303</ele>
        <time>2014-08-08T06:40:38Z</time>
      </trkpt>
      <trkpt lat="45.45944" lon="5.98846">
        <ele>303</ele>
        <time>2014-08-08T06:40:41Z</time>
      </trkpt>
      <trkpt lat="45.45964" lon="5.98863">
        <ele>302</ele>
        <time>2014-08-08T06:40:44Z</time>
      </trkpt>
      <trkpt lat="45.45986" lon="5.98871">
        <ele>302</ele>
        <time>2014-08-08T06:40:47Z</time>
      </trkpt>
      <trkpt lat="45.46009" lon="5.9888">
        <ele>300</ele>
        <time>2014-08-08T06:40:51Z</time>
      </trkpt>
      <trkpt lat="45.46024" lon="5.98897">
        <ele>300</ele>
        <time>2014-08-08T06:40:54Z</time>
      </trkpt>
      <trkpt lat="45.46041" lon="5.98917">
        <ele>298</ele>
        <time>2014-08-08T06:40:58Z</time>
      </trkpt>
      <trkpt lat="45.46062" lon="5.98931">
        <ele>298</ele>
        <time>2014-08-08T06:41:02Z</time>
      </trkpt>
      <trkpt lat="45.46085" lon="5.98931">
        <ele>296</ele>
        <time>2014-08-08T06:41:06Z</time>
      </trkpt>
      <trkpt lat="45.46104" lon="5.9893">
        <ele>296</ele>
        <time>2014-08-08T06:41:09Z</time>
      </trkpt>
      <trkpt lat="45.46124" lon="5.98927">
        <ele>295</ele>
        <time>2014-08-08T06:41:13Z</time>
      </trkpt>
      <trkpt lat="45.46145" lon="5.9893">
        <ele>295</ele>
        <time>2014-08-08T06:41:17Z</time>
      </trkpt>
      <trkpt lat="45.46166" lon="5.98941">
        <ele>295</ele>
        <time>2014-08-08T06:41:22Z</time>
      </trkpt>
      <trkpt lat="45.46184" lon="5.98957">
        <ele>293</ele>
        <time>2014-08-08T06:41:27Z</time>
      </trkpt>
      <trkpt lat="45.46202" lon="5.98968">
        <ele>293</ele>
        <time>2014-08-08T06:41:33Z</time>
      </trkpt>
      <trkpt lat="45.46224" lon="5.98979">
        <ele>292</ele>
        <time>2014-08-08T06:41:39Z</time>
      </trkpt>
      <trkpt lat="45.46243" lon="5.98991">
        <ele>292</ele>
        <time>2014-08-08T06:41:43Z</time>
      </trkpt>
      <trkpt lat="45.4626" lon="5.99003">
        <ele>292</ele>
        <time>2014-08-08T06:41:47Z</time>
      </trkpt>
      <trkpt lat="45.4628" lon="5.9902">
        <ele>291</ele>
        <time>2014-08-08T06:41:52Z</time>
      </trkpt>
      <trkpt lat="45.46297" lon="5.99033">
        <ele>291</ele>
        <time>2014-08-08T06:41:55Z</time>
      </trkpt>
      <trkpt lat="45.46316" lon="5.99039">
        <ele>291</ele>
        <time>2014-08-08T06:41:59Z</time>
      </trkpt>
      <trkpt lat="45.46337" lon="5.99039">
        <ele>289</ele>
        <time>2014-08-08T06:42:04Z</time>
      </trkpt>
      <trkpt lat="45.46358" lon="5.99036">
        <ele>289</ele>
        <time>2014-08-08T06:42:10Z</time>
      </trkpt>
      <trkpt lat="45.46376" lon="5.99037">
        <ele>289</ele>
        <time>2014-08-08T06:42:15Z</time>
      </trkpt>
      <trkpt lat="45.46395" lon="5.9903">
        <ele>289</ele>
        <time>2014-08-08T06:42:21Z</time>
      </trkpt>
      <trkpt lat="45.46397" lon="5.99004">
        <ele>289</ele>
        <time>2014-08-08T06:42:25Z</time>
      </trkpt>
      <trkpt lat="45.46394" lon="5.98975">
        <ele>289</ele>
        <time>2014-08-08T06:42:30Z</time>
      </trkpt>
      <trkpt lat="45.46391" lon="5.98946">
        <ele>289</ele>
        <time>2014-08-08T06:42:36Z</time>
      </trkpt>
      <trkpt lat="45.46391" lon="5.98916">
        <ele>289</ele>
        <time>2014-08-08T06:42:42Z</time>
      </trkpt>
      <trkpt lat="45.46388" lon="5.98889">
        <ele>289</ele>
        <time>2014-08-08T06:42:47Z</time>
      </trkpt>
      <trkpt lat="45.46383" lon="5.98858">
        <ele>290</ele>
        <time>2014-08-08T06:42:53Z</time>
      </trkpt>
      <trkpt lat="45.46381" lon="5.98828">
        <ele>291</ele>
        <time>2014-08-08T06:42:59Z</time>
      </trkpt>
      <trkpt lat="45.46378" lon="5.98801">
        <ele>291</ele>
        <time>2014-08-08T06:43:05Z</time>
      </trkpt>
      <trkpt lat="45.46374" lon="5.98775">
        <ele>291</ele>
        <time>2014-08-08T06:43:11Z</time>
      </trkpt>
      <trkpt lat="45.46368" lon="5.98746">
        <ele>294</ele>
        <time>2014-08-08T06:43:19Z</time>
      </trkpt>
      <trkpt lat="45.4636" lon="5.9872">
        <ele>295</ele>
        <time>2014-08-08T06:43:26Z</time>
      </trkpt>
      <trkpt lat="45.46354" lon="5.98686">
        <ele>298</ele>
        <time>2014-08-08T06:43:35Z</time>
      </trkpt>
      <trkpt lat="45.46372" lon="5.9867">
        <ele>297</ele>
        <time>2014-08-08T06:43:45Z</time>
      </trkpt>
      <trkpt lat="45.4639" lon="5.98665">
        <ele>301</ele>
        <time>2014-08-08T06:43:48Z</time>
      </trkpt>
      <trkpt lat="45.46412" lon="5.98662">
        <ele>297</ele>
        <time>2014-08-08T06:43:52Z</time>
      </trkpt>
      <trkpt lat="45.46432" lon="5.98658">
        <ele>297</ele>
        <time>2014-08-08T06:43:55Z</time>
      </trkpt>
      <trkpt lat="45.46452" lon="5.98657">
        <ele>297</ele>
        <time>2014-08-08T06:43:59Z</time>
      </trkpt>
      <trkpt lat="45.46473" lon="5.98651">
        <ele>296</ele>
        <time>2014-08-08T06:44:03Z</time>
      </trkpt>
      <trkpt lat="45.46495" lon="5.98641">
        <ele>296</ele>
        <time>2014-08-08T06:44:07Z</time>
      </trkpt>
      <trkpt lat="45.46512" lon="5.98632">
        <ele>292</ele>
        <time>2014-08-08T06:44:11Z</time>
      </trkpt>
      <trkpt lat="45.4653" lon="5.98624">
        <ele>292</ele>
        <time>2014-08-08T06:44:24Z</time>
      </trkpt>
      <trkpt lat="45.46531" lon="5.98589">
        <ele>293</ele>
        <time>2014-08-08T06:44:42Z</time>
      </trkpt>
      <trkpt lat="45.46521" lon="5.98564">
        <ele>296</ele>
        <time>2014-08-08T06:44:53Z</time>
      </trkpt>
      <trkpt lat="45.4651" lon="5.9853">
        <ele>297</ele>
        <time>2014-08-08T06:45:07Z</time>
      </trkpt>
      <trkpt lat="45.46493" lon="5.98505">
        <ele>302</ele>
        <time>2014-08-08T06:45:21Z</time>
      </trkpt>
      <trkpt lat="45.46478" lon="5.98521">
        <ele>304</ele>
        <time>2014-08-08T06:45:34Z</time>
      </trkpt>
      <trkpt lat="45.46468" lon="5.98557">
        <ele>304</ele>
        <time>2014-08-08T06:45:51Z</time>
      </trkpt>
      <trkpt lat="45.46461" lon="5.98587">
        <ele>300</ele>
        <time>2014-08-08T06:46:06Z</time>
      </trkpt>
      <trkpt lat="45.46442" lon="5.98585">
        <ele>302</ele>
        <time>2014-08-08T06:46:21Z</time>
      </trkpt>
      <trkpt lat="45.46436" lon="5.98561">
        <ele>307</ele>
        <time>2014-08-08T06:46:34Z</time>
      </trkpt>
      <trkpt lat="45.46433" lon="5.98523">
        <ele>308</ele>
        <time>2014-08-08T06:46:52Z</time>
      </trkpt>
      <trkpt lat="45.46424" lon="5.985">
        <ele>313</ele>
        <time>2014-08-08T06:47:06Z</time>
      </trkpt>
      <trkpt lat="45.46413" lon="5.98479">
        <ele>317</ele>
        <time>2014-08-08T06:47:19Z</time>
      </trkpt>
      <trkpt lat="45.46391" lon="5.98458">
        <ele>319</ele>
        <time>2014-08-08T06:47:37Z</time>
      </trkpt>
      <trkpt lat="45.46376" lon="5.98443">
        <ele>320</ele>
        <time>2014-08-08T06:47:50Z</time>
      </trkpt>
      <trkpt lat="45.46358" lon="5.9843">
        <ele>322</ele>
        <time>2014-08-08T06:48:03Z</time>
      </trkpt>
      <trkpt lat="45.46341" lon="5.98416">
        <ele>327</ele>
        <time>2014-08-08T06:48:14Z</time>
      </trkpt>
      <trkpt lat="45.46318" lon="5.98397">
        <ele>339</ele>
        <time>2014-08-08T06:48:30Z</time>
      </trkpt>
      <trkpt lat="45.46306" lon="5.98362">
        <ele>344</ele>
        <time>2014-08-08T06:48:46Z</time>
      </trkpt>
      <trkpt lat="45.46297" lon="5.98335">
        <ele>346</ele>
        <time>2014-08-08T06:48:58Z</time>
      </trkpt>
      <trkpt lat="45.4629" lon="5.98312">
        <ele>353</ele>
        <time>2014-08-08T06:49:07Z</time>
      </trkpt>
      <trkpt lat="45.46286" lon="5.98286">
        <ele>354</ele>
        <time>2014-08-08T06:49:20Z</time>
      </trkpt>
      <trkpt lat="45.46272" lon="5.98269">
        <ele>358</ele>
        <time>2014-08-08T06:49:36Z</time>
      </trkpt>
      <trkpt lat="45.46273" lon="5.98241">
        <ele>362</ele>
        <time>2014-08-08T06:49:43Z</time>
      </trkpt>
      <trkpt lat="45.46271" lon="5.98215">
        <ele>362</ele>
        <time>2014-08-08T06:49:51Z</time>
      </trkpt>
      <trkpt lat="45.46269" lon="5.98189">
        <ele>364</ele>
        <time>2014-08-08T06:49:59Z</time>
      </trkpt>
      <trkpt lat="45.46253" lon="5.98199">
        <ele>364</ele>
        <time>2014-08-08T06:50:15Z</time>
      </trkpt>
      <trkpt lat="45.46251" lon="5.98225">
        <ele>364</ele>
        <time>2014-08-08T06:50:25Z</time>
      </trkpt>
      <trkpt lat="45.46255" lon="5.98251">
        <ele>366</ele>
        <time>2014-08-08T06:50:37Z</time>
      </trkpt>
      <trkpt lat="45.46253" lon="5.98277">
        <ele>360</ele>
        <time>2014-08-08T06:50:55Z</time>
      </trkpt>
      <trkpt lat="45.4625" lon="5.98304">
        <ele>359</ele>
        <time>2014-08-08T06:51:12Z</time>
      </trkpt>
      <trkpt lat="45.46244" lon="5.98329">
        <ele>372</ele>
        <time>2014-08-08T06:51:26Z</time>
      </trkpt>
      <trkpt lat="45.46241" lon="5.98355">
        <ele>372</ele>
        <time>2014-08-08T06:51:42Z</time>
      </trkpt>
      <trkpt lat="45.46234" lon="5.98379">
        <ele>372</ele>
        <time>2014-08-08T06:51:57Z</time>
      </trkpt>
      <trkpt lat="45.46216" lon="5.98386">
        <ele>375</ele>
        <time>2014-08-08T06:52:11Z</time>
      </trkpt>
      <trkpt lat="45.46197" lon="5.98389">
        <ele>378</ele>
        <time>2014-08-08T06:52:29Z</time>
      </trkpt>
      <trkpt lat="45.46181" lon="5.98403">
        <ele>381</ele>
        <time>2014-08-08T06:52:46Z</time>
      </trkpt>
      <trkpt lat="45.46168" lon="5.98421">
        <ele>382</ele>
        <time>2014-08-08T06:52:58Z</time>
      </trkpt>
      <trkpt lat="45.46154" lon="5.98439">
        <ele>386</ele>
        <time>2014-08-08T06:53:12Z</time>
      </trkpt>
      <trkpt lat="45.46136" lon="5.9845">
        <ele>387</ele>
        <time>2014-08-08T06:53:25Z</time>
      </trkpt>
      <trkpt lat="45.4612" lon="5.98464">
        <ele>388</ele>
        <time>2014-08-08T06:53:43Z</time>
      </trkpt>
      <trkpt lat="45.46102" lon="5.98466">
        <ele>389</ele>
        <time>2014-08-08T06:53:54Z</time>
      </trkpt>
      <trkpt lat="45.46084" lon="5.98472">
        <ele>389</ele>
        <time>2014-08-08T06:54:04Z</time>
      </trkpt>
      <trkpt lat="45.46065" lon="5.9848">
        <ele>396</ele>
        <time>2014-08-08T06:54:19Z</time>
      </trkpt>
      <trkpt lat="45.46049" lon="5.98491">
        <ele>397</ele>
        <time>2014-08-08T06:54:29Z</time>
      </trkpt>
      <trkpt lat="45.46026" lon="5.98492">
        <ele>398</ele>
        <time>2014-08-08T06:54:45Z</time>
      </trkpt>
      <trkpt lat="45.46008" lon="5.9848">
        <ele>399</ele>
        <time>2014-08-08T06:54:54Z</time>
      </trkpt>
      <trkpt lat="45.45996" lon="5.9846">
        <ele>398</ele>
        <time>2014-08-08T06:55:09Z</time>
      </trkpt>
      <trkpt lat="45.45985" lon="5.98439">
        <ele>401</ele>
        <time>2014-08-08T06:55:25Z</time>
      </trkpt>
      <trkpt lat="45.45974" lon="5.98415">
        <ele>408</ele>
        <time>2014-08-08T06:55:37Z</time>
      </trkpt>
      <trkpt lat="45.45963" lon="5.98394">
        <ele>407</ele>
        <time>2014-08-08T06:55:52Z</time>
      </trkpt>
      <trkpt lat="45.4596" lon="5.98369">
        <ele>409</ele>
        <time>2014-08-08T06:56:07Z</time>
      </trkpt>
      <trkpt lat="45.4597" lon="5.98346">
        <ele>412</ele>
        <time>2014-08-08T06:56:16Z</time>
      </trkpt>
      <trkpt lat="45.45982" lon="5.98325">
        <ele>422</ele>
        <time>2014-08-08T06:56:26Z</time>
      </trkpt>
      <trkpt lat="45.45993" lon="5.98303">
        <ele>423</ele>
        <time>2014-08-08T06:56:36Z</time>
      </trkpt>
      <trkpt lat="45.46001" lon="5.9828">
        <ele>425</ele>
        <time>2014-08-08T06:56:50Z</time>
      </trkpt>
      <trkpt lat="45.46007" lon="5.98254">
        <ele>429</ele>
        <time>2014-08-08T06:57:07Z</time>
      </trkpt>
      <trkpt lat="45.46015" lon="5.98231">
        <ele>432</ele>
        <time>2014-08-08T06:57:13Z</time>
      </trkpt>
      <trkpt lat="45.46021" lon="5.98206">
        <ele>434</ele>
        <time>2014-08-08T06:57:23Z</time>
      </trkpt>
      <trkpt lat="45.46002" lon="5.98202">
        <ele>435</ele>
        <time>2014-08-08T06:57:34Z</time>
      </trkpt>
      <trkpt lat="45.45986" lon="5.98214">
        <ele>439</ele>
        <time>2014-08-08T06:57:48Z</time>
      </trkpt>
      <trkpt lat="45.45968" lon="5.98223">
        <ele>439</ele>
        <time>2014-08-08T06:58:01Z</time>
      </trkpt>
      <trkpt lat="45.45951" lon="5.98235">
        <ele>438</ele>
        <time>2014-08-08T06:58:13Z</time>
      </trkpt>
      <trkpt lat="45.4593" lon="5.9824">
        <ele>438</ele>
        <time>2014-08-08T06:58:27Z</time>
      </trkpt>
      <trkpt lat="45.45933" lon="5.98214">
        <ele>441</ele>
        <time>2014-08-08T06:58:53Z</time>
      </trkpt>
      <trkpt lat="45.45945" lon="5.98192">
        <ele>443</ele>
        <time>2014-08-08T06:59:00Z</time>
      </trkpt>
      <trkpt lat="45.45957" lon="5.9817">
        <ele>443</ele>
        <time>2014-08-08T06:59:15Z</time>
      </trkpt>
      <trkpt lat="45.45965" lon="5.98146">
        <ele>452</ele>
        <time>2014-08-08T06:59:30Z</time>
      </trkpt>
      <trkpt lat="45.45971" lon="5.98121">
        <ele>453</ele>
        <time>2014-08-08T06:59:45Z</time>
      </trkpt>
      <trkpt lat="45.45979" lon="5.98096">
        <ele>455</ele>
        <time>2014-08-08T06:59:58Z</time>
      </trkpt>
      <trkpt lat="45.45981" lon="5.98069">
        <ele>460</ele>
        <time>2014-08-08T07:00:10Z</time>
      </trkpt>
      <trkpt lat="45.45987" lon="5.98045">
        <ele>461</ele>
        <time>2014-08-08T07:00:25Z</time>
      </trkpt>
      <trkpt lat="45.45989" lon="5.98019">
        <ele>461</ele>
        <time>2014-08-08T07:00:37Z</time>
      </trkpt>
      <trkpt lat="45.45979" lon="5.97996">
        <ele>465</ele>
        <time>2014-08-08T07:00:50Z</time>
      </trkpt>
      <trkpt lat="45.45967" lon="5.97974">
        <ele>467</ele>
        <time>2014-08-08T07:01:01Z</time>
      </trkpt>
      <trkpt lat="45.45969" lon="5.97946">
        <ele>468</ele>
        <time>2014-08-08T07:01:20Z</time>
      </trkpt>
      <trkpt lat="45.45964" lon="5.97919">
        <ele>469</ele>
        <time>2014-08-08T07:01:53Z</time>
      </trkpt>
      <trkpt lat="45.45961" lon="5.97886">
        <ele>475</ele>
        <time>2014-08-08T07:02:00Z</time>
      </trkpt>
      <trkpt lat="45.45967" lon="5.97847">
        <ele>476</ele>
        <time>2014-08-08T07:02:13Z</time>
      </trkpt>
      <trkpt lat="45.45972" lon="5.97822">
        <ele>480</ele>
        <time>2014-08-08T07:02:20Z</time>
      </trkpt>
      <trkpt lat="45.45984" lon="5.97802">
        <ele>480</ele>
        <time>2014-08-08T07:02:40Z</time>
      </trkpt>
      <trkpt lat="45.45997" lon="5.97779">
        <ele>481</ele>
        <time>2014-08-08T07:02:43Z</time>
      </trkpt>
      <trkpt lat="45.46011" lon="5.97761">
        <ele>476</ele>
        <time>2014-08-08T07:02:56Z</time>
      </trkpt>
      <trkpt lat="45.46019" lon="5.97733">
        <ele>481</ele>
        <time>2014-08-08T07:03:13Z</time>
      </trkpt>
      <trkpt lat="45.46036" lon="5.97713">
        <ele>481</ele>
        <time>2014-08-08T07:03:21Z</time>
      </trkpt>
      <trkpt lat="45.4605" lon="5.97696">
        <ele>482</ele>
        <time>2014-08-08T07:03:29Z</time>
      </trkpt>
      <trkpt lat="45.46063" lon="5.97678">
        <ele>482</ele>
        <time>2014-08-08T07:03:37Z</time>
      </trkpt>
      <trkpt lat="45.46073" lon="5.97656">
        <ele>488</ele>
        <time>2014-08-08T07:03:48Z</time>
      </trkpt>
      <trkpt lat="45.46081" lon="5.97633">
        <ele>492</ele>
        <time>2014-08-08T07:03:59Z</time>
      </trkpt>
      <trkpt lat="45.46093" lon="5.9761">
        <ele>489</ele>
        <time>2014-08-08T07:04:11Z</time>
      </trkpt>
      <trkpt lat="45.46106" lon="5.97592">
        <ele>490</ele>
        <time>2014-08-08T07:04:21Z</time>
      </trkpt>
      <trkpt lat="45.46117" lon="5.9757">
        <ele>498</ele>
        <time>2014-08-08T07:04:31Z</time>
      </trkpt>
      <trkpt lat="45.46125" lon="5.97545">
        <ele>500</ele>
        <time>2014-08-08T07:04:42Z</time>
      </trkpt>
      <trkpt lat="45.46135" lon="5.97523">
        <ele>501</ele>
        <time>2014-08-08T07:04:52Z</time>
      </trkpt>
      <trkpt lat="45.46145" lon="5.97501">
        <ele>502</ele>
        <time>2014-08-08T07:05:04Z</time>
      </trkpt>
      <trkpt lat="45.4616" lon="5.97485">
        <ele>509</ele>
        <time>2014-08-08T07:05:18Z</time>
      </trkpt>
      <trkpt lat="45.46177" lon="5.97475">
        <ele>507</ele>
        <time>2014-08-08T07:05:29Z</time>
      </trkpt>
      <trkpt lat="45.46195" lon="5.97469">
        <ele>507</ele>
        <time>2014-08-08T07:05:49Z</time>
      </trkpt>
      <trkpt lat="45.46212" lon="5.97456">
        <ele>507</ele>
        <time>2014-08-08T07:06:02Z</time>
      </trkpt>
      <trkpt lat="45.46231" lon="5.9745">
        <ele>507</ele>
        <time>2014-08-08T07:06:15Z</time>
      </trkpt>
      <trkpt lat="45.46249" lon="5.97441">
        <ele>509</ele>
        <time>2014-08-08T07:06:27Z</time>
      </trkpt>
      <trkpt lat="45.46267" lon="5.97434">
        <ele>507</ele>
        <time>2014-08-08T07:06:36Z</time>
      </trkpt>
      <trkpt lat="45.46285" lon="5.97422">
        <ele>507</ele>
        <time>2014-08-08T07:06:48Z</time>
      </trkpt>
      <trkpt lat="45.46303" lon="5.97411">
        <ele>518</ele>
        <time>2014-08-08T07:06:57Z</time>
      </trkpt>
      <trkpt lat="45.4632" lon="5.97398">
        <ele>517</ele>
        <time>2014-08-08T07:07:08Z</time>
      </trkpt>
      <trkpt lat="45.46337" lon="5.97383">
        <ele>516</ele>
        <time>2014-08-08T07:07:20Z</time>
      </trkpt>
      <trkpt lat="45.4635" lon="5.97366">
        <ele>517</ele>
        <time>2014-08-08T07:07:32Z</time>
      </trkpt>
      <trkpt lat="45.46362" lon="5.97346">
        <ele>518</ele>
        <time>2014-08-08T07:07:42Z</time>
      </trkpt>
      <trkpt lat="45.46377" lon="5.97328">
        <ele>526</ele>
        <time>2014-08-08T07:07:52Z</time>
      </trkpt>
      <trkpt lat="45.4639" lon="5.97308">
        <ele>526</ele>
        <time>2014-08-08T07:08:03Z</time>
      </trkpt>
      <trkpt lat="45.46397" lon="5.97283">
        <ele>527</ele>
        <time>2014-08-08T07:08:14Z</time>
      </trkpt>
      <trkpt lat="45.46408" lon="5.97261">
        <ele>527</ele>
        <time>2014-08-08T07:08:24Z</time>
      </trkpt>
      <trkpt lat="45.46415" lon="5.97236">
        <ele>533</ele>
        <time>2014-08-08T07:08:35Z</time>
      </trkpt>
      <trkpt lat="45.4643" lon="5.9722">
        <ele>530</ele>
        <time>2014-08-08T07:08:49Z</time>
      </trkpt>
      <trkpt lat="45.46448" lon="5.97225">
        <ele>530</ele>
        <time>2014-08-08T07:08:59Z</time>
      </trkpt>
      <trkpt lat="45.46466" lon="5.97236">
        <ele>529</ele>
        <time>2014-08-08T07:09:08Z</time>
      </trkpt>
      <trkpt lat="45.46485" lon="5.97243">
        <ele>528</ele>
        <time>2014-08-08T07:09:19Z</time>
      </trkpt>
      <trkpt lat="45.46502" lon="5.97252">
        <ele>526</ele>
        <time>2014-08-08T07:09:27Z</time>
      </trkpt>
      <trkpt lat="45.4652" lon="5.97262">
        <ele>527</ele>
        <time>2014-08-08T07:09:35Z</time>
      </trkpt>
      <trkpt lat="45.46506" lon="5.97246">
        <ele>527</ele>
        <time>2014-08-08T07:13:25Z</time>
      </trkpt>
      <trkpt lat="45.46522" lon="5.97261">
        <ele>527</ele>
        <time>2014-08-08T07:14:04Z</time>
      </trkpt>
      <trkpt lat="45.4654" lon="5.97268">
        <ele>528</ele>
        <time>2014-08-08T07:15:02Z</time>
      </trkpt>
      <trkpt lat="45.4656" lon="5.97271">
        <ele>529</ele>
        <time>2014-08-08T07:15:09Z</time>
      </trkpt>
      <trkpt lat="45.46581" lon="5.97273">
        <ele>530</ele>
        <time>2014-08-08T07:15:16Z</time>
      </trkpt>
      <trkpt lat="45.466" lon="5.97268">
        <ele>532</ele>
        <time>2014-08-08T07:15:24Z</time>
      </trkpt>
      <trkpt lat="45.4662" lon="5.97271">
        <ele>532</ele>
        <time>2014-08-08T07:15:31Z</time>
      </trkpt>
      <trkpt lat="45.46638" lon="5.97266">
        <ele>532</ele>
        <time>2014-08-08T07:15:39Z</time>
      </trkpt>
      <trkpt lat="45.46646" lon="5.97241">
        <ele>532</ele>
        <time>2014-08-08T07:16:17Z</time>
      </trkpt>
      <trkpt lat="45.46642" lon="5.97214">
        <ele>532</ele>
        <time>2014-08-08T07:16:24Z</time>
      </trkpt>
      <trkpt lat="45.4664" lon="5.97186">
        <ele>532</ele>
        <time>2014-08-08T07:16:31Z</time>
      </trkpt>
      <trkpt lat="45.4664" lon="5.97157">
        <ele>533</ele>
        <time>2014-08-08T07:16:39Z</time>
      </trkpt>
      <trkpt lat="45.46635" lon="5.9713">
        <ele>534</ele>
        <time>2014-08-08T07:16:47Z</time>
      </trkpt>
      <trkpt lat="45.46634" lon="5.97104">
        <ele>535</ele>
        <time>2014-08-08T07:16:55Z</time>
      </trkpt>
      <trkpt lat="45.46628" lon="5.97079">
        <ele>541</ele>
        <time>2014-08-08T07:17:10Z</time>
      </trkpt>
      <trkpt lat="45.46609" lon="5.97076">
        <ele>542</ele>
        <time>2014-08-08T07:17:22Z</time>
      </trkpt>
      <trkpt lat="45.46591" lon="5.97073">
        <ele>543</ele>
        <time>2014-08-08T07:17:34Z</time>
      </trkpt>
      <trkpt lat="45.46575" lon="5.97061">
        <ele>546</ele>
        <time>2014-08-08T07:17:50Z</time>
      </trkpt>
      <trkpt lat="45.46558" lon="5.97048">
        <ele>548</ele>
        <time>2014-08-08T07:18:04Z</time>
      </trkpt>
      <trkpt lat="45.46544" lon="5.97031">
        <ele>550</ele>
        <time>2014-08-08T07:18:15Z</time>
      </trkpt>
      <trkpt lat="45.46538" lon="5.97005">
        <ele>551</ele>
        <time>2014-08-08T07:18:25Z</time>
      </trkpt>
      <trkpt lat="45.46551" lon="5.96986">
        <ele>560</ele>
        <time>2014-08-08T07:18:39Z</time>
      </trkpt>
      <trkpt lat="45.46567" lon="5.96971">
        <ele>561</ele>
        <time>2014-08-08T07:18:50Z</time>
      </trkpt>
      <trkpt lat="45.46583" lon="5.96956">
        <ele>562</ele>
        <time>2014-08-08T07:19:03Z</time>
      </trkpt>
      <trkpt lat="45.46597" lon="5.96938">
        <ele>559</ele>
        <time>2014-08-08T07:19:16Z</time>
      </trkpt>
      <trkpt lat="45.46608" lon="5.96918">
        <ele>560</ele>
        <time>2014-08-08T07:19:26Z</time>
      </trkpt>
      <trkpt lat="45.46609" lon="5.96891">
        <ele>567</ele>
        <time>2014-08-08T07:19:36Z</time>
      </trkpt>
      <trkpt lat="45.46609" lon="5.96865">
        <ele>568</ele>
        <time>2014-08-08T07:19:47Z</time>
      </trkpt>
      <trkpt lat="45.46606" lon="5.96838">
        <ele>570</ele>
        <time>2014-08-08T07:19:58Z</time>
      </trkpt>
      <trkpt lat="45.46607" lon="5.96812">
        <ele>579</ele>
        <time>2014-08-08T07:20:09Z</time>
      </trkpt>
      <trkpt lat="45.46613" lon="5.96786">
        <ele>581</ele>
        <time>2014-08-08T07:20:22Z</time>
      </trkpt>
      <trkpt lat="45.46628" lon="5.9677">
        <ele>582</ele>
        <time>2014-08-08T07:20:35Z</time>
      </trkpt>
      <trkpt lat="45.46645" lon="5.96757">
        <ele>584</ele>
        <time>2014-08-08T07:20:47Z</time>
      </trkpt>
      <trkpt lat="45.46663" lon="5.96747">
        <ele>589</ele>
        <time>2014-08-08T07:21:02Z</time>
      </trkpt>
      <trkpt lat="45.46683" lon="5.96744">
        <ele>593</ele>
        <time>2014-08-08T07:21:15Z</time>
      </trkpt>
      <trkpt lat="45.46701" lon="5.96744">
        <ele>595</ele>
        <time>2014-08-08T07:21:27Z</time>
      </trkpt>
      <trkpt lat="45.46721" lon="5.96748">
        <ele>596</ele>
        <time>2014-08-08T07:21:38Z</time>
      </trkpt>
      <trkpt lat="45.46741" lon="5.9675">
        <ele>596</ele>
        <time>2014-08-08T07:21:44Z</time>
      </trkpt>
      <trkpt lat="45.46759" lon="5.96744">
        <ele>598</ele>
        <time>2014-08-08T07:21:54Z</time>
      </trkpt>
      <trkpt lat="45.46774" lon="5.96728">
        <ele>601</ele>
        <time>2014-08-08T07:22:02Z</time>
      </trkpt>
      <trkpt lat="45.46784" lon="5.96705">
        <ele>603</ele>
        <time>2014-08-08T07:22:15Z</time>
      </trkpt>
      <trkpt lat="45.46793" lon="5.96681">
        <ele>604</ele>
        <time>2014-08-08T07:22:25Z</time>
      </trkpt>
      <trkpt lat="45.46801" lon="5.96656">
        <ele>605</ele>
        <time>2014-08-08T07:22:33Z</time>
      </trkpt>
      <trkpt lat="45.46804" lon="5.96629">
        <ele>605</ele>
        <time>2014-08-08T07:22:40Z</time>
      </trkpt>
      <trkpt lat="45.46816" lon="5.96605">
        <ele>604</ele>
        <time>2014-08-08T07:22:47Z</time>
      </trkpt>
      <trkpt lat="45.46831" lon="5.96584">
        <ele>601</ele>
        <time>2014-08-08T07:22:51Z</time>
      </trkpt>
      <trkpt lat="45.46842" lon="5.96563">
        <ele>600</ele>
        <time>2014-08-08T07:22:54Z</time>
      </trkpt>
      <trkpt lat="45.46856" lon="5.96542">
        <ele>599</ele>
        <time>2014-08-08T07:22:57Z</time>
      </trkpt>
      <trkpt lat="45.46869" lon="5.96519">
        <ele>599</ele>
        <time>2014-08-08T07:23:00Z</time>
      </trkpt>
      <trkpt lat="45.46883" lon="5.96497">
        <ele>601</ele>
        <time>2014-08-08T07:23:04Z</time>
      </trkpt>
      <trkpt lat="45.46897" lon="5.96475">
        <ele>601</ele>
        <time>2014-08-08T07:23:09Z</time>
      </trkpt>
      <trkpt lat="45.46907" lon="5.96451">
        <ele>602</ele>
        <time>2014-08-08T07:23:18Z</time>
      </trkpt>
      <trkpt lat="45.46915" lon="5.96427">
        <ele>603</ele>
        <time>2014-08-08T07:23:26Z</time>
      </trkpt>
      <trkpt lat="45.46924" lon="5.96404">
        <ele>605</ele>
        <time>2014-08-08T07:23:38Z</time>
      </trkpt>
      <trkpt lat="45.46928" lon="5.96378">
        <ele>608</ele>
        <time>2014-08-08T07:23:48Z</time>
      </trkpt>
      <trkpt lat="45.46932" lon="5.96351">
        <ele>611</ele>
        <time>2014-08-08T07:23:58Z</time>
      </trkpt>
      <trkpt lat="45.46937" lon="5.96326">
        <ele>617</ele>
        <time>2014-08-08T07:24:12Z</time>
      </trkpt>
      <trkpt lat="45.46945" lon="5.96302">
        <ele>618</ele>
        <time>2014-08-08T07:24:25Z</time>
      </trkpt>
      <trkpt lat="45.46961" lon="5.96286">
        <ele>618</ele>
        <time>2014-08-08T07:24:36Z</time>
      </trkpt>
      <trkpt lat="45.46978" lon="5.9627">
        <ele>618</ele>
        <time>2014-08-08T07:24:54Z</time>
      </trkpt>
      <trkpt lat="45.46997" lon="5.96265">
        <ele>616</ele>
        <time>2014-08-08T07:25:01Z</time>
      </trkpt>
      <trkpt lat="45.47019" lon="5.96255">
        <ele>610</ele>
        <time>2014-08-08T07:25:06Z</time>
      </trkpt>
      <trkpt lat="45.47038" lon="5.9625">
        <ele>610</ele>
        <time>2014-08-08T07:25:09Z</time>
      </trkpt>
      <trkpt lat="45.47061" lon="5.96245">
        <ele>606</ele>
        <time>2014-08-08T07:25:12Z</time>
      </trkpt>
      <trkpt lat="45.47081" lon="5.9624">
        <ele>603</ele>
        <time>2014-08-08T07:25:15Z</time>
      </trkpt>
      <trkpt lat="45.47105" lon="5.96237">
        <ele>602</ele>
        <time>2014-08-08T07:25:19Z</time>
      </trkpt>
      <trkpt lat="45.47124" lon="5.96232">
        <ele>603</ele>
        <time>2014-08-08T07:25:22Z</time>
      </trkpt>
      <trkpt lat="45.47145" lon="5.96225">
        <ele>603</ele>
        <time>2014-08-08T07:25:26Z</time>
      </trkpt>
      <trkpt lat="45.47164" lon="5.96222">
        <ele>603</ele>
        <time>2014-08-08T07:25:30Z</time>
      </trkpt>
      <trkpt lat="45.47186" lon="5.96231">
        <ele>600</ele>
        <time>2014-08-08T07:25:35Z</time>
      </trkpt>
      <trkpt lat="45.47206" lon="5.96236">
        <ele>598</ele>
        <time>2014-08-08T07:25:38Z</time>
      </trkpt>
      <trkpt lat="45.47225" lon="5.96235">
        <ele>597</ele>
        <time>2014-08-08T07:25:41Z</time>
      </trkpt>
      <trkpt lat="45.4725" lon="5.96236">
        <ele>593</ele>
        <time>2014-08-08T07:25:44Z</time>
      </trkpt>
      <trkpt lat="45.47276" lon="5.96234">
        <ele>589</ele>
        <time>2014-08-08T07:25:47Z</time>
      </trkpt>
      <trkpt lat="45.47296" lon="5.96233">
        <ele>587</ele>
        <time>2014-08-08T07:25:49Z</time>
      </trkpt>
      <trkpt lat="45.47315" lon="5.96229">
        <ele>586</ele>
        <time>2014-08-08T07:25:51Z</time>
      </trkpt>
      <trkpt lat="45.47334" lon="5.96223">
        <ele>579</ele>
        <time>2014-08-08T07:25:53Z</time>
      </trkpt>
      <trkpt lat="45.47352" lon="5.96214">
        <ele>579</ele>
        <time>2014-08-08T07:25:55Z</time>
      </trkpt>
      <trkpt lat="45.47371" lon="5.96201">
        <ele>578</ele>
        <time>2014-08-08T07:25:58Z</time>
      </trkpt>
      <trkpt lat="45.47385" lon="5.96186">
        <ele>577</ele>
        <time>2014-08-08T07:26:01Z</time>
      </trkpt>
      <trkpt lat="45.47402" lon="5.96163">
        <ele>580</ele>
        <time>2014-08-08T07:26:05Z</time>
      </trkpt>
      <trkpt lat="45.47416" lon="5.96143">
        <ele>582</ele>
        <time>2014-08-08T07:26:09Z</time>
      </trkpt>
      <trkpt lat="45.47433" lon="5.96125">
        <ele>575</ele>
        <time>2014-08-08T07:26:14Z</time>
      </trkpt>
      <trkpt lat="45.4745" lon="5.96114">
        <ele>575</ele>
        <time>2014-08-08T07:26:18Z</time>
      </trkpt>
      <trkpt lat="45.4747" lon="5.96099">
        <ele>574</ele>
        <time>2014-08-08T07:26:22Z</time>
      </trkpt>
      <trkpt lat="45.47495" lon="5.96085">
        <ele>571</ele>
        <time>2014-08-08T07:26:27Z</time>
      </trkpt>
      <trkpt lat="45.47517" lon="5.96071">
        <ele>569</ele>
        <time>2014-08-08T07:26:33Z</time>
      </trkpt>
      <trkpt lat="45.47533" lon="5.96053">
        <ele>569</ele>
        <time>2014-08-08T07:26:37Z</time>
      </trkpt>
      <trkpt lat="45.47551" lon="5.96043">
        <ele>567</ele>
        <time>2014-08-08T07:26:42Z</time>
      </trkpt>
      <trkpt lat="45.47574" lon="5.96042">
        <ele>566</ele>
        <time>2014-08-08T07:26:48Z</time>
      </trkpt>
      <trkpt lat="45.47597" lon="5.96053">
        <ele>559</ele>
        <time>2014-08-08T07:26:51Z</time>
      </trkpt>
      <trkpt lat="45.47618" lon="5.96065">
        <ele>558</ele>
        <time>2014-08-08T07:26:55Z</time>
      </trkpt>
      <trkpt lat="45.4764" lon="5.96075">
        <ele>558</ele>
        <time>2014-08-08T07:26:59Z</time>
      </trkpt>
      <trkpt lat="45.47658" lon="5.96081">
        <ele>556</ele>
        <time>2014-08-08T07:27:05Z</time>
      </trkpt>
      <trkpt lat="45.47678" lon="5.96081">
        <ele>556</ele>
        <time>2014-08-08T07:27:12Z</time>
      </trkpt>
      <trkpt lat="45.47698" lon="5.96077">
        <ele>556</ele>
        <time>2014-08-08T07:27:19Z</time>
      </trkpt>
      <trkpt lat="45.47723" lon="5.96072">
        <ele>556</ele>
        <time>2014-08-08T07:27:27Z</time>
      </trkpt>
      <trkpt lat="45.4775" lon="5.96067">
        <ele>555</ele>
        <time>2014-08-08T07:27:38Z</time>
      </trkpt>
      <trkpt lat="45.47768" lon="5.96048">
        <ele>556</ele>
        <time>2014-08-08T07:27:55Z</time>
      </trkpt>
      <trkpt lat="45.47775" lon="5.96009">
        <ele>558</ele>
        <time>2014-08-08T07:28:10Z</time>
      </trkpt>
      <trkpt lat="45.47781" lon="5.95982">
        <ele>562</ele>
        <time>2014-08-08T07:28:20Z</time>
      </trkpt>
      <trkpt lat="45.47799" lon="5.95973">
        <ele>563</ele>
        <time>2014-08-08T07:28:23Z</time>
      </trkpt>
      <trkpt lat="45.47819" lon="5.95971">
        <ele>562</ele>
        <time>2014-08-08T07:28:26Z</time>
      </trkpt>
      <trkpt lat="45.47841" lon="5.9597">
        <ele>561</ele>
        <time>2014-08-08T07:28:30Z</time>
      </trkpt>
      <trkpt lat="45.4786" lon="5.95967">
        <ele>561</ele>
        <time>2014-08-08T07:28:35Z</time>
      </trkpt>
      <trkpt lat="45.47878" lon="5.9597">
        <ele>561</ele>
        <time>2014-08-08T07:28:40Z</time>
      </trkpt>
      <trkpt lat="45.47901" lon="5.95977">
        <ele>560</ele>
        <time>2014-08-08T07:28:47Z</time>
      </trkpt>
      <trkpt lat="45.47918" lon="5.95967">
        <ele>560</ele>
        <time>2014-08-08T07:28:55Z</time>
      </trkpt>
      <trkpt lat="45.47928" lon="5.95943">
        <ele>561</ele>
        <time>2014-08-08T07:29:09Z</time>
      </trkpt>
      <trkpt lat="45.47939" lon="5.95916">
        <ele>566</ele>
        <time>2014-08-08T07:29:28Z</time>
      </trkpt>
      <trkpt lat="45.47961" lon="5.95886">
        <ele>568</ele>
        <time>2014-08-08T07:29:54Z</time>
      </trkpt>
      <trkpt lat="45.47978" lon="5.95868">
        <ele>568</ele>
        <time>2014-08-08T07:30:00Z</time>
      </trkpt>
      <trkpt lat="45.47995" lon="5.9584">
        <ele>570</ele>
        <time>2014-08-08T07:30:08Z</time>
      </trkpt>
      <trkpt lat="45.48009" lon="5.95821">
        <ele>570</ele>
        <time>2014-08-08T07:30:16Z</time>
      </trkpt>
      <trkpt lat="45.48035" lon="5.95809">
        <ele>568</ele>
        <time>2014-08-08T07:30:24Z</time>
      </trkpt>
      <trkpt lat="45.48044" lon="5.95783">
        <ele>569</ele>
        <time>2014-08-08T07:30:30Z</time>
      </trkpt>
      <trkpt lat="45.48052" lon="5.95759">
        <ele>569</ele>
        <time>2014-08-08T07:30:35Z</time>
      </trkpt>
      <trkpt lat="45.48057" lon="5.95726">
        <ele>573</ele>
        <time>2014-08-08T07:30:43Z</time>
      </trkpt>
      <trkpt lat="45.48072" lon="5.957">
        <ele>574</ele>
        <time>2014-08-08T07:31:02Z</time>
      </trkpt>
      <trkpt lat="45.48092" lon="5.95685">
        <ele>570</ele>
        <time>2014-08-08T07:31:10Z</time>
      </trkpt>
      <trkpt lat="45.48109" lon="5.95673">
        <ele>569</ele>
        <time>2014-08-08T07:31:20Z</time>
      </trkpt>
      <trkpt lat="45.48133" lon="5.95666">
        <ele>574</ele>
        <time>2014-08-08T07:31:33Z</time>
      </trkpt>
      <trkpt lat="45.48151" lon="5.9566">
        <ele>572</ele>
        <time>2014-08-08T07:31:39Z</time>
      </trkpt>
      <trkpt lat="45.48168" lon="5.95645">
        <ele>568</ele>
        <time>2014-08-08T07:31:46Z</time>
      </trkpt>
      <trkpt lat="45.48168" lon="5.95617">
        <ele>571</ele>
        <time>2014-08-08T07:31:59Z</time>
      </trkpt>
      <trkpt lat="45.48173" lon="5.9559">
        <ele>575</ele>
        <time>2014-08-08T07:32:11Z</time>
      </trkpt>
      <trkpt lat="45.48191" lon="5.95568">
        <ele>580</ele>
        <time>2014-08-08T07:32:55Z</time>
      </trkpt>
      <trkpt lat="45.48206" lon="5.95553">
        <ele>580</ele>
        <time>2014-08-08T07:33:40Z</time>
      </trkpt>
      <trkpt lat="45.48221" lon="5.9554">
        <ele>581</ele>
        <time>2014-08-08T07:34:02Z</time>
      </trkpt>
      <trkpt lat="45.48239" lon="5.95536">
        <ele>581</ele>
        <time>2014-08-08T07:34:24Z</time>
      </trkpt>
      <trkpt lat="45.48258" lon="5.95534">
        <ele>580</ele>
        <time>2014-08-08T07:34:38Z</time>
      </trkpt>
      <trkpt lat="45.48275" lon="5.95522">
        <ele>582</ele>
        <time>2014-08-08T07:34:58Z</time>
      </trkpt>
      <trkpt lat="45.48284" lon="5.955">
        <ele>583</ele>
        <time>2014-08-08T07:35:29Z</time>
      </trkpt>
      <trkpt lat="45.48303" lon="5.95491">
        <ele>595</ele>
        <time>2014-08-08T07:35:37Z</time>
      </trkpt>
      <trkpt lat="45.48315" lon="5.95467">
        <ele>597</ele>
        <time>2014-08-08T07:35:46Z</time>
      </trkpt>
      <trkpt lat="45.48311" lon="5.95442">
        <ele>601</ele>
        <time>2014-08-08T07:36:56Z</time>
      </trkpt>
      <trkpt lat="45.48294" lon="5.95429">
        <ele>601</ele>
        <time>2014-08-08T07:37:16Z</time>
      </trkpt>
      <trkpt lat="45.48282" lon="5.95407">
        <ele>612</ele>
        <time>2014-08-08T07:37:30Z</time>
      </trkpt>
      <trkpt lat="45.48264" lon="5.95403">
        <ele>611</ele>
        <time>2014-08-08T07:37:48Z</time>
      </trkpt>
      <trkpt lat="45.48246" lon="5.95387">
        <ele>614</ele>
        <time>2014-08-08T07:38:02Z</time>
      </trkpt>
      <trkpt lat="45.4823" lon="5.9537">
        <ele>616</ele>
        <time>2014-08-08T07:38:16Z</time>
      </trkpt>
      <trkpt lat="45.48212" lon="5.95367">
        <ele>616</ele>
        <time>2014-08-08T07:38:26Z</time>
      </trkpt>
      <trkpt lat="45.48193" lon="5.95364">
        <ele>617</ele>
        <time>2014-08-08T07:38:39Z</time>
      </trkpt>
      <trkpt lat="45.48176" lon="5.95372">
        <ele>616</ele>
        <time>2014-08-08T07:38:49Z</time>
      </trkpt>
      <trkpt lat="45.48158" lon="5.95378">
        <ele>618</ele>
        <time>2014-08-08T07:38:58Z</time>
      </trkpt>
      <trkpt lat="45.4814" lon="5.95386">
        <ele>617</ele>
        <time>2014-08-08T07:39:25Z</time>
      </trkpt>
      <trkpt lat="45.4812" lon="5.95388">
        <ele>618</ele>
        <time>2014-08-08T07:39:30Z</time>
      </trkpt>
      <trkpt lat="45.48102" lon="5.95397">
        <ele>618</ele>
        <time>2014-08-08T07:39:37Z</time>
      </trkpt>
      <trkpt lat="45.48085" lon="5.95407">
        <ele>616</ele>
        <time>2014-08-08T07:39:44Z</time>
      </trkpt>
      <trkpt lat="45.48066" lon="5.95414">
        <ele>621</ele>
        <time>2014-08-08T07:39:53Z</time>
      </trkpt>
      <trkpt lat="45.48051" lon="5.95395">
        <ele>625</ele>
        <time>2014-08-08T07:40:31Z</time>
      </trkpt>
      <trkpt lat="45.48038" lon="5.95377">
        <ele>628</ele>
        <time>2014-08-08T07:40:54Z</time>
      </trkpt>
      <trkpt lat="45.48055" lon="5.95365">
        <ele>628</ele>
        <time>2014-08-08T07:41:09Z</time>
      </trkpt>
      <trkpt lat="45.48072" lon="5.95349">
        <ele>629</ele>
        <time>2014-08-08T07:41:19Z</time>
      </trkpt>
      <trkpt lat="45.48086" lon="5.9533">
        <ele>632</ele>
        <time>2014-08-08T07:41:28Z</time>
      </trkpt>
      <trkpt lat="45.48096" lon="5.95309">
        <ele>634</ele>
        <time>2014-08-08T07:41:37Z</time>
      </trkpt>
      <trkpt lat="45.48112" lon="5.95297">
        <ele>635</ele>
        <time>2014-08-08T07:41:47Z</time>
      </trkpt>
      <trkpt lat="45.48131" lon="5.95284">
        <ele>635</ele>
        <time>2014-08-08T07:42:07Z</time>
      </trkpt>
      <trkpt lat="45.4815" lon="5.95279">
        <ele>635</ele>
        <time>2014-08-08T07:42:21Z</time>
      </trkpt>
      <trkpt lat="45.48164" lon="5.95261">
        <ele>637</ele>
        <time>2014-08-08T07:42:34Z</time>
      </trkpt>
      <trkpt lat="45.48176" lon="5.95242">
        <ele>637</ele>
        <time>2014-08-08T07:42:51Z</time>
      </trkpt>
      <trkpt lat="45.48192" lon="5.9523">
        <ele>636</ele>
        <time>2014-08-08T07:43:05Z</time>
      </trkpt>
      <trkpt lat="45.48198" lon="5.95205">
        <ele>635</ele>
        <time>2014-08-08T07:43:11Z</time>
      </trkpt>
      <trkpt lat="45.48205" lon="5.95181">
        <ele>636</ele>
        <time>2014-08-08T07:43:17Z</time>
      </trkpt>
      <trkpt lat="45.48213" lon="5.95158">
        <ele>636</ele>
        <time>2014-08-08T07:43:25Z</time>
      </trkpt>
      <trkpt lat="45.48217" lon="5.95131">
        <ele>636</ele>
        <time>2014-08-08T07:43:34Z</time>
      </trkpt>
      <trkpt lat="45.48229" lon="5.95111">
        <ele>635</ele>
        <time>2014-08-08T07:43:42Z</time>
      </trkpt>
      <trkpt lat="45.48244" lon="5.95094">
        <ele>633</ele>
        <time>2014-08-08T07:43:50Z</time>
      </trkpt>
      <trkpt lat="45.48251" lon="5.95065">
        <ele>629</ele>
        <time>2014-08-08T07:43:57Z</time>
      </trkpt>
      <trkpt lat="45.48261" lon="5.95041">
        <ele>629</ele>
        <time>2014-08-08T07:44:05Z</time>
      </trkpt>
      <trkpt lat="45.48265" lon="5.95013">
        <ele>631</ele>
        <time>2014-08-08T07:44:13Z</time>
      </trkpt>
      <trkpt lat="45.48272" lon="5.94985">
        <ele>633</ele>
        <time>2014-08-08T07:44:19Z</time>
      </trkpt>
      <trkpt lat="45.48277" lon="5.94959">
        <ele>633</ele>
        <time>2014-08-08T07:44:26Z</time>
      </trkpt>
      <trkpt lat="45.48278" lon="5.94932">
        <ele>634</ele>
        <time>2014-08-08T07:44:39Z</time>
      </trkpt>
      <trkpt lat="45.4826" lon="5.94926">
        <ele>636</ele>
        <time>2014-08-08T07:44:55Z</time>
      </trkpt>
      <trkpt lat="45.48242" lon="5.94917">
        <ele>641</ele>
        <time>2014-08-08T07:45:11Z</time>
      </trkpt>
      <trkpt lat="45.48222" lon="5.94918">
        <ele>643</ele>
        <time>2014-08-08T07:45:33Z</time>
      </trkpt>
      <trkpt lat="45.48202" lon="5.94915">
        <ele>647</ele>
        <time>2014-08-08T07:45:41Z</time>
      </trkpt>
      <trkpt lat="45.4819" lon="5.94893">
        <ele>648</ele>
        <time>2014-08-08T07:45:54Z</time>
      </trkpt>
      <trkpt lat="45.4818" lon="5.94869">
        <ele>649</ele>
        <time>2014-08-08T07:46:03Z</time>
      </trkpt>
      <trkpt lat="45.48165" lon="5.94855">
        <ele>655</ele>
        <time>2014-08-08T07:46:25Z</time>
      </trkpt>
      <trkpt lat="45.48149" lon="5.94843">
        <ele>656</ele>
        <time>2014-08-08T07:46:51Z</time>
      </trkpt>
      <trkpt lat="45.48135" lon="5.94824">
        <ele>657</ele>
        <time>2014-08-08T07:47:08Z</time>
      </trkpt>
      <trkpt lat="45.48117" lon="5.9482">
        <ele>658</ele>
        <time>2014-08-08T07:47:25Z</time>
      </trkpt>
      <trkpt lat="45.481" lon="5.94807">
        <ele>659</ele>
        <time>2014-08-08T07:47:37Z</time>
      </trkpt>
      <trkpt lat="45.4809" lon="5.94784">
        <ele>659</ele>
        <time>2014-08-08T07:47:50Z</time>
      </trkpt>
      <trkpt lat="45.48071" lon="5.94778">
        <ele>665</ele>
        <time>2014-08-08T07:48:05Z</time>
      </trkpt>
      <trkpt lat="45.48053" lon="5.94789">
        <ele>666</ele>
        <time>2014-08-08T07:48:36Z</time>
      </trkpt>
      <trkpt lat="45.48045" lon="5.94812">
        <ele>666</ele>
        <time>2014-08-08T07:48:52Z</time>
      </trkpt>
      <trkpt lat="45.48036" lon="5.94834">
        <ele>665</ele>
        <time>2014-08-08T07:50:09Z</time>
      </trkpt>
      <trkpt lat="45.48054" lon="5.94843">
        <ele>664</ele>
        <time>2014-08-08T07:51:23Z</time>
      </trkpt>
      <trkpt lat="45.4805" lon="5.94818">
        <ele>666</ele>
        <time>2014-08-08T07:53:30Z</time>
      </trkpt>
      <trkpt lat="45.48057" lon="5.94788">
        <ele>666</ele>
        <time>2014-08-08T07:53:45Z</time>
      </trkpt>
      <trkpt lat="45.48039" lon="5.94785">
        <ele>667</ele>
        <time>2014-08-08T07:55:38Z</time>
      </trkpt>
      <trkpt lat="45.48022" lon="5.94803">
        <ele>668</ele>
        <time>2014-08-08T07:55:47Z</time>
      </trkpt>
      <trkpt lat="45.48009" lon="5.94824">
        <ele>669</ele>
        <time>2014-08-08T07:55:56Z</time>
      </trkpt>
      <trkpt lat="45.47995" lon="5.94842">
        <ele>673</ele>
        <time>2014-08-08T07:56:11Z</time>
      </trkpt>
      <trkpt lat="45.47989" lon="5.94866">
        <ele>676</ele>
        <time>2014-08-08T07:56:19Z</time>
      </trkpt>
      <trkpt lat="45.47983" lon="5.94892">
        <ele>676</ele>
        <time>2014-08-08T07:56:32Z</time>
      </trkpt>
      <trkpt lat="45.4798" lon="5.94918">
        <ele>676</ele>
        <time>2014-08-08T07:56:44Z</time>
      </trkpt>
      <trkpt lat="45.47969" lon="5.94938">
        <ele>679</ele>
        <time>2014-08-08T07:57:05Z</time>
      </trkpt>
      <trkpt lat="45.47951" lon="5.9494">
        <ele>682</ele>
        <time>2014-08-08T07:57:29Z</time>
      </trkpt>
      <trkpt lat="45.47947" lon="5.94967">
        <ele>683</ele>
        <time>2014-08-08T07:58:02Z</time>
      </trkpt>
      <trkpt lat="45.47948" lon="5.94994">
        <ele>684</ele>
        <time>2014-08-08T07:58:20Z</time>
      </trkpt>
      <trkpt lat="45.47947" lon="5.9502">
        <ele>684</ele>
        <time>2014-08-08T07:58:35Z</time>
      </trkpt>
      <trkpt lat="45.47936" lon="5.95043">
        <ele>685</ele>
        <time>2014-08-08T07:58:49Z</time>
      </trkpt>
      <trkpt lat="45.47917" lon="5.9505">
        <ele>686</ele>
        <time>2014-08-08T07:59:01Z</time>
      </trkpt>
      <trkpt lat="45.47902" lon="5.95035">
        <ele>693</ele>
        <time>2014-08-08T07:59:13Z</time>
      </trkpt>
      <trkpt lat="45.47891" lon="5.95011">
        <ele>694</ele>
        <time>2014-08-08T07:59:27Z</time>
      </trkpt>
      <trkpt lat="45.4789" lon="5.94984">
        <ele>697</ele>
        <time>2014-08-08T07:59:38Z</time>
      </trkpt>
      <trkpt lat="45.47891" lon="5.94957">
        <ele>697</ele>
        <time>2014-08-08T07:59:54Z</time>
      </trkpt>
      <trkpt lat="45.47893" lon="5.9493">
        <ele>696</ele>
        <time>2014-08-08T08:00:04Z</time>
      </trkpt>
      <trkpt lat="45.47882" lon="5.94909">
        <ele>698</ele>
        <time>2014-08-08T08:00:18Z</time>
      </trkpt>
      <trkpt lat="45.47869" lon="5.94888">
        <ele>700</ele>
        <time>2014-08-08T08:00:39Z</time>
      </trkpt>
      <trkpt lat="45.47852" lon="5.94876">
        <ele>702</ele>
        <time>2014-08-08T08:00:54Z</time>
      </trkpt>
      <trkpt lat="45.4784" lon="5.94856">
        <ele>705</ele>
        <time>2014-08-08T08:01:07Z</time>
      </trkpt>
      <trkpt lat="45.47822" lon="5.94846">
        <ele>713</ele>
        <time>2014-08-08T08:01:26Z</time>
      </trkpt>
      <trkpt lat="45.47821" lon="5.94819">
        <ele>718</ele>
        <time>2014-08-08T08:01:43Z</time>
      </trkpt>
      <trkpt lat="45.47821" lon="5.94792">
        <ele>720</ele>
        <time>2014-08-08T08:01:54Z</time>
      </trkpt>
      <trkpt lat="45.47816" lon="5.94767">
        <ele>721</ele>
        <time>2014-08-08T08:02:03Z</time>
      </trkpt>
      <trkpt lat="45.47813" lon="5.9474">
        <ele>724</ele>
        <time>2014-08-08T08:02:16Z</time>
      </trkpt>
      <trkpt lat="45.47811" lon="5.94714">
        <ele>726</ele>
        <time>2014-08-08T08:02:30Z</time>
      </trkpt>
      <trkpt lat="45.47807" lon="5.94687">
        <ele>727</ele>
        <time>2014-08-08T08:02:44Z</time>
      </trkpt>
      <trkpt lat="45.478" lon="5.94663">
        <ele>729</ele>
        <time>2014-08-08T08:02:58Z</time>
      </trkpt>
      <trkpt lat="45.4779" lon="5.9464">
        <ele>731</ele>
        <time>2014-08-08T08:03:12Z</time>
      </trkpt>
      <trkpt lat="45.4778" lon="5.94617">
        <ele>733</ele>
        <time>2014-08-08T08:03:25Z</time>
      </trkpt>
      <trkpt lat="45.47771" lon="5.94593">
        <ele>735</ele>
        <time>2014-08-08T08:03:38Z</time>
      </trkpt>
      <trkpt lat="45.47763" lon="5.9457">
        <ele>739</ele>
        <time>2014-08-08T08:03:53Z</time>
      </trkpt>
      <trkpt lat="45.47754" lon="5.94547">
        <ele>740</ele>
        <time>2014-08-08T08:04:04Z</time>
      </trkpt>
      <trkpt lat="45.47771" lon="5.94535">
        <ele>739</ele>
        <time>2014-08-08T08:04:28Z</time>
      </trkpt>
      <trkpt lat="45.47789" lon="5.9454">
        <ele>737</ele>
        <time>2014-08-08T08:04:47Z</time>
      </trkpt>
      <trkpt lat="45.4777" lon="5.94549">
        <ele>739</ele>
        <time>2014-08-08T08:06:02Z</time>
      </trkpt>
      <trkpt lat="45.47754" lon="5.94532">
        <ele>741</ele>
        <time>2014-08-08T08:06:08Z</time>
      </trkpt>
      <trkpt lat="45.4776" lon="5.94508">
        <ele>744</ele>
        <time>2014-08-08T08:06:17Z</time>
      </trkpt>
      <trkpt lat="45.47773" lon="5.94489">
        <ele>747</ele>
        <time>2014-08-08T08:06:25Z</time>
      </trkpt>
      <trkpt lat="45.47788" lon="5.94473">
        <ele>746</ele>
        <time>2014-08-08T08:06:35Z</time>
      </trkpt>
      <trkpt lat="45.47802" lon="5.94454">
        <ele>746</ele>
        <time>2014-08-08T08:06:47Z</time>
      </trkpt>
      <trkpt lat="45.4781" lon="5.9443">
        <ele>747</ele>
        <time>2014-08-08T08:06:56Z</time>
      </trkpt>
      <trkpt lat="45.47811" lon="5.94402">
        <ele>754</ele>
        <time>2014-08-08T08:07:06Z</time>
      </trkpt>
      <trkpt lat="45.47812" lon="5.94376">
        <ele>756</ele>
        <time>2014-08-08T08:07:18Z</time>
      </trkpt>
      <trkpt lat="45.4782" lon="5.9435">
        <ele>758</ele>
        <time>2014-08-08T08:07:29Z</time>
      </trkpt>
      <trkpt lat="45.47834" lon="5.94332">
        <ele>759</ele>
        <time>2014-08-08T08:07:41Z</time>
      </trkpt>
      <trkpt lat="45.47847" lon="5.94311">
        <ele>761</ele>
        <time>2014-08-08T08:07:57Z</time>
      </trkpt>
      <trkpt lat="45.47845" lon="5.94283">
        <ele>765</ele>
        <time>2014-08-08T08:08:12Z</time>
      </trkpt>
      <trkpt lat="45.47833" lon="5.94262">
        <ele>773</ele>
        <time>2014-08-08T08:08:33Z</time>
      </trkpt>
      <trkpt lat="45.47817" lon="5.94249">
        <ele>780</ele>
        <time>2014-08-08T08:08:52Z</time>
      </trkpt>
      <trkpt lat="45.47798" lon="5.94259">
        <ele>773</ele>
        <time>2014-08-08T08:09:07Z</time>
      </trkpt>
      <trkpt lat="45.47779" lon="5.94254">
        <ele>775</ele>
        <time>2014-08-08T08:09:19Z</time>
      </trkpt>
      <trkpt lat="45.47761" lon="5.94258">
        <ele>777</ele>
        <time>2014-08-08T08:09:30Z</time>
      </trkpt>
      <trkpt lat="45.47743" lon="5.94262">
        <ele>782</ele>
        <time>2014-08-08T08:09:46Z</time>
      </trkpt>
      <trkpt lat="45.47724" lon="5.94261">
        <ele>782</ele>
        <time>2014-08-08T08:10:00Z</time>
      </trkpt>
      <trkpt lat="45.47708" lon="5.94246">
        <ele>791</ele>
        <time>2014-08-08T08:10:14Z</time>
      </trkpt>
      <trkpt lat="45.47696" lon="5.94227">
        <ele>793</ele>
        <time>2014-08-08T08:10:29Z</time>
      </trkpt>
      <trkpt lat="45.47677" lon="5.94227">
        <ele>793</ele>
        <time>2014-08-08T08:10:46Z</time>
      </trkpt>
      <trkpt lat="45.47659" lon="5.94226">
        <ele>801</ele>
        <time>2014-08-08T08:10:56Z</time>
      </trkpt>
      <trkpt lat="45.47641" lon="5.94227">
        <ele>804</ele>
        <time>2014-08-08T08:11:12Z</time>
      </trkpt>
      <trkpt lat="45.47626" lon="5.94209">
        <ele>807</ele>
        <time>2014-08-08T08:11:26Z</time>
      </trkpt>
      <trkpt lat="45.47631" lon="5.94185">
        <ele>808</ele>
        <time>2014-08-08T08:11:40Z</time>
      </trkpt>
      <trkpt lat="45.47646" lon="5.94169">
        <ele>806</ele>
        <time>2014-08-08T08:11:51Z</time>
      </trkpt>
      <trkpt lat="45.4766" lon="5.94152">
        <ele>812</ele>
        <time>2014-08-08T08:12:04Z</time>
      </trkpt>
      <trkpt lat="45.47675" lon="5.94135">
        <ele>810</ele>
        <time>2014-08-08T08:12:17Z</time>
      </trkpt>
      <trkpt lat="45.47692" lon="5.94123">
        <ele>811</ele>
        <time>2014-08-08T08:12:29Z</time>
      </trkpt>
      <trkpt lat="45.4771" lon="5.94118">
        <ele>811</ele>
        <time>2014-08-08T08:12:47Z</time>
      </trkpt>
      <trkpt lat="45.47728" lon="5.94123">
        <ele>811</ele>
        <time>2014-08-08T08:13:06Z</time>
      </trkpt>
      <trkpt lat="45.47744" lon="5.9411">
        <ele>813</ele>
        <time>2014-08-08T08:13:17Z</time>
      </trkpt>
      <trkpt lat="45.47749" lon="5.94084">
        <ele>818</ele>
        <time>2014-08-08T08:13:31Z</time>
      </trkpt>
      <trkpt lat="45.47747" lon="5.94057">
        <ele>824</ele>
        <time>2014-08-08T08:13:43Z</time>
      </trkpt>
      <trkpt lat="45.47748" lon="5.94031">
        <ele>827</ele>
        <time>2014-08-08T08:13:58Z</time>
      </trkpt>
      <trkpt lat="45.47745" lon="5.94003">
        <ele>830</ele>
        <time>2014-08-08T08:14:10Z</time>
      </trkpt>
      <trkpt lat="45.47742" lon="5.93978">
        <ele>836</ele>
        <time>2014-08-08T08:14:23Z</time>
      </trkpt>
      <trkpt lat="45.47743" lon="5.93951">
        <ele>839</ele>
        <time>2014-08-08T08:14:34Z</time>
      </trkpt>
      <trkpt lat="45.47743" lon="5.93926">
        <ele>841</ele>
        <time>2014-08-08T08:14:45Z</time>
      </trkpt>
      <trkpt lat="45.47748" lon="5.93899">
        <ele>845</ele>
        <time>2014-08-08T08:14:57Z</time>
      </trkpt>
      <trkpt lat="45.47756" lon="5.93875">
        <ele>842</ele>
        <time>2014-08-08T08:15:10Z</time>
      </trkpt>
      <trkpt lat="45.47764" lon="5.9385">
        <ele>844</ele>
        <time>2014-08-08T08:15:22Z</time>
      </trkpt>
      <trkpt lat="45.47759" lon="5.93826">
        <ele>850</ele>
        <time>2014-08-08T08:15:46Z</time>
      </trkpt>
      <trkpt lat="45.4774" lon="5.9383">
        <ele>852</ele>
        <time>2014-08-08T08:16:40Z</time>
      </trkpt>
      <trkpt lat="45.47721" lon="5.93822">
        <ele>856</ele>
        <time>2014-08-08T08:18:20Z</time>
      </trkpt>
      <trkpt lat="45.47704" lon="5.93829">
        <ele>858</ele>
        <time>2014-08-08T08:18:30Z</time>
      </trkpt>
      <trkpt lat="45.47702" lon="5.93803">
        <ele>859</ele>
        <time>2014-08-08T08:18:45Z</time>
      </trkpt>
      <trkpt lat="45.47715" lon="5.93783">
        <ele>859</ele>
        <time>2014-08-08T08:18:56Z</time>
      </trkpt>
      <trkpt lat="45.47724" lon="5.9376">
        <ele>860</ele>
        <time>2014-08-08T08:19:08Z</time>
      </trkpt>
      <trkpt lat="45.47728" lon="5.93734">
        <ele>865</ele>
        <time>2014-08-08T08:19:23Z</time>
      </trkpt>
      <trkpt lat="45.47734" lon="5.93708">
        <ele>866</ele>
        <time>2014-08-08T08:19:36Z</time>
      </trkpt>
      <trkpt lat="45.47731" lon="5.93681">
        <ele>867</ele>
        <time>2014-08-08T08:19:52Z</time>
      </trkpt>
      <trkpt lat="45.47713" lon="5.93684">
        <ele>868</ele>
        <time>2014-08-08T08:20:06Z</time>
      </trkpt>
      <trkpt lat="45.47695" lon="5.93694">
        <ele>869</ele>
        <time>2014-08-08T08:20:14Z</time>
      </trkpt>
      <trkpt lat="45.4768" lon="5.93708">
        <ele>869</ele>
        <time>2014-08-08T08:20:24Z</time>
      </trkpt>
      <trkpt lat="45.47665" lon="5.93723">
        <ele>877</ele>
        <time>2014-08-08T08:20:37Z</time>
      </trkpt>
      <trkpt lat="45.4765" lon="5.93738">
        <ele>877</ele>
        <time>2014-08-08T08:20:50Z</time>
      </trkpt>
      <trkpt lat="45.47637" lon="5.93757">
        <ele>873</ele>
        <time>2014-08-08T08:21:02Z</time>
      </trkpt>
      <trkpt lat="45.47626" lon="5.93778">
        <ele>874</ele>
        <time>2014-08-08T08:21:12Z</time>
      </trkpt>
      <trkpt lat="45.47609" lon="5.93791">
        <ele>875</ele>
        <time>2014-08-08T08:21:20Z</time>
      </trkpt>
      <trkpt lat="45.47594" lon="5.93807">
        <ele>875</ele>
        <time>2014-08-08T08:21:30Z</time>
      </trkpt>
      <trkpt lat="45.47577" lon="5.93822">
        <ele>884</ele>
        <time>2014-08-08T08:21:39Z</time>
      </trkpt>
      <trkpt lat="45.47564" lon="5.93844">
        <ele>881</ele>
        <time>2014-08-08T08:21:48Z</time>
      </trkpt>
      <trkpt lat="45.47553" lon="5.93867">
        <ele>882</ele>
        <time>2014-08-08T08:21:56Z</time>
      </trkpt>
      <trkpt lat="45.4754" lon="5.93886">
        <ele>882</ele>
        <time>2014-08-08T08:22:03Z</time>
      </trkpt>
      <trkpt lat="45.47526" lon="5.93904">
        <ele>883</ele>
        <time>2014-08-08T08:22:11Z</time>
      </trkpt>
      <trkpt lat="45.4751" lon="5.93919">
        <ele>882</ele>
        <time>2014-08-08T08:22:20Z</time>
      </trkpt>
      <trkpt lat="45.47494" lon="5.93932">
        <ele>895</ele>
        <time>2014-08-08T08:22:28Z</time>
      </trkpt>
      <trkpt lat="45.47479" lon="5.9395">
        <ele>899</ele>
        <time>2014-08-08T08:22:37Z</time>
      </trkpt>
      <trkpt lat="45.47471" lon="5.93974">
        <ele>899</ele>
        <time>2014-08-08T08:22:45Z</time>
      </trkpt>
      <trkpt lat="45.47474" lon="5.94003">
        <ele>892</ele>
        <time>2014-08-08T08:22:54Z</time>
      </trkpt>
      <trkpt lat="45.47477" lon="5.94029">
        <ele>893</ele>
        <time>2014-08-08T08:23:03Z</time>
      </trkpt>
      <trkpt lat="45.4747" lon="5.94053">
        <ele>894</ele>
        <time>2014-08-08T08:23:12Z</time>
      </trkpt>
      <trkpt lat="45.47461" lon="5.94078">
        <ele>895</ele>
        <time>2014-08-08T08:23:20Z</time>
      </trkpt>
      <trkpt lat="45.47459" lon="5.94104">
        <ele>894</ele>
        <time>2014-08-08T08:23:28Z</time>
      </trkpt>
      <trkpt lat="45.47461" lon="5.94132">
        <ele>893</ele>
        <time>2014-08-08T08:23:37Z</time>
      </trkpt>
      <trkpt lat="45.47456" lon="5.9416">
        <ele>895</ele>
        <time>2014-08-08T08:23:45Z</time>
      </trkpt>
      <trkpt lat="45.4745" lon="5.94187">
        <ele>893</ele>
        <time>2014-08-08T08:23:54Z</time>
      </trkpt>
      <trkpt lat="45.47441" lon="5.94212">
        <ele>894</ele>
        <time>2014-08-08T08:24:01Z</time>
      </trkpt>
      <trkpt lat="45.47431" lon="5.94235">
        <ele>897</ele>
        <time>2014-08-08T08:24:07Z</time>
      </trkpt>
      <trkpt lat="45.4742" lon="5.94255">
        <ele>901</ele>
        <time>2014-08-08T08:24:13Z</time>
      </trkpt>
      <trkpt lat="45.47411" lon="5.94279">
        <ele>919</ele>
        <time>2014-08-08T08:24:23Z</time>
      </trkpt>
      <trkpt lat="45.47408" lon="5.94307">
        <ele>918</ele>
        <time>2014-08-08T08:24:33Z</time>
      </trkpt>
      <trkpt lat="45.47402" lon="5.94334">
        <ele>912</ele>
        <time>2014-08-08T08:24:47Z</time>
      </trkpt>
      <trkpt lat="45.47399" lon="5.9436">
        <ele>917</ele>
        <time>2014-08-08T08:25:02Z</time>
      </trkpt>
      <trkpt lat="45.47395" lon="5.94385">
        <ele>918</ele>
        <time>2014-08-08T08:25:11Z</time>
      </trkpt>
      <trkpt lat="45.47395" lon="5.94411">
        <ele>915</ele>
        <time>2014-08-08T08:25:25Z</time>
      </trkpt>
      <trkpt lat="45.4739" lon="5.94438">
        <ele>915</ele>
        <time>2014-08-08T08:25:40Z</time>
      </trkpt>
      <trkpt lat="45.47382" lon="5.94462">
        <ele>918</ele>
        <time>2014-08-08T08:25:52Z</time>
      </trkpt>
      <trkpt lat="45.47377" lon="5.94488">
        <ele>918</ele>
        <time>2014-08-08T08:26:08Z</time>
      </trkpt>
      <trkpt lat="45.47372" lon="5.94514">
        <ele>916</ele>
        <time>2014-08-08T08:26:22Z</time>
      </trkpt>
      <trkpt lat="45.47365" lon="5.94538">
        <ele>917</ele>
        <time>2014-08-08T08:26:35Z</time>
      </trkpt>
      <trkpt lat="45.47357" lon="5.94562">
        <ele>920</ele>
        <time>2014-08-08T08:26:45Z</time>
      </trkpt>
      <trkpt lat="45.47357" lon="5.94588">
        <ele>917</ele>
        <time>2014-08-08T08:27:01Z</time>
      </trkpt>
      <trkpt lat="45.47352" lon="5.94613">
        <ele>915</ele>
        <time>2014-08-08T08:27:14Z</time>
      </trkpt>
      <trkpt lat="45.4735" lon="5.9464">
        <ele>914</ele>
        <time>2014-08-08T08:27:29Z</time>
      </trkpt>
      <trkpt lat="45.4734" lon="5.94663">
        <ele>921</ele>
        <time>2014-08-08T08:27:43Z</time>
      </trkpt>
      <trkpt lat="45.47332" lon="5.94688">
        <ele>926</ele>
        <time>2014-08-08T08:27:57Z</time>
      </trkpt>
      <trkpt lat="45.47326" lon="5.94713">
        <ele>924</ele>
        <time>2014-08-08T08:28:11Z</time>
      </trkpt>
      <trkpt lat="45.4731" lon="5.94728">
        <ele>924</ele>
        <time>2014-08-08T08:29:02Z</time>
      </trkpt>
      <trkpt lat="45.4729" lon="5.94722">
        <ele>926</ele>
        <time>2014-08-08T08:29:29Z</time>
      </trkpt>
      <trkpt lat="45.47273" lon="5.94706">
        <ele>929</ele>
        <time>2014-08-08T08:29:44Z</time>
      </trkpt>
      <trkpt lat="45.47257" lon="5.94692">
        <ele>933</ele>
        <time>2014-08-08T08:30:01Z</time>
      </trkpt>
      <trkpt lat="45.4724" lon="5.94678">
        <ele>941</ele>
        <time>2014-08-08T08:30:13Z</time>
      </trkpt>
      <trkpt lat="45.47222" lon="5.94669">
        <ele>941</ele>
        <time>2014-08-08T08:30:20Z</time>
      </trkpt>
      <trkpt lat="45.47204" lon="5.94662">
        <ele>954</ele>
        <time>2014-08-08T08:30:31Z</time>
      </trkpt>
      <trkpt lat="45.47186" lon="5.94655">
        <ele>955</ele>
        <time>2014-08-08T08:30:43Z</time>
      </trkpt>
      <trkpt lat="45.47168" lon="5.94654">
        <ele>953</ele>
        <time>2014-08-08T08:31:09Z</time>
      </trkpt>
      <trkpt lat="45.4715" lon="5.94668">
        <ele>950</ele>
        <time>2014-08-08T08:31:22Z</time>
      </trkpt>
      <trkpt lat="45.47133" lon="5.94681">
        <ele>950</ele>
        <time>2014-08-08T08:31:43Z</time>
      </trkpt>
      <trkpt lat="45.47114" lon="5.94678">
        <ele>952</ele>
        <time>2014-08-08T08:31:56Z</time>
      </trkpt>
      <trkpt lat="45.47095" lon="5.94678">
        <ele>957</ele>
        <time>2014-08-08T08:32:06Z</time>
      </trkpt>
      <trkpt lat="45.47077" lon="5.9468">
        <ele>963</ele>
        <time>2014-08-08T08:32:17Z</time>
      </trkpt>
      <trkpt lat="45.47059" lon="5.94673">
        <ele>963</ele>
        <time>2014-08-08T08:32:40Z</time>
      </trkpt>
      <trkpt lat="45.47051" lon="5.9465">
        <ele>978</ele>
        <time>2014-08-08T08:33:11Z</time>
      </trkpt>
      <trkpt lat="45.47032" lon="5.94646">
        <ele>980</ele>
        <time>2014-08-08T08:33:30Z</time>
      </trkpt>
      <trkpt lat="45.47017" lon="5.9466">
        <ele>980</ele>
        <time>2014-08-08T08:33:43Z</time>
      </trkpt>
      <trkpt lat="45.47" lon="5.94668">
        <ele>978</ele>
        <time>2014-08-08T08:33:54Z</time>
      </trkpt>
      <trkpt lat="45.46983" lon="5.94682">
        <ele>976</ele>
        <time>2014-08-08T08:34:09Z</time>
      </trkpt>
      <trkpt lat="45.46978" lon="5.94657">
        <ele>990</ele>
        <time>2014-08-08T08:34:26Z</time>
      </trkpt>
      <trkpt lat="45.46992" lon="5.94639">
        <ele>992</ele>
        <time>2014-08-08T08:34:37Z</time>
      </trkpt>
      <trkpt lat="45.46998" lon="5.94614">
        <ele>996</ele>
        <time>2014-08-08T08:34:50Z</time>
      </trkpt>
      <trkpt lat="45.47016" lon="5.94609">
        <ele>987</ele>
        <time>2014-08-08T08:35:10Z</time>
      </trkpt>
      <trkpt lat="45.47034" lon="5.94598">
        <ele>986</ele>
        <time>2014-08-08T08:35:23Z</time>
      </trkpt>
      <trkpt lat="45.47043" lon="5.94575">
        <ele>1001</ele>
        <time>2014-08-08T08:35:31Z</time>
      </trkpt>
      <trkpt lat="45.47059" lon="5.94561">
        <ele>1000</ele>
        <time>2014-08-08T08:35:40Z</time>
      </trkpt>
      <trkpt lat="45.47071" lon="5.94541">
        <ele>1004</ele>
        <time>2014-08-08T08:35:59Z</time>
      </trkpt>
      <trkpt lat="45.47082" lon="5.9452">
        <ele>1008</ele>
        <time>2014-08-08T08:36:15Z</time>
      </trkpt>
      <trkpt lat="45.47101" lon="5.9452">
        <ele>999</ele>
        <time>2014-08-08T08:36:22Z</time>
      </trkpt>
      <trkpt lat="45.47116" lon="5.94504">
        <ele>998</ele>
        <time>2014-08-08T08:36:38Z</time>
      </trkpt>
      <trkpt lat="45.47132" lon="5.94493">
        <ele>1012</ele>
        <time>2014-08-08T08:36:46Z</time>
      </trkpt>
      <trkpt lat="45.4715" lon="5.94479">
        <ele>1011</ele>
        <time>2014-08-08T08:36:55Z</time>
      </trkpt>
      <trkpt lat="45.47166" lon="5.94465">
        <ele>1013</ele>
        <time>2014-08-08T08:37:13Z</time>
      </trkpt>
      <trkpt lat="45.47183" lon="5.94451">
        <ele>1002</ele>
        <time>2014-08-08T08:37:21Z</time>
      </trkpt>
      <trkpt lat="45.47199" lon="5.94437">
        <ele>1002</ele>
        <time>2014-08-08T08:37:33Z</time>
      </trkpt>
      <trkpt lat="45.47214" lon="5.9442">
        <ele>999</ele>
        <time>2014-08-08T08:37:46Z</time>
      </trkpt>
      <trkpt lat="45.47196" lon="5.94426">
        <ele>1004</ele>
        <time>2014-08-08T08:38:16Z</time>
      </trkpt>
      <trkpt lat="45.47177" lon="5.94427">
        <ele>1011</ele>
        <time>2014-08-08T08:39:13Z</time>
      </trkpt>
      <trkpt lat="45.47158" lon="5.94428">
        <ele>1019</ele>
        <time>2014-08-08T08:39:28Z</time>
      </trkpt>
      <trkpt lat="45.4714" lon="5.94423">
        <ele>1020</ele>
        <time>2014-08-08T08:39:42Z</time>
      </trkpt>
      <trkpt lat="45.47124" lon="5.94437">
        <ele>1021</ele>
        <time>2014-08-08T08:39:56Z</time>
      </trkpt>
      <trkpt lat="45.47108" lon="5.9445">
        <ele>1021</ele>
        <time>2014-08-08T08:40:11Z</time>
      </trkpt>
      <trkpt lat="45.47089" lon="5.94456">
        <ele>1021</ele>
        <time>2014-08-08T08:40:26Z</time>
      </trkpt>
      <trkpt lat="45.47072" lon="5.94446">
        <ele>1033</ele>
        <time>2014-08-08T08:40:43Z</time>
      </trkpt>
      <trkpt lat="45.47055" lon="5.94432">
        <ele>1036</ele>
        <time>2014-08-08T08:41:00Z</time>
      </trkpt>
      <trkpt lat="45.47038" lon="5.94419">
        <ele>1039</ele>
        <time>2014-08-08T08:41:14Z</time>
      </trkpt>
      <trkpt lat="45.47019" lon="5.94425">
        <ele>1043</ele>
        <time>2014-08-08T08:41:29Z</time>
      </trkpt>
      <trkpt lat="45.47009" lon="5.94448">
        <ele>1039</ele>
        <time>2014-08-08T08:41:44Z</time>
      </trkpt>
      <trkpt lat="45.46991" lon="5.94453">
        <ele>1047</ele>
        <time>2014-08-08T08:41:58Z</time>
      </trkpt>
      <trkpt lat="45.46976" lon="5.94439">
        <ele>1050</ele>
        <time>2014-08-08T08:42:10Z</time>
      </trkpt>
      <trkpt lat="45.46959" lon="5.94428">
        <ele>1052</ele>
        <time>2014-08-08T08:42:25Z</time>
      </trkpt>
      <trkpt lat="45.46941" lon="5.94425">
        <ele>1056</ele>
        <time>2014-08-08T08:42:44Z</time>
      </trkpt>
      <trkpt lat="45.46928" lon="5.94443">
        <ele>1054</ele>
        <time>2014-08-08T08:42:58Z</time>
      </trkpt>
      <trkpt lat="45.46915" lon="5.94463">
        <ele>1056</ele>
        <time>2014-08-08T08:43:11Z</time>
      </trkpt>
      <trkpt lat="45.46903" lon="5.94481">
        <ele>1052</ele>
        <time>2014-08-08T08:43:24Z</time>
      </trkpt>
      <trkpt lat="45.46889" lon="5.94463">
        <ele>1057</ele>
        <time>2014-08-08T08:44:09Z</time>
      </trkpt>
      <trkpt lat="45.46902" lon="5.94442">
        <ele>1061</ele>
        <time>2014-08-08T08:44:26Z</time>
      </trkpt>
      <trkpt lat="45.46911" lon="5.94418">
        <ele>1066</ele>
        <time>2014-08-08T08:44:41Z</time>
      </trkpt>
      <trkpt lat="45.46919" lon="5.94393">
        <ele>1073</ele>
        <time>2014-08-08T08:44:55Z</time>
      </trkpt>
      <trkpt lat="45.46933" lon="5.94374">
        <ele>1076</ele>
        <time>2014-08-08T08:45:10Z</time>
      </trkpt>
      <trkpt lat="45.46951" lon="5.94378">
        <ele>1074</ele>
        <time>2014-08-08T08:45:25Z</time>
      </trkpt>
      <trkpt lat="45.46968" lon="5.94363">
        <ele>1075</ele>
        <time>2014-08-08T08:45:39Z</time>
      </trkpt>
      <trkpt lat="45.46977" lon="5.94339">
        <ele>1076</ele>
        <time>2014-08-08T08:45:51Z</time>
      </trkpt>
      <trkpt lat="45.46978" lon="5.94312">
        <ele>1094</ele>
        <time>2014-08-08T08:46:03Z</time>
      </trkpt>
      <trkpt lat="45.46992" lon="5.94295">
        <ele>1097</ele>
        <time>2014-08-08T08:46:21Z</time>
      </trkpt>
      <trkpt lat="45.47009" lon="5.94304">
        <ele>1084</ele>
        <time>2014-08-08T08:46:32Z</time>
      </trkpt>
      <trkpt lat="45.47027" lon="5.943">
        <ele>1084</ele>
        <time>2014-08-08T08:46:45Z</time>
      </trkpt>
      <trkpt lat="45.47043" lon="5.94286">
        <ele>1085</ele>
        <time>2014-08-08T08:46:57Z</time>
      </trkpt>
      <trkpt lat="45.47059" lon="5.94272">
        <ele>1086</ele>
        <time>2014-08-08T08:47:07Z</time>
      </trkpt>
      <trkpt lat="45.47076" lon="5.9426">
        <ele>1088</ele>
        <time>2014-08-08T08:47:18Z</time>
      </trkpt>
      <trkpt lat="45.47092" lon="5.94244">
        <ele>1091</ele>
        <time>2014-08-08T08:47:28Z</time>
      </trkpt>
      <trkpt lat="45.47108" lon="5.94231">
        <ele>1091</ele>
        <time>2014-08-08T08:47:39Z</time>
      </trkpt>
      <trkpt lat="45.47119" lon="5.9421">
        <ele>1093</ele>
        <time>2014-08-08T08:47:50Z</time>
      </trkpt>
      <trkpt lat="45.47129" lon="5.94188">
        <ele>1093</ele>
        <time>2014-08-08T08:48:01Z</time>
      </trkpt>
      <trkpt lat="45.47137" lon="5.94165">
        <ele>1103</ele>
        <time>2014-08-08T08:48:15Z</time>
      </trkpt>
      <trkpt lat="45.47146" lon="5.94142">
        <ele>1103</ele>
        <time>2014-08-08T08:48:28Z</time>
      </trkpt>
      <trkpt lat="45.47127" lon="5.94147">
        <ele>1108</ele>
        <time>2014-08-08T08:48:57Z</time>
      </trkpt>
      <trkpt lat="45.47113" lon="5.94163">
        <ele>1111</ele>
        <time>2014-08-08T08:49:13Z</time>
      </trkpt>
      <trkpt lat="45.47095" lon="5.94169">
        <ele>1109</ele>
        <time>2014-08-08T08:49:28Z</time>
      </trkpt>
      <trkpt lat="45.47077" lon="5.94176">
        <ele>1118</ele>
        <time>2014-08-08T08:49:43Z</time>
      </trkpt>
      <trkpt lat="45.4706" lon="5.94184">
        <ele>1116</ele>
        <time>2014-08-08T08:49:59Z</time>
      </trkpt>
      <trkpt lat="45.47041" lon="5.94191">
        <ele>1117</ele>
        <time>2014-08-08T08:50:14Z</time>
      </trkpt>
      <trkpt lat="45.47022" lon="5.94191">
        <ele>1120</ele>
        <time>2014-08-08T08:50:33Z</time>
      </trkpt>
      <trkpt lat="45.47004" lon="5.94194">
        <ele>1121</ele>
        <time>2014-08-08T08:50:50Z</time>
      </trkpt>
      <trkpt lat="45.46986" lon="5.94188">
        <ele>1132</ele>
        <time>2014-08-08T08:51:04Z</time>
      </trkpt>
      <trkpt lat="45.4697" lon="5.94175">
        <ele>1134</ele>
        <time>2014-08-08T08:51:39Z</time>
      </trkpt>
      <trkpt lat="45.46952" lon="5.94177">
        <ele>1136</ele>
        <time>2014-08-08T08:53:36Z</time>
      </trkpt>
      <trkpt lat="45.4694" lon="5.94198">
        <ele>1134</ele>
        <time>2014-08-08T08:53:51Z</time>
      </trkpt>
      <trkpt lat="45.4693" lon="5.9422">
        <ele>1130</ele>
        <time>2014-08-08T08:54:00Z</time>
      </trkpt>
      <trkpt lat="45.46913" lon="5.94209">
        <ele>1143</ele>
        <time>2014-08-08T08:54:14Z</time>
      </trkpt>
      <trkpt lat="45.46895" lon="5.94211">
        <ele>1143</ele>
        <time>2014-08-08T08:54:29Z</time>
      </trkpt>
      <trkpt lat="45.46882" lon="5.9423">
        <ele>1141</ele>
        <time>2014-08-08T08:54:41Z</time>
      </trkpt>
      <trkpt lat="45.46864" lon="5.9424">
        <ele>1141</ele>
        <time>2014-08-08T08:54:52Z</time>
      </trkpt>
      <trkpt lat="45.46845" lon="5.94246">
        <ele>1139</ele>
        <time>2014-08-08T08:55:02Z</time>
      </trkpt>
      <trkpt lat="45.46826" lon="5.9425">
        <ele>1143</ele>
        <time>2014-08-08T08:55:13Z</time>
      </trkpt>
      <trkpt lat="45.46835" lon="5.94225">
        <ele>1144</ele>
        <time>2014-08-08T08:56:06Z</time>
      </trkpt>
      <trkpt lat="45.4685" lon="5.94211">
        <ele>1147</ele>
        <time>2014-08-08T08:56:22Z</time>
      </trkpt>
      <trkpt lat="45.46867" lon="5.942">
        <ele>1148</ele>
        <time>2014-08-08T08:56:37Z</time>
      </trkpt>
      <trkpt lat="45.46881" lon="5.94182">
        <ele>1149</ele>
        <time>2014-08-08T08:56:51Z</time>
      </trkpt>
      <trkpt lat="45.46884" lon="5.94157">
        <ele>1169</ele>
        <time>2014-08-08T08:57:10Z</time>
      </trkpt>
      <trkpt lat="45.46902" lon="5.94157">
        <ele>1163</ele>
        <time>2014-08-08T08:57:20Z</time>
      </trkpt>
      <trkpt lat="45.4692" lon="5.94148">
        <ele>1156</ele>
        <time>2014-08-08T08:57:27Z</time>
      </trkpt>
      <trkpt lat="45.46934" lon="5.94127">
        <ele>1160</ele>
        <time>2014-08-08T08:57:34Z</time>
      </trkpt>
      <trkpt lat="45.46947" lon="5.94108">
        <ele>1162</ele>
        <time>2014-08-08T08:57:39Z</time>
      </trkpt>
      <trkpt lat="45.46963" lon="5.94096">
        <ele>1161</ele>
        <time>2014-08-08T08:57:50Z</time>
      </trkpt>
      <trkpt lat="45.46979" lon="5.94081">
        <ele>1177</ele>
        <time>2014-08-08T08:58:16Z</time>
      </trkpt>
      <trkpt lat="45.46994" lon="5.94064">
        <ele>1177</ele>
        <time>2014-08-08T08:58:47Z</time>
      </trkpt>
      <trkpt lat="45.47009" lon="5.94049">
        <ele>1168</ele>
        <time>2014-08-08T08:59:29Z</time>
      </trkpt>
      <trkpt lat="45.47021" lon="5.94029">
        <ele>1172</ele>
        <time>2014-08-08T09:00:06Z</time>
      </trkpt>
      <trkpt lat="45.47019" lon="5.94004">
        <ele>1180</ele>
        <time>2014-08-08T09:01:00Z</time>
      </trkpt>
      <trkpt lat="45.47001" lon="5.94003">
        <ele>1192</ele>
        <time>2014-08-08T09:01:28Z</time>
      </trkpt>
      <trkpt lat="45.46982" lon="5.94004">
        <ele>1193</ele>
        <time>2014-08-08T09:02:19Z</time>
      </trkpt>
      <trkpt lat="45.46964" lon="5.94008">
        <ele>1194</ele>
        <time>2014-08-08T09:02:48Z</time>
      </trkpt>
      <trkpt lat="45.46945" lon="5.9401">
        <ele>1198</ele>
        <time>2014-08-08T09:03:23Z</time>
      </trkpt>
      <trkpt lat="45.46927" lon="5.94005">
        <ele>1207</ele>
        <time>2014-08-08T09:03:55Z</time>
      </trkpt>
      <trkpt lat="45.4691" lon="5.93995">
        <ele>1226</ele>
        <time>2014-08-08T09:04:13Z</time>
      </trkpt>
      <trkpt lat="45.46891" lon="5.93987">
        <ele>1236</ele>
        <time>2014-08-08T09:04:41Z</time>
      </trkpt>
      <trkpt lat="45.46873" lon="5.94003">
        <ele>1217</ele>
        <time>2014-08-08T09:05:17Z</time>
      </trkpt>
      <trkpt lat="45.46855" lon="5.94">
        <ele>1241</ele>
        <time>2014-08-08T09:06:22Z</time>
      </trkpt>
      <trkpt lat="45.46836" lon="5.93995">
        <ele>1241</ele>
        <time>2014-08-08T09:06:50Z</time>
      </trkpt>
      <trkpt lat="45.46821" lon="5.9401">
        <ele>1238</ele>
        <time>2014-08-08T09:07:25Z</time>
      </trkpt>
      <trkpt lat="45.46803" lon="5.94011">
        <ele>1239</ele>
        <time>2014-08-08T09:07:44Z</time>
      </trkpt>
      <trkpt lat="45.46785" lon="5.94018">
        <ele>1242</ele>
        <time>2014-08-08T09:08:08Z</time>
      </trkpt>
      <trkpt lat="45.46767" lon="5.94019">
        <ele>1247</ele>
        <time>2014-08-08T09:08:43Z</time>
      </trkpt>
      <trkpt lat="45.46764" lon="5.93994">
        <ele>1268</ele>
        <time>2014-08-08T09:09:58Z</time>
      </trkpt>
      <trkpt lat="45.46775" lon="5.93972">
        <ele>1268</ele>
        <time>2014-08-08T09:10:46Z</time>
      </trkpt>
      <trkpt lat="45.46777" lon="5.93946">
        <ele>1272</ele>
        <time>2014-08-08T09:11:38Z</time>
      </trkpt>
      <trkpt lat="45.46788" lon="5.93925">
        <ele>1273</ele>
        <time>2014-08-08T09:12:13Z</time>
      </trkpt>
      <trkpt lat="45.46773" lon="5.9391">
        <ele>1297</ele>
        <time>2014-08-08T09:13:12Z</time>
      </trkpt>
      <trkpt lat="45.46755" lon="5.93913">
        <ele>1296</ele>
        <time>2014-08-08T09:13:40Z</time>
      </trkpt>
      <trkpt lat="45.46737" lon="5.93913">
        <ele>1307</ele>
        <time>2014-08-08T09:14:26Z</time>
      </trkpt>
      <trkpt lat="45.46719" lon="5.93921">
        <ele>1295</ele>
        <time>2014-08-08T09:14:53Z</time>
      </trkpt>
      <trkpt lat="45.46701" lon="5.93929">
        <ele>1297</ele>
        <time>2014-08-08T09:15:19Z</time>
      </trkpt>
      <trkpt lat="45.46682" lon="5.9393">
        <ele>1302</ele>
        <time>2014-08-08T09:15:46Z</time>
      </trkpt>
      <trkpt lat="45.46664" lon="5.9393">
        <ele>1313</ele>
        <time>2014-08-08T09:16:14Z</time>
      </trkpt>
      <trkpt lat="45.46645" lon="5.93933">
        <ele>1313</ele>
        <time>2014-08-08T09:16:51Z</time>
      </trkpt>
      <trkpt lat="45.46627" lon="5.93943">
        <ele>1313</ele>
        <time>2014-08-08T09:17:38Z</time>
      </trkpt>
      <trkpt lat="45.46611" lon="5.93957">
        <ele>1312</ele>
        <time>2014-08-08T09:17:58Z</time>
      </trkpt>
      <trkpt lat="45.46628" lon="5.93946">
        <ele>1312</ele>
        <time>2014-08-08T09:18:49Z</time>
      </trkpt>
      <trkpt lat="45.46645" lon="5.93935">
        <ele>1312</ele>
        <time>2014-08-08T09:19:14Z</time>
      </trkpt>
      <trkpt lat="45.46663" lon="5.93943">
        <ele>1310</ele>
        <time>2014-08-08T09:20:47Z</time>
      </trkpt>
      <trkpt lat="45.46671" lon="5.93966">
        <ele>1293</ele>
        <time>2014-08-08T09:21:14Z</time>
      </trkpt>
      <trkpt lat="45.4669" lon="5.93966">
        <ele>1292</ele>
        <time>2014-08-08T09:21:24Z</time>
      </trkpt>
      <trkpt lat="45.46707" lon="5.93976">
        <ele>1288</ele>
        <time>2014-08-08T09:21:33Z</time>
      </trkpt>
      <trkpt lat="45.46725" lon="5.93983">
        <ele>1285</ele>
        <time>2014-08-08T09:21:39Z</time>
      </trkpt>
      <trkpt lat="45.46744" lon="5.93986">
        <ele>1279</ele>
        <time>2014-08-08T09:21:56Z</time>
      </trkpt>
      <trkpt lat="45.46762" lon="5.93983">
        <ele>1268</ele>
        <time>2014-08-08T09:22:02Z</time>
      </trkpt>
      <trkpt lat="45.46782" lon="5.93981">
        <ele>1266</ele>
        <time>2014-08-08T09:22:08Z</time>
      </trkpt>
      <trkpt lat="45.46798" lon="5.93996">
        <ele>1261</ele>
        <time>2014-08-08T09:22:29Z</time>
      </trkpt>
      <trkpt lat="45.46812" lon="5.93976">
        <ele>1260</ele>
        <time>2014-08-08T09:22:37Z</time>
      </trkpt>
      <trkpt lat="45.46829" lon="5.93962">
        <ele>1261</ele>
        <time>2014-08-08T09:22:44Z</time>
      </trkpt>
      <trkpt lat="45.46848" lon="5.93949">
        <ele>1249</ele>
        <time>2014-08-08T09:23:02Z</time>
      </trkpt>
      <trkpt lat="45.46854" lon="5.93979">
        <ele>1243</ele>
        <time>2014-08-08T09:23:14Z</time>
      </trkpt>
      <trkpt lat="45.46872" lon="5.93981">
        <ele>1241</ele>
        <time>2014-08-08T09:23:21Z</time>
      </trkpt>
      <trkpt lat="45.46865" lon="5.94007">
        <ele>1218</ele>
        <time>2014-08-08T09:23:38Z</time>
      </trkpt>
      <trkpt lat="45.46872" lon="5.94031">
        <ele>1212</ele>
        <time>2014-08-08T09:23:43Z</time>
      </trkpt>
      <trkpt lat="45.46887" lon="5.94015">
        <ele>1213</ele>
        <time>2014-08-08T09:23:49Z</time>
      </trkpt>
      <trkpt lat="45.46904" lon="5.94005">
        <ele>1215</ele>
        <time>2014-08-08T09:23:55Z</time>
      </trkpt>
      <trkpt lat="45.46901" lon="5.9403">
        <ele>1209</ele>
        <time>2014-08-08T09:24:14Z</time>
      </trkpt>
      <trkpt lat="45.46919" lon="5.94028">
        <ele>1198</ele>
        <time>2014-08-08T09:24:25Z</time>
      </trkpt>
      <trkpt lat="45.46911" lon="5.94051">
        <ele>1202</ele>
        <time>2014-08-08T09:24:48Z</time>
      </trkpt>
      <trkpt lat="45.4693" lon="5.94058">
        <ele>1187</ele>
        <time>2014-08-08T09:25:01Z</time>
      </trkpt>
      <trkpt lat="45.46949" lon="5.9406">
        <ele>1186</ele>
        <time>2014-08-08T09:25:06Z</time>
      </trkpt>
      <trkpt lat="45.46966" lon="5.9407">
        <ele>1182</ele>
        <time>2014-08-08T09:25:17Z</time>
      </trkpt>
      <trkpt lat="45.46985" lon="5.94073">
        <ele>1176</ele>
        <time>2014-08-08T09:25:26Z</time>
      </trkpt>
      <trkpt lat="45.47" lon="5.94088">
        <ele>1159</ele>
        <time>2014-08-08T09:25:42Z</time>
      </trkpt>
      <trkpt lat="45.47019" lon="5.94091">
        <ele>1151</ele>
        <time>2014-08-08T09:25:50Z</time>
      </trkpt>
      <trkpt lat="45.47009" lon="5.94119">
        <ele>1146</ele>
        <time>2014-08-08T09:26:02Z</time>
      </trkpt>
      <trkpt lat="45.46997" lon="5.94139">
        <ele>1152</ele>
        <time>2014-08-08T09:26:06Z</time>
      </trkpt>
      <trkpt lat="45.47008" lon="5.94165">
        <ele>1139</ele>
        <time>2014-08-08T09:26:14Z</time>
      </trkpt>
      <trkpt lat="45.47027" lon="5.94172">
        <ele>1122</ele>
        <time>2014-08-08T09:26:19Z</time>
      </trkpt>
      <trkpt lat="45.47049" lon="5.94176">
        <ele>1118</ele>
        <time>2014-08-08T09:26:23Z</time>
      </trkpt>
      <trkpt lat="45.47064" lon="5.94193">
        <ele>1115</ele>
        <time>2014-08-08T09:26:29Z</time>
      </trkpt>
      <trkpt lat="45.47082" lon="5.94197">
        <ele>1113</ele>
        <time>2014-08-08T09:26:34Z</time>
      </trkpt>
      <trkpt lat="45.47103" lon="5.94198">
        <ele>1097</ele>
        <time>2014-08-08T09:26:39Z</time>
      </trkpt>
      <trkpt lat="45.47122" lon="5.94198">
        <ele>1094</ele>
        <time>2014-08-08T09:26:43Z</time>
      </trkpt>
      <trkpt lat="45.47141" lon="5.94197">
        <ele>1090</ele>
        <time>2014-08-08T09:26:48Z</time>
      </trkpt>
      <trkpt lat="45.47143" lon="5.94226">
        <ele>1086</ele>
        <time>2014-08-08T09:26:59Z</time>
      </trkpt>
      <trkpt lat="45.47137" lon="5.94253">
        <ele>1071</ele>
        <time>2014-08-08T09:27:05Z</time>
      </trkpt>
      <trkpt lat="45.4712" lon="5.94268">
        <ele>1072</ele>
        <time>2014-08-08T09:27:11Z</time>
      </trkpt>
      <trkpt lat="45.47101" lon="5.94282">
        <ele>1072</ele>
        <time>2014-08-08T09:27:17Z</time>
      </trkpt>
      <trkpt lat="45.47088" lon="5.94307">
        <ele>1067</ele>
        <time>2014-08-08T09:27:23Z</time>
      </trkpt>
      <trkpt lat="45.47073" lon="5.94328">
        <ele>1070</ele>
        <time>2014-08-08T09:27:27Z</time>
      </trkpt>
      <trkpt lat="45.47058" lon="5.94344">
        <ele>1060</ele>
        <time>2014-08-08T09:27:31Z</time>
      </trkpt>
      <trkpt lat="45.47039" lon="5.94349">
        <ele>1062</ele>
        <time>2014-08-08T09:27:39Z</time>
      </trkpt>
      <trkpt lat="45.47028" lon="5.94371">
        <ele>1060</ele>
        <time>2014-08-08T09:27:46Z</time>
      </trkpt>
      <trkpt lat="45.47023" lon="5.94396">
        <ele>1057</ele>
        <time>2014-08-08T09:27:49Z</time>
      </trkpt>
      <trkpt lat="45.47015" lon="5.94423">
        <ele>1045</ele>
        <time>2014-08-08T09:27:52Z</time>
      </trkpt>
      <trkpt lat="45.47007" lon="5.94446">
        <ele>1039</ele>
        <time>2014-08-08T09:28:25Z</time>
      </trkpt>
      <trkpt lat="45.47022" lon="5.94462">
        <ele>1034</ele>
        <time>2014-08-08T09:28:51Z</time>
      </trkpt>
      <trkpt lat="45.4704" lon="5.9446">
        <ele>1033</ele>
        <time>2014-08-08T09:29:01Z</time>
      </trkpt>
      <trkpt lat="45.47058" lon="5.94464">
        <ele>1031</ele>
        <time>2014-08-08T09:29:27Z</time>
      </trkpt>
      <trkpt lat="45.47078" lon="5.94462">
        <ele>1030</ele>
        <time>2014-08-08T09:29:42Z</time>
      </trkpt>
      <trkpt lat="45.47097" lon="5.94463">
        <ele>1019</ele>
        <time>2014-08-08T09:29:48Z</time>
      </trkpt>
      <trkpt lat="45.47115" lon="5.94463">
        <ele>1018</ele>
        <time>2014-08-08T09:29:55Z</time>
      </trkpt>
      <trkpt lat="45.47128" lon="5.94485">
        <ele>1014</ele>
        <time>2014-08-08T09:30:00Z</time>
      </trkpt>
      <trkpt lat="45.47148" lon="5.945">
        <ele>1008</ele>
        <time>2014-08-08T09:30:04Z</time>
      </trkpt>
      <trkpt lat="45.47168" lon="5.94505">
        <ele>994</ele>
        <time>2014-08-08T09:30:07Z</time>
      </trkpt>
      <trkpt lat="45.47192" lon="5.94508">
        <ele>986</ele>
        <time>2014-08-08T09:30:11Z</time>
      </trkpt>
      <trkpt lat="45.47214" lon="5.94503">
        <ele>982</ele>
        <time>2014-08-08T09:30:14Z</time>
      </trkpt>
      <trkpt lat="45.47237" lon="5.94501">
        <ele>981</ele>
        <time>2014-08-08T09:30:19Z</time>
      </trkpt>
      <trkpt lat="45.47259" lon="5.94509">
        <ele>970</ele>
        <time>2014-08-08T09:30:22Z</time>
      </trkpt>
      <trkpt lat="45.4728" lon="5.9452">
        <ele>960</ele>
        <time>2014-08-08T09:30:25Z</time>
      </trkpt>
      <trkpt lat="45.473" lon="5.94516">
        <ele>954</ele>
        <time>2014-08-08T09:30:30Z</time>
      </trkpt>
      <trkpt lat="45.47287" lon="5.94494">
        <ele>965</ele>
        <time>2014-08-08T09:30:38Z</time>
      </trkpt>
      <trkpt lat="45.47276" lon="5.94468">
        <ele>968</ele>
        <time>2014-08-08T09:30:43Z</time>
      </trkpt>
      <trkpt lat="45.47279" lon="5.94434">
        <ele>970</ele>
        <time>2014-08-08T09:30:54Z</time>
      </trkpt>
      <trkpt lat="45.47289" lon="5.94405">
        <ele>972</ele>
        <time>2014-08-08T09:30:58Z</time>
      </trkpt>
      <trkpt lat="45.47303" lon="5.94387">
        <ele>968</ele>
        <time>2014-08-08T09:31:03Z</time>
      </trkpt>
      <trkpt lat="45.47314" lon="5.94359">
        <ele>966</ele>
        <time>2014-08-08T09:31:12Z</time>
      </trkpt>
      <trkpt lat="45.47322" lon="5.9433">
        <ele>962</ele>
        <time>2014-08-08T09:31:19Z</time>
      </trkpt>
      <trkpt lat="45.47346" lon="5.94321">
        <ele>939</ele>
        <time>2014-08-08T09:31:37Z</time>
      </trkpt>
      <trkpt lat="45.47365" lon="5.94305">
        <ele>931</ele>
        <time>2014-08-08T09:31:40Z</time>
      </trkpt>
      <trkpt lat="45.4738" lon="5.94324">
        <ele>925</ele>
        <time>2014-08-08T09:32:02Z</time>
      </trkpt>
      <trkpt lat="45.47392" lon="5.94305">
        <ele>922</ele>
        <time>2014-08-08T09:32:20Z</time>
      </trkpt>
      <trkpt lat="45.47407" lon="5.94323">
        <ele>913</ele>
        <time>2014-08-08T09:32:48Z</time>
      </trkpt>
      <trkpt lat="45.47414" lon="5.94295">
        <ele>919</ele>
        <time>2014-08-08T09:32:57Z</time>
      </trkpt>
      <trkpt lat="45.47418" lon="5.94267">
        <ele>895</ele>
        <time>2014-08-08T09:33:01Z</time>
      </trkpt>
      <trkpt lat="45.47434" lon="5.94246">
        <ele>897</ele>
        <time>2014-08-08T09:33:05Z</time>
      </trkpt>
      <trkpt lat="45.47436" lon="5.94219">
        <ele>894</ele>
        <time>2014-08-08T09:33:09Z</time>
      </trkpt>
      <trkpt lat="45.47431" lon="5.94191">
        <ele>900</ele>
        <time>2014-08-08T09:33:14Z</time>
      </trkpt>
      <trkpt lat="45.47433" lon="5.94162">
        <ele>907</ele>
        <time>2014-08-08T09:33:18Z</time>
      </trkpt>
      <trkpt lat="45.47435" lon="5.94133">
        <ele>901</ele>
        <time>2014-08-08T09:33:21Z</time>
      </trkpt>
      <trkpt lat="45.47426" lon="5.94105">
        <ele>905</ele>
        <time>2014-08-08T09:33:27Z</time>
      </trkpt>
      <trkpt lat="45.47432" lon="5.94076">
        <ele>908</ele>
        <time>2014-08-08T09:33:31Z</time>
      </trkpt>
      <trkpt lat="45.47439" lon="5.94049">
        <ele>903</ele>
        <time>2014-08-08T09:33:34Z</time>
      </trkpt>
      <trkpt lat="45.47442" lon="5.94017">
        <ele>904</ele>
        <time>2014-08-08T09:33:38Z</time>
      </trkpt>
      <trkpt lat="45.47447" lon="5.93986">
        <ele>907</ele>
        <time>2014-08-08T09:33:42Z</time>
      </trkpt>
      <trkpt lat="45.47455" lon="5.93958">
        <ele>905</ele>
        <time>2014-08-08T09:33:47Z</time>
      </trkpt>
      <trkpt lat="45.47473" lon="5.93938">
        <ele>901</ele>
        <time>2014-08-08T09:33:52Z</time>
      </trkpt>
      <trkpt lat="45.47491" lon="5.93923">
        <ele>894</ele>
        <time>2014-08-08T09:33:55Z</time>
      </trkpt>
      <trkpt lat="45.47507" lon="5.93905">
        <ele>886</ele>
        <time>2014-08-08T09:33:59Z</time>
      </trkpt>
      <trkpt lat="45.4752" lon="5.9388">
        <ele>885</ele>
        <time>2014-08-08T09:34:04Z</time>
      </trkpt>
      <trkpt lat="45.47533" lon="5.93859">
        <ele>885</ele>
        <time>2014-08-08T09:34:08Z</time>
      </trkpt>
      <trkpt lat="45.47546" lon="5.93836">
        <ele>884</ele>
        <time>2014-08-08T09:34:13Z</time>
      </trkpt>
      <trkpt lat="45.47564" lon="5.9382">
        <ele>887</ele>
        <time>2014-08-08T09:34:18Z</time>
      </trkpt>
      <trkpt lat="45.4758" lon="5.93801">
        <ele>888</ele>
        <time>2014-08-08T09:34:21Z</time>
      </trkpt>
      <trkpt lat="45.47595" lon="5.93779">
        <ele>878</ele>
        <time>2014-08-08T09:34:24Z</time>
      </trkpt>
      <trkpt lat="45.47611" lon="5.93767">
        <ele>877</ele>
        <time>2014-08-08T09:34:31Z</time>
      </trkpt>
      <trkpt lat="45.47629" lon="5.93769">
        <ele>874</ele>
        <time>2014-08-08T09:34:37Z</time>
      </trkpt>
      <trkpt lat="45.47652" lon="5.93765">
        <ele>872</ele>
        <time>2014-08-08T09:34:43Z</time>
      </trkpt>
      <trkpt lat="45.4767" lon="5.93767">
        <ele>864</ele>
        <time>2014-08-08T09:34:47Z</time>
      </trkpt>
      <trkpt lat="45.47693" lon="5.93781">
        <ele>861</ele>
        <time>2014-08-08T09:34:58Z</time>
      </trkpt>
      <trkpt lat="45.47712" lon="5.93787">
        <ele>859</ele>
        <time>2014-08-08T09:35:09Z</time>
      </trkpt>
      <trkpt lat="45.47721" lon="5.93809">
        <ele>857</ele>
        <time>2014-08-08T09:35:15Z</time>
      </trkpt>
      <trkpt lat="45.47737" lon="5.9383">
        <ele>853</ele>
        <time>2014-08-08T09:35:23Z</time>
      </trkpt>
      <trkpt lat="45.47757" lon="5.9383">
        <ele>850</ele>
        <time>2014-08-08T09:35:28Z</time>
      </trkpt>
      <trkpt lat="45.47776" lon="5.93826">
        <ele>850</ele>
        <time>2014-08-08T09:36:48Z</time>
      </trkpt>
      <trkpt lat="45.47785" lon="5.93803">
        <ele>851</ele>
        <time>2014-08-08T09:36:57Z</time>
      </trkpt>
      <trkpt lat="45.47794" lon="5.93779">
        <ele>852</ele>
        <time>2014-08-08T09:37:10Z</time>
      </trkpt>
      <trkpt lat="45.47803" lon="5.93754">
        <ele>853</ele>
        <time>2014-08-08T09:37:23Z</time>
      </trkpt>
      <trkpt lat="45.47813" lon="5.93729">
        <ele>860</ele>
        <time>2014-08-08T09:37:34Z</time>
      </trkpt>
      <trkpt lat="45.47819" lon="5.93703">
        <ele>862</ele>
        <time>2014-08-08T09:37:45Z</time>
      </trkpt>
      <trkpt lat="45.47828" lon="5.93679">
        <ele>864</ele>
        <time>2014-08-08T09:37:57Z</time>
      </trkpt>
      <trkpt lat="45.47838" lon="5.93657">
        <ele>867</ele>
        <time>2014-08-08T09:38:09Z</time>
      </trkpt>
      <trkpt lat="45.47854" lon="5.93644">
        <ele>869</ele>
        <time>2014-08-08T09:38:18Z</time>
      </trkpt>
      <trkpt lat="45.47873" lon="5.93643">
        <ele>869</ele>
        <time>2014-08-08T09:38:28Z</time>
      </trkpt>
      <trkpt lat="45.47891" lon="5.93641">
        <ele>869</ele>
        <time>2014-08-08T09:38:45Z</time>
      </trkpt>
      <trkpt lat="45.47907" lon="5.93625">
        <ele>869</ele>
        <time>2014-08-08T09:38:58Z</time>
      </trkpt>
      <trkpt lat="45.47919" lon="5.93605">
        <ele>859</ele>
        <time>2014-08-08T09:39:11Z</time>
      </trkpt>
      <trkpt lat="45.47933" lon="5.93588">
        <ele>859</ele>
        <time>2014-08-08T09:39:22Z</time>
      </trkpt>
      <trkpt lat="45.47925" lon="5.93564">
        <ele>857</ele>
        <time>2014-08-08T09:39:36Z</time>
      </trkpt>
      <trkpt lat="45.47905" lon="5.93565">
        <ele>874</ele>
        <time>2014-08-08T09:39:48Z</time>
      </trkpt>
      <trkpt lat="45.47887" lon="5.93568">
        <ele>876</ele>
        <time>2014-08-08T09:39:59Z</time>
      </trkpt>
      <trkpt lat="45.47869" lon="5.93555">
        <ele>878</ele>
        <time>2014-08-08T09:40:16Z</time>
      </trkpt>
      <trkpt lat="45.47858" lon="5.93532">
        <ele>880</ele>
        <time>2014-08-08T09:40:30Z</time>
      </trkpt>
      <trkpt lat="45.47845" lon="5.93513">
        <ele>885</ele>
        <time>2014-08-08T09:40:35Z</time>
      </trkpt>
      <trkpt lat="45.4783" lon="5.93496">
        <ele>894</ele>
        <time>2014-08-08T09:40:45Z</time>
      </trkpt>
      <trkpt lat="45.47811" lon="5.93498">
        <ele>896</ele>
        <time>2014-08-08T09:40:56Z</time>
      </trkpt>
      <trkpt lat="45.47792" lon="5.93499">
        <ele>897</ele>
        <time>2014-08-08T09:41:06Z</time>
      </trkpt>
      <trkpt lat="45.47773" lon="5.93487">
        <ele>897</ele>
        <time>2014-08-08T09:41:45Z</time>
      </trkpt>
      <trkpt lat="45.47756" lon="5.93477">
        <ele>897</ele>
        <time>2014-08-08T09:42:00Z</time>
      </trkpt>
      <trkpt lat="45.4774" lon="5.93461">
        <ele>902</ele>
        <time>2014-08-08T09:42:12Z</time>
      </trkpt>
      <trkpt lat="45.47736" lon="5.93436">
        <ele>904</ele>
        <time>2014-08-08T09:42:24Z</time>
      </trkpt>
      <trkpt lat="45.47738" lon="5.93409">
        <ele>910</ele>
        <time>2014-08-08T09:42:34Z</time>
      </trkpt>
      <trkpt lat="45.47746" lon="5.93385">
        <ele>912</ele>
        <time>2014-08-08T09:42:51Z</time>
      </trkpt>
      <trkpt lat="45.47764" lon="5.93374">
        <ele>910</ele>
        <time>2014-08-08T09:43:03Z</time>
      </trkpt>
      <trkpt lat="45.47783" lon="5.93375">
        <ele>909</ele>
        <time>2014-08-08T09:43:16Z</time>
      </trkpt>
      <trkpt lat="45.478" lon="5.93388">
        <ele>909</ele>
        <time>2014-08-08T09:43:28Z</time>
      </trkpt>
      <trkpt lat="45.47818" lon="5.93397">
        <ele>908</ele>
        <time>2014-08-08T09:43:47Z</time>
      </trkpt>
      <trkpt lat="45.47828" lon="5.93375">
        <ele>909</ele>
        <time>2014-08-08T09:44:00Z</time>
      </trkpt>
      <trkpt lat="45.47821" lon="5.93351">
        <ele>909</ele>
        <time>2014-08-08T09:44:10Z</time>
      </trkpt>
      <trkpt lat="45.47805" lon="5.93335">
        <ele>910</ele>
        <time>2014-08-08T09:44:18Z</time>
      </trkpt>
      <trkpt lat="45.47788" lon="5.93325">
        <ele>913</ele>
        <time>2014-08-08T09:44:26Z</time>
      </trkpt>
      <trkpt lat="45.4777" lon="5.93311">
        <ele>914</ele>
        <time>2014-08-08T09:44:33Z</time>
      </trkpt>
      <trkpt lat="45.47756" lon="5.9329">
        <ele>915</ele>
        <time>2014-08-08T09:44:40Z</time>
      </trkpt>
      <trkpt lat="45.47753" lon="5.93264">
        <ele>918</ele>
        <time>2014-08-08T09:44:48Z</time>
      </trkpt>
      <trkpt lat="45.47768" lon="5.93248">
        <ele>919</ele>
        <time>2014-08-08T09:45:39Z</time>
      </trkpt>
      <trkpt lat="45.47776" lon="5.93221">
        <ele>918</ele>
        <time>2014-08-08T09:45:45Z</time>
      </trkpt>
      <trkpt lat="45.47778" lon="5.93193">
        <ele>919</ele>
        <time>2014-08-08T09:45:51Z</time>
      </trkpt>
      <trkpt lat="45.47779" lon="5.93165">
        <ele>925</ele>
        <time>2014-08-08T09:45:57Z</time>
      </trkpt>
      <trkpt lat="45.47779" lon="5.93137">
        <ele>925</ele>
        <time>2014-08-08T09:46:05Z</time>
      </trkpt>
      <trkpt lat="45.47781" lon="5.93108">
        <ele>927</ele>
        <time>2014-08-08T09:46:14Z</time>
      </trkpt>
      <trkpt lat="45.47787" lon="5.93083">
        <ele>932</ele>
        <time>2014-08-08T09:46:22Z</time>
      </trkpt>
      <trkpt lat="45.47788" lon="5.93056">
        <ele>932</ele>
        <time>2014-08-08T09:46:34Z</time>
      </trkpt>
      <trkpt lat="45.47789" lon="5.93028">
        <ele>933</ele>
        <time>2014-08-08T09:46:46Z</time>
      </trkpt>
      <trkpt lat="45.47786" lon="5.93001">
        <ele>935</ele>
        <time>2014-08-08T09:46:56Z</time>
      </trkpt>
      <trkpt lat="45.47783" lon="5.92975">
        <ele>939</ele>
        <time>2014-08-08T09:47:20Z</time>
      </trkpt>
      <trkpt lat="45.47782" lon="5.92947">
        <ele>940</ele>
        <time>2014-08-08T09:47:38Z</time>
      </trkpt>
      <trkpt lat="45.47776" lon="5.92922">
        <ele>943</ele>
        <time>2014-08-08T09:48:04Z</time>
      </trkpt>
      <trkpt lat="45.47775" lon="5.92896">
        <ele>945</ele>
        <time>2014-08-08T09:49:08Z</time>
      </trkpt>
      <trkpt lat="45.4779" lon="5.92882">
        <ele>942</ele>
        <time>2014-08-08T09:49:28Z</time>
      </trkpt>
      <trkpt lat="45.47807" lon="5.92869">
        <ele>940</ele>
        <time>2014-08-08T09:49:45Z</time>
      </trkpt>
      <trkpt lat="45.47827" lon="5.92873">
        <ele>938</ele>
        <time>2014-08-08T09:49:52Z</time>
      </trkpt>
      <trkpt lat="45.47838" lon="5.92899">
        <ele>927</ele>
        <time>2014-08-08T09:49:57Z</time>
      </trkpt>
      <trkpt lat="45.47845" lon="5.92922">
        <ele>925</ele>
        <time>2014-08-08T09:50:10Z</time>
      </trkpt>
      <trkpt lat="45.47853" lon="5.92948">
        <ele>921</ele>
        <time>2014-08-08T09:50:20Z</time>
      </trkpt>
      <trkpt lat="45.47862" lon="5.92971">
        <ele>919</ele>
        <time>2014-08-08T09:50:24Z</time>
      </trkpt>
      <trkpt lat="45.47879" lon="5.92977">
        <ele>917</ele>
        <time>2014-08-08T09:50:39Z</time>
      </trkpt>
      <trkpt lat="45.47894" lon="5.9296">
        <ele>916</ele>
        <time>2014-08-08T09:50:47Z</time>
      </trkpt>
      <trkpt lat="45.47909" lon="5.92975">
        <ele>913</ele>
        <time>2014-08-08T09:50:54Z</time>
      </trkpt>
      <trkpt lat="45.47922" lon="5.92995">
        <ele>905</ele>
        <time>2014-08-08T09:51:05Z</time>
      </trkpt>
      <trkpt lat="45.47933" lon="5.93015">
        <ele>898</ele>
        <time>2014-08-08T09:51:09Z</time>
      </trkpt>
      <trkpt lat="45.47946" lon="5.93036">
        <ele>895</ele>
        <time>2014-08-08T09:51:15Z</time>
      </trkpt>
      <trkpt lat="45.47965" lon="5.93049">
        <ele>893</ele>
        <time>2014-08-08T09:51:22Z</time>
      </trkpt>
      <trkpt lat="45.47983" lon="5.93059">
        <ele>890</ele>
        <time>2014-08-08T09:51:37Z</time>
      </trkpt>
      <trkpt lat="45.48003" lon="5.93071">
        <ele>883</ele>
        <time>2014-08-08T09:51:59Z</time>
      </trkpt>
      <trkpt lat="45.48021" lon="5.93079">
        <ele>883</ele>
        <time>2014-08-08T09:52:05Z</time>
      </trkpt>
      <trkpt lat="45.4804" lon="5.93082">
        <ele>882</ele>
        <time>2014-08-08T09:52:14Z</time>
      </trkpt>
      <trkpt lat="45.48059" lon="5.93091">
        <ele>870</ele>
        <time>2014-08-08T09:52:21Z</time>
      </trkpt>
      <trkpt lat="45.48079" lon="5.93101">
        <ele>869</ele>
        <time>2014-08-08T09:52:31Z</time>
      </trkpt>
      <trkpt lat="45.481" lon="5.93105">
        <ele>863</ele>
        <time>2014-08-08T09:52:48Z</time>
      </trkpt>
      <trkpt lat="45.48119" lon="5.93107">
        <ele>861</ele>
        <time>2014-08-08T09:53:00Z</time>
      </trkpt>
      <trkpt lat="45.481" lon="5.93107">
        <ele>863</ele>
        <time>2014-08-08T09:54:25Z</time>
      </trkpt>
      <trkpt lat="45.48082" lon="5.9311">
        <ele>868</ele>
        <time>2014-08-08T09:54:41Z</time>
      </trkpt>
      <trkpt lat="45.48066" lon="5.931">
        <ele>869</ele>
        <time>2014-08-08T09:55:43Z</time>
      </trkpt>
      <trkpt lat="45.48048" lon="5.9309">
        <ele>870</ele>
        <time>2014-08-08T09:56:16Z</time>
      </trkpt>
      <trkpt lat="45.48032" lon="5.93077">
        <ele>882</ele>
        <time>2014-08-08T09:56:34Z</time>
      </trkpt>
      <trkpt lat="45.48015" lon="5.93068">
        <ele>883</ele>
        <time>2014-08-08T09:56:52Z</time>
      </trkpt>
      <trkpt lat="45.47999" lon="5.93056">
        <ele>890</ele>
        <time>2014-08-08T09:57:11Z</time>
      </trkpt>
      <trkpt lat="45.47981" lon="5.9305">
        <ele>892</ele>
        <time>2014-08-08T09:57:32Z</time>
      </trkpt>
      <trkpt lat="45.47979" lon="5.93077">
        <ele>888</ele>
        <time>2014-08-08T09:57:47Z</time>
      </trkpt>
      <trkpt lat="45.47976" lon="5.93104">
        <ele>880</ele>
        <time>2014-08-08T09:57:56Z</time>
      </trkpt>
      <trkpt lat="45.47984" lon="5.93128">
        <ele>877</ele>
        <time>2014-08-08T09:58:07Z</time>
      </trkpt>
      <trkpt lat="45.47993" lon="5.93152">
        <ele>871</ele>
        <time>2014-08-08T09:58:15Z</time>
      </trkpt>
      <trkpt lat="45.48009" lon="5.93165">
        <ele>865</ele>
        <time>2014-08-08T09:58:23Z</time>
      </trkpt>
      <trkpt lat="45.48024" lon="5.93181">
        <ele>854</ele>
        <time>2014-08-08T09:58:35Z</time>
      </trkpt>
      <trkpt lat="45.48039" lon="5.93195">
        <ele>850</ele>
        <time>2014-08-08T09:58:46Z</time>
      </trkpt>
      <trkpt lat="45.48058" lon="5.93194">
        <ele>849</ele>
        <time>2014-08-08T09:59:22Z</time>
      </trkpt>
      <trkpt lat="45.48061" lon="5.93219">
        <ele>845</ele>
        <time>2014-08-08T09:59:45Z</time>
      </trkpt>
      <trkpt lat="45.48061" lon="5.93246">
        <ele>841</ele>
        <time>2014-08-08T09:59:53Z</time>
      </trkpt>
      <trkpt lat="45.48063" lon="5.93272">
        <ele>831</ele>
        <time>2014-08-08T10:00:00Z</time>
      </trkpt>
      <trkpt lat="45.48068" lon="5.93299">
        <ele>828</ele>
        <time>2014-08-08T10:00:07Z</time>
      </trkpt>
      <trkpt lat="45.48085" lon="5.93308">
        <ele>821</ele>
        <time>2014-08-08T10:00:35Z</time>
      </trkpt>
      <trkpt lat="45.48105" lon="5.93304">
        <ele>821</ele>
        <time>2014-08-08T10:00:59Z</time>
      </trkpt>
      <trkpt lat="45.48123" lon="5.93294">
        <ele>822</ele>
        <time>2014-08-08T10:01:13Z</time>
      </trkpt>
      <trkpt lat="45.4814" lon="5.93305">
        <ele>821</ele>
        <time>2014-08-08T10:01:24Z</time>
      </trkpt>
      <trkpt lat="45.48158" lon="5.93323">
        <ele>816</ele>
        <time>2014-08-08T10:01:34Z</time>
      </trkpt>
      <trkpt lat="45.48172" lon="5.93342">
        <ele>808</ele>
        <time>2014-08-08T10:01:39Z</time>
      </trkpt>
      <trkpt lat="45.48187" lon="5.9336">
        <ele>802</ele>
        <time>2014-08-08T10:01:46Z</time>
      </trkpt>
      <trkpt lat="45.48209" lon="5.93365">
        <ele>800</ele>
        <time>2014-08-08T10:01:55Z</time>
      </trkpt>
      <trkpt lat="45.48226" lon="5.9338">
        <ele>798</ele>
        <time>2014-08-08T10:02:00Z</time>
      </trkpt>
      <trkpt lat="45.48247" lon="5.93386">
        <ele>796</ele>
        <time>2014-08-08T10:02:06Z</time>
      </trkpt>
      <trkpt lat="45.48267" lon="5.93387">
        <ele>790</ele>
        <time>2014-08-08T10:02:14Z</time>
      </trkpt>
      <trkpt lat="45.48288" lon="5.93389">
        <ele>788</ele>
        <time>2014-08-08T10:02:20Z</time>
      </trkpt>
      <trkpt lat="45.4831" lon="5.93391">
        <ele>786</ele>
        <time>2014-08-08T10:02:25Z</time>
      </trkpt>
      <trkpt lat="45.4833" lon="5.93392">
        <ele>784</ele>
        <time>2014-08-08T10:02:29Z</time>
      </trkpt>
      <trkpt lat="45.48347" lon="5.93381">
        <ele>777</ele>
        <time>2014-08-08T10:02:35Z</time>
      </trkpt>
      <trkpt lat="45.48365" lon="5.93371">
        <ele>777</ele>
        <time>2014-08-08T10:02:43Z</time>
      </trkpt>
      <trkpt lat="45.48385" lon="5.93372">
        <ele>776</ele>
        <time>2014-08-08T10:02:48Z</time>
      </trkpt>
      <trkpt lat="45.48398" lon="5.93392">
        <ele>772</ele>
        <time>2014-08-08T10:02:54Z</time>
      </trkpt>
      <trkpt lat="45.48407" lon="5.93416">
        <ele>766</ele>
        <time>2014-08-08T10:03:02Z</time>
      </trkpt>
      <trkpt lat="45.48418" lon="5.9344">
        <ele>753</ele>
        <time>2014-08-08T10:03:13Z</time>
      </trkpt>
      <trkpt lat="45.48434" lon="5.9346">
        <ele>749</ele>
        <time>2014-08-08T10:03:17Z</time>
      </trkpt>
      <trkpt lat="45.48447" lon="5.93477">
        <ele>747</ele>
        <time>2014-08-08T10:03:20Z</time>
      </trkpt>
      <trkpt lat="45.48457" lon="5.93499">
        <ele>745</ele>
        <time>2014-08-08T10:03:24Z</time>
      </trkpt>
      <trkpt lat="45.48454" lon="5.93527">
        <ele>738</ele>
        <time>2014-08-08T10:03:29Z</time>
      </trkpt>
      <trkpt lat="45.48447" lon="5.93556">
        <ele>738</ele>
        <time>2014-08-08T10:03:35Z</time>
      </trkpt>
      <trkpt lat="45.48447" lon="5.93582">
        <ele>737</ele>
        <time>2014-08-08T10:03:57Z</time>
      </trkpt>
      <trkpt lat="45.48455" lon="5.93605">
        <ele>732</ele>
        <time>2014-08-08T10:04:04Z</time>
      </trkpt>
      <trkpt lat="45.48466" lon="5.93633">
        <ele>731</ele>
        <time>2014-08-08T10:04:09Z</time>
      </trkpt>
      <trkpt lat="45.48478" lon="5.93659">
        <ele>728</ele>
        <time>2014-08-08T10:04:15Z</time>
      </trkpt>
      <trkpt lat="45.48478" lon="5.93689">
        <ele>724</ele>
        <time>2014-08-08T10:04:22Z</time>
      </trkpt>
      <trkpt lat="45.4847" lon="5.93714">
        <ele>724</ele>
        <time>2014-08-08T10:04:28Z</time>
      </trkpt>
      <trkpt lat="45.48468" lon="5.9374">
        <ele>722</ele>
        <time>2014-08-08T10:04:32Z</time>
      </trkpt>
      <trkpt lat="45.48467" lon="5.93771">
        <ele>720</ele>
        <time>2014-08-08T10:04:38Z</time>
      </trkpt>
      <trkpt lat="45.48467" lon="5.93797">
        <ele>721</ele>
        <time>2014-08-08T10:04:43Z</time>
      </trkpt>
      <trkpt lat="45.48463" lon="5.93825">
        <ele>721</ele>
        <time>2014-08-08T10:04:48Z</time>
      </trkpt>
      <trkpt lat="45.48459" lon="5.93851">
        <ele>721</ele>
        <time>2014-08-08T10:04:55Z</time>
      </trkpt>
      <trkpt lat="45.48459" lon="5.93877">
        <ele>721</ele>
        <time>2014-08-08T10:05:03Z</time>
      </trkpt>
      <trkpt lat="45.48468" lon="5.939">
        <ele>720</ele>
        <time>2014-08-08T10:05:09Z</time>
      </trkpt>
      <trkpt lat="45.48478" lon="5.93927">
        <ele>717</ele>
        <time>2014-08-08T10:05:14Z</time>
      </trkpt>
      <trkpt lat="45.48484" lon="5.93953">
        <ele>715</ele>
        <time>2014-08-08T10:05:18Z</time>
      </trkpt>
      <trkpt lat="45.48492" lon="5.93977">
        <ele>712</ele>
        <time>2014-08-08T10:05:23Z</time>
      </trkpt>
      <trkpt lat="45.48506" lon="5.93997">
        <ele>705</ele>
        <time>2014-08-08T10:05:28Z</time>
      </trkpt>
      <trkpt lat="45.48498" lon="5.94024">
        <ele>704</ele>
        <time>2014-08-08T10:05:38Z</time>
      </trkpt>
      <trkpt lat="45.48479" lon="5.94017">
        <ele>705</ele>
        <time>2014-08-08T10:05:44Z</time>
      </trkpt>
      <trkpt lat="45.48466" lon="5.94039">
        <ele>705</ele>
        <time>2014-08-08T10:05:53Z</time>
      </trkpt>
      <trkpt lat="45.48464" lon="5.94066">
        <ele>703</ele>
        <time>2014-08-08T10:05:58Z</time>
      </trkpt>
      <trkpt lat="45.48464" lon="5.94091">
        <ele>698</ele>
        <time>2014-08-08T10:06:01Z</time>
      </trkpt>
      <trkpt lat="45.48461" lon="5.94118">
        <ele>699</ele>
        <time>2014-08-08T10:06:07Z</time>
      </trkpt>
      <trkpt lat="45.4846" lon="5.94147">
        <ele>699</ele>
        <time>2014-08-08T10:06:14Z</time>
      </trkpt>
      <trkpt lat="45.48462" lon="5.94173">
        <ele>696</ele>
        <time>2014-08-08T10:06:19Z</time>
      </trkpt>
      <trkpt lat="45.48457" lon="5.94198">
        <ele>696</ele>
        <time>2014-08-08T10:06:25Z</time>
      </trkpt>
      <trkpt lat="45.48454" lon="5.94226">
        <ele>696</ele>
        <time>2014-08-08T10:06:30Z</time>
      </trkpt>
      <trkpt lat="45.48453" lon="5.94253">
        <ele>692</ele>
        <time>2014-08-08T10:06:34Z</time>
      </trkpt>
      <trkpt lat="45.48447" lon="5.94282">
        <ele>691</ele>
        <time>2014-08-08T10:06:38Z</time>
      </trkpt>
      <trkpt lat="45.48445" lon="5.94312">
        <ele>690</ele>
        <time>2014-08-08T10:06:42Z</time>
      </trkpt>
      <trkpt lat="45.4844" lon="5.94338">
        <ele>685</ele>
        <time>2014-08-08T10:06:46Z</time>
      </trkpt>
      <trkpt lat="45.48431" lon="5.94362">
        <ele>684</ele>
        <time>2014-08-08T10:06:49Z</time>
      </trkpt>
      <trkpt lat="45.48423" lon="5.94393">
        <ele>683</ele>
        <time>2014-08-08T10:06:53Z</time>
      </trkpt>
      <trkpt lat="45.48417" lon="5.94418">
        <ele>685</ele>
        <time>2014-08-08T10:06:56Z</time>
      </trkpt>
      <trkpt lat="45.48412" lon="5.94443">
        <ele>681</ele>
        <time>2014-08-08T10:07:00Z</time>
      </trkpt>
      <trkpt lat="45.48397" lon="5.94466">
        <ele>677</ele>
        <time>2014-08-08T10:07:05Z</time>
      </trkpt>
      <trkpt lat="45.48379" lon="5.94463">
        <ele>678</ele>
        <time>2014-08-08T10:07:10Z</time>
      </trkpt>
      <trkpt lat="45.48358" lon="5.94476">
        <ele>677</ele>
        <time>2014-08-08T10:07:15Z</time>
      </trkpt>
      <trkpt lat="45.48341" lon="5.94489">
        <ele>674</ele>
        <time>2014-08-08T10:07:18Z</time>
      </trkpt>
      <trkpt lat="45.48323" lon="5.94496">
        <ele>674</ele>
        <time>2014-08-08T10:07:22Z</time>
      </trkpt>
      <trkpt lat="45.48302" lon="5.94502">
        <ele>666</ele>
        <time>2014-08-08T10:07:28Z</time>
      </trkpt>
      <trkpt lat="45.48284" lon="5.94518">
        <ele>666</ele>
        <time>2014-08-08T10:07:34Z</time>
      </trkpt>
      <trkpt lat="45.48271" lon="5.9454">
        <ele>664</ele>
        <time>2014-08-08T10:07:38Z</time>
      </trkpt>
      <trkpt lat="45.48258" lon="5.94562">
        <ele>661</ele>
        <time>2014-08-08T10:07:43Z</time>
      </trkpt>
      <trkpt lat="45.48242" lon="5.9458">
        <ele>661</ele>
        <time>2014-08-08T10:07:49Z</time>
      </trkpt>
      <trkpt lat="45.48228" lon="5.94597">
        <ele>658</ele>
        <time>2014-08-08T10:07:55Z</time>
      </trkpt>
      <trkpt lat="45.48219" lon="5.94625">
        <ele>657</ele>
        <time>2014-08-08T10:07:59Z</time>
      </trkpt>
      <trkpt lat="45.48204" lon="5.94648">
        <ele>656</ele>
        <time>2014-08-08T10:08:05Z</time>
      </trkpt>
      <trkpt lat="45.48186" lon="5.94663">
        <ele>657</ele>
        <time>2014-08-08T10:08:16Z</time>
      </trkpt>
      <trkpt lat="45.48167" lon="5.94682">
        <ele>654</ele>
        <time>2014-08-08T10:08:21Z</time>
      </trkpt>
      <trkpt lat="45.48151" lon="5.94698">
        <ele>659</ele>
        <time>2014-08-08T10:08:26Z</time>
      </trkpt>
      <trkpt lat="45.48136" lon="5.94721">
        <ele>659</ele>
        <time>2014-08-08T10:08:39Z</time>
      </trkpt>
      <trkpt lat="45.48117" lon="5.94735">
        <ele>660</ele>
        <time>2014-08-08T10:08:47Z</time>
      </trkpt>
      <trkpt lat="45.48098" lon="5.94741">
        <ele>661</ele>
        <time>2014-08-08T10:08:54Z</time>
      </trkpt>
      <trkpt lat="45.4808" lon="5.94746">
        <ele>664</ele>
        <time>2014-08-08T10:08:59Z</time>
      </trkpt>
      <trkpt lat="45.48063" lon="5.94758">
        <ele>665</ele>
        <time>2014-08-08T10:09:07Z</time>
      </trkpt>
      <trkpt lat="45.48054" lon="5.94784">
        <ele>666</ele>
        <time>2014-08-08T10:09:14Z</time>
      </trkpt>
      <trkpt lat="45.48052" lon="5.94814">
        <ele>666</ele>
        <time>2014-08-08T10:09:20Z</time>
      </trkpt>
      <trkpt lat="45.48058" lon="5.94842">
        <ele>663</ele>
        <time>2014-08-08T10:09:25Z</time>
      </trkpt>
      <trkpt lat="45.48071" lon="5.94862">
        <ele>663</ele>
        <time>2014-08-08T10:09:31Z</time>
      </trkpt>
      <trkpt lat="45.48078" lon="5.94891">
        <ele>661</ele>
        <time>2014-08-08T10:09:38Z</time>
      </trkpt>
      <trkpt lat="45.48091" lon="5.94914">
        <ele>656</ele>
        <time>2014-08-08T10:09:45Z</time>
      </trkpt>
      <trkpt lat="45.48097" lon="5.94939">
        <ele>653</ele>
        <time>2014-08-08T10:09:55Z</time>
      </trkpt>
      <trkpt lat="45.48098" lon="5.94965">
        <ele>652</ele>
        <time>2014-08-08T10:10:12Z</time>
      </trkpt>
      <trkpt lat="45.48103" lon="5.94991">
        <ele>652</ele>
        <time>2014-08-08T10:10:26Z</time>
      </trkpt>
      <trkpt lat="45.48107" lon="5.9502">
        <ele>650</ele>
        <time>2014-08-08T10:10:35Z</time>
      </trkpt>
      <trkpt lat="45.48114" lon="5.95045">
        <ele>650</ele>
        <time>2014-08-08T10:10:41Z</time>
      </trkpt>
      <trkpt lat="45.48118" lon="5.95077">
        <ele>649</ele>
        <time>2014-08-08T10:10:48Z</time>
      </trkpt>
      <trkpt lat="45.48115" lon="5.95104">
        <ele>648</ele>
        <time>2014-08-08T10:10:53Z</time>
      </trkpt>
      <trkpt lat="45.48124" lon="5.95127">
        <ele>647</ele>
        <time>2014-08-08T10:10:58Z</time>
      </trkpt>
      <trkpt lat="45.48117" lon="5.95156">
        <ele>648</ele>
        <time>2014-08-08T10:11:05Z</time>
      </trkpt>
      <trkpt lat="45.48121" lon="5.95187">
        <ele>645</ele>
        <time>2014-08-08T10:11:10Z</time>
      </trkpt>
      <trkpt lat="45.48122" lon="5.95213">
        <ele>644</ele>
        <time>2014-08-08T10:11:15Z</time>
      </trkpt>
      <trkpt lat="45.48122" lon="5.95241">
        <ele>643</ele>
        <time>2014-08-08T10:11:20Z</time>
      </trkpt>
      <trkpt lat="45.48123" lon="5.9527">
        <ele>636</ele>
        <time>2014-08-08T10:11:25Z</time>
      </trkpt>
      <trkpt lat="45.48128" lon="5.95295">
        <ele>634</ele>
        <time>2014-08-08T10:11:40Z</time>
      </trkpt>
      <trkpt lat="45.48114" lon="5.95312">
        <ele>633</ele>
        <time>2014-08-08T10:11:44Z</time>
      </trkpt>
      <trkpt lat="45.48096" lon="5.95315">
        <ele>633</ele>
        <time>2014-08-08T10:11:53Z</time>
      </trkpt>
      <trkpt lat="45.48083" lon="5.95338">
        <ele>630</ele>
        <time>2014-08-08T10:11:59Z</time>
      </trkpt>
      <trkpt lat="45.48065" lon="5.95352">
        <ele>629</ele>
        <time>2014-08-08T10:12:06Z</time>
      </trkpt>
      <trkpt lat="45.48045" lon="5.95357">
        <ele>629</ele>
        <time>2014-08-08T10:12:13Z</time>
      </trkpt>
      <trkpt lat="45.48036" lon="5.95383">
        <ele>627</ele>
        <time>2014-08-08T10:12:20Z</time>
      </trkpt>
      <trkpt lat="45.4804" lon="5.95411">
        <ele>625</ele>
        <time>2014-08-08T10:12:25Z</time>
      </trkpt>
      <trkpt lat="45.48036" lon="5.95436">
        <ele>614</ele>
        <time>2014-08-08T10:12:31Z</time>
      </trkpt>
      <trkpt lat="45.48028" lon="5.9546">
        <ele>612</ele>
        <time>2014-08-08T10:12:37Z</time>
      </trkpt>
      <trkpt lat="45.48018" lon="5.95484">
        <ele>611</ele>
        <time>2014-08-08T10:12:46Z</time>
      </trkpt>
      <trkpt lat="45.4802" lon="5.9551">
        <ele>603</ele>
        <time>2014-08-08T10:12:50Z</time>
      </trkpt>
      <trkpt lat="45.48015" lon="5.95536">
        <ele>600</ele>
        <time>2014-08-08T10:12:55Z</time>
      </trkpt>
      <trkpt lat="45.48006" lon="5.9556">
        <ele>599</ele>
        <time>2014-08-08T10:13:02Z</time>
      </trkpt>
      <trkpt lat="45.48004" lon="5.95587">
        <ele>595</ele>
        <time>2014-08-08T10:13:07Z</time>
      </trkpt>
      <trkpt lat="45.47997" lon="5.95617">
        <ele>595</ele>
        <time>2014-08-08T10:13:11Z</time>
      </trkpt>
      <trkpt lat="45.47988" lon="5.95642">
        <ele>593</ele>
        <time>2014-08-08T10:13:15Z</time>
      </trkpt>
      <trkpt lat="45.47978" lon="5.95669">
        <ele>586</ele>
        <time>2014-08-08T10:13:19Z</time>
      </trkpt>
      <trkpt lat="45.47973" lon="5.95697">
        <ele>586</ele>
        <time>2014-08-08T10:13:24Z</time>
      </trkpt>
      <trkpt lat="45.47972" lon="5.95727">
        <ele>584</ele>
        <time>2014-08-08T10:13:31Z</time>
      </trkpt>
      <trkpt lat="45.4798" lon="5.95753">
        <ele>577</ele>
        <time>2014-08-08T10:13:36Z</time>
      </trkpt>
      <trkpt lat="45.47982" lon="5.9578">
        <ele>577</ele>
        <time>2014-08-08T10:13:41Z</time>
      </trkpt>
      <trkpt lat="45.47972" lon="5.95807">
        <ele>576</ele>
        <time>2014-08-08T10:13:46Z</time>
      </trkpt>
      <trkpt lat="45.4797" lon="5.95834">
        <ele>570</ele>
        <time>2014-08-08T10:13:51Z</time>
      </trkpt>
      <trkpt lat="45.47969" lon="5.9586">
        <ele>569</ele>
        <time>2014-08-08T10:14:03Z</time>
      </trkpt>
      <trkpt lat="45.47957" lon="5.95881">
        <ele>568</ele>
        <time>2014-08-08T10:14:12Z</time>
      </trkpt>
      <trkpt lat="45.47945" lon="5.95907">
        <ele>566</ele>
        <time>2014-08-08T10:14:18Z</time>
      </trkpt>
      <trkpt lat="45.47933" lon="5.95937">
        <ele>561</ele>
        <time>2014-08-08T10:14:22Z</time>
      </trkpt>
      <trkpt lat="45.47922" lon="5.95961">
        <ele>560</ele>
        <time>2014-08-08T10:14:28Z</time>
      </trkpt>
      <trkpt lat="45.47908" lon="5.95979">
        <ele>560</ele>
        <time>2014-08-08T10:14:56Z</time>
      </trkpt>
      <trkpt lat="45.47892" lon="5.95992">
        <ele>560</ele>
        <time>2014-08-08T10:15:19Z</time>
      </trkpt>
      <trkpt lat="45.47873" lon="5.95977">
        <ele>561</ele>
        <time>2014-08-08T10:16:17Z</time>
      </trkpt>
      <trkpt lat="45.47854" lon="5.95971">
        <ele>561</ele>
        <time>2014-08-08T10:16:25Z</time>
      </trkpt>
      <trkpt lat="45.47835" lon="5.95977">
        <ele>561</ele>
        <time>2014-08-08T10:16:33Z</time>
      </trkpt>
      <trkpt lat="45.47815" lon="5.95977">
        <ele>562</ele>
        <time>2014-08-08T10:16:40Z</time>
      </trkpt>
      <trkpt lat="45.47834" lon="5.95974">
        <ele>561</ele>
        <time>2014-08-08T10:17:01Z</time>
      </trkpt>
      <trkpt lat="45.47853" lon="5.95967">
        <ele>561</ele>
        <time>2014-08-08T10:17:05Z</time>
      </trkpt>
      <trkpt lat="45.47875" lon="5.95968">
        <ele>561</ele>
        <time>2014-08-08T10:17:10Z</time>
      </trkpt>
      <trkpt lat="45.47893" lon="5.95973">
        <ele>561</ele>
        <time>2014-08-08T10:17:15Z</time>
      </trkpt>
      <trkpt lat="45.47912" lon="5.95995">
        <ele>559</ele>
        <time>2014-08-08T10:17:19Z</time>
      </trkpt>
      <trkpt lat="45.47923" lon="5.96018">
        <ele>556</ele>
        <time>2014-08-08T10:17:22Z</time>
      </trkpt>
      <trkpt lat="45.47937" lon="5.96037">
        <ele>555</ele>
        <time>2014-08-08T10:17:30Z</time>
      </trkpt>
      <trkpt lat="45.47957" lon="5.96041">
        <ele>555</ele>
        <time>2014-08-08T10:17:35Z</time>
      </trkpt>
      <trkpt lat="45.47974" lon="5.96056">
        <ele>554</ele>
        <time>2014-08-08T10:17:45Z</time>
      </trkpt>
      <trkpt lat="45.47985" lon="5.9608">
        <ele>553</ele>
        <time>2014-08-08T10:17:52Z</time>
      </trkpt>
      <trkpt lat="45.47993" lon="5.96105">
        <ele>551</ele>
        <time>2014-08-08T10:17:59Z</time>
      </trkpt>
      <trkpt lat="45.48003" lon="5.96131">
        <ele>544</ele>
        <time>2014-08-08T10:18:06Z</time>
      </trkpt>
      <trkpt lat="45.48016" lon="5.96149">
        <ele>544</ele>
        <time>2014-08-08T10:18:11Z</time>
      </trkpt>
      <trkpt lat="45.48037" lon="5.9615">
        <ele>541</ele>
        <time>2014-08-08T10:18:16Z</time>
      </trkpt>
      <trkpt lat="45.48061" lon="5.96158">
        <ele>537</ele>
        <time>2014-08-08T10:18:20Z</time>
      </trkpt>
      <trkpt lat="45.48079" lon="5.9617">
        <ele>531</ele>
        <time>2014-08-08T10:18:22Z</time>
      </trkpt>
      <trkpt lat="45.48097" lon="5.96184">
        <ele>528</ele>
        <time>2014-08-08T10:18:25Z</time>
      </trkpt>
      <trkpt lat="45.48116" lon="5.96196">
        <ele>527</ele>
        <time>2014-08-08T10:18:30Z</time>
      </trkpt>
      <trkpt lat="45.48136" lon="5.96193">
        <ele>527</ele>
        <time>2014-08-08T10:19:07Z</time>
      </trkpt>
      <trkpt lat="45.48155" lon="5.96184">
        <ele>528</ele>
        <time>2014-08-08T10:19:14Z</time>
      </trkpt>
      <trkpt lat="45.48174" lon="5.96174">
        <ele>526</ele>
        <time>2014-08-08T10:19:19Z</time>
      </trkpt>
      <trkpt lat="45.4819" lon="5.96162">
        <ele>527</ele>
        <time>2014-08-08T10:19:23Z</time>
      </trkpt>
      <trkpt lat="45.48206" lon="5.96143">
        <ele>526</ele>
        <time>2014-08-08T10:19:28Z</time>
      </trkpt>
      <trkpt lat="45.48224" lon="5.96131">
        <ele>525</ele>
        <time>2014-08-08T10:19:34Z</time>
      </trkpt>
      <trkpt lat="45.48243" lon="5.96125">
        <ele>525</ele>
        <time>2014-08-08T10:19:40Z</time>
      </trkpt>
      <trkpt lat="45.48262" lon="5.96133">
        <ele>519</ele>
        <time>2014-08-08T10:19:44Z</time>
      </trkpt>
      <trkpt lat="45.48281" lon="5.96148">
        <ele>518</ele>
        <time>2014-08-08T10:19:48Z</time>
      </trkpt>
      <trkpt lat="45.48299" lon="5.9616">
        <ele>517</ele>
        <time>2014-08-08T10:19:53Z</time>
      </trkpt>
      <trkpt lat="45.48316" lon="5.96176">
        <ele>512</ele>
        <time>2014-08-08T10:20:01Z</time>
      </trkpt>
      <trkpt lat="45.48331" lon="5.96197">
        <ele>511</ele>
        <time>2014-08-08T10:20:06Z</time>
      </trkpt>
      <trkpt lat="45.48344" lon="5.96221">
        <ele>502</ele>
        <time>2014-08-08T10:20:10Z</time>
      </trkpt>
      <trkpt lat="45.48363" lon="5.96232">
        <ele>501</ele>
        <time>2014-08-08T10:20:15Z</time>
      </trkpt>
      <trkpt lat="45.48382" lon="5.96222">
        <ele>500</ele>
        <time>2014-08-08T10:20:21Z</time>
      </trkpt>
      <trkpt lat="45.484" lon="5.96207">
        <ele>500</ele>
        <time>2014-08-08T10:20:26Z</time>
      </trkpt>
      <trkpt lat="45.48415" lon="5.96188">
        <ele>500</ele>
        <time>2014-08-08T10:20:29Z</time>
      </trkpt>
      <trkpt lat="45.48427" lon="5.96159">
        <ele>496</ele>
        <time>2014-08-08T10:20:32Z</time>
      </trkpt>
      <trkpt lat="45.48434" lon="5.96134">
        <ele>494</ele>
        <time>2014-08-08T10:20:34Z</time>
      </trkpt>
      <trkpt lat="45.4844" lon="5.96102">
        <ele>495</ele>
        <time>2014-08-08T10:20:37Z</time>
      </trkpt>
      <trkpt lat="45.48455" lon="5.96081">
        <ele>497</ele>
        <time>2014-08-08T10:20:40Z</time>
      </trkpt>
      <trkpt lat="45.48478" lon="5.96074">
        <ele>494</ele>
        <time>2014-08-08T10:20:43Z</time>
      </trkpt>
      <trkpt lat="45.48502" lon="5.96075">
        <ele>488</ele>
        <time>2014-08-08T10:20:46Z</time>
      </trkpt>
      <trkpt lat="45.48525" lon="5.96077">
        <ele>488</ele>
        <time>2014-08-08T10:20:50Z</time>
      </trkpt>
      <trkpt lat="45.48544" lon="5.96075">
        <ele>488</ele>
        <time>2014-08-08T10:20:54Z</time>
      </trkpt>
      <trkpt lat="45.48565" lon="5.96072">
        <ele>487</ele>
        <time>2014-08-08T10:20:59Z</time>
      </trkpt>
      <trkpt lat="45.48585" lon="5.96077">
        <ele>483</ele>
        <time>2014-08-08T10:21:06Z</time>
      </trkpt>
      <trkpt lat="45.48603" lon="5.96064">
        <ele>482</ele>
        <time>2014-08-08T10:21:12Z</time>
      </trkpt>
      <trkpt lat="45.48619" lon="5.96048">
        <ele>481</ele>
        <time>2014-08-08T10:21:17Z</time>
      </trkpt>
      <trkpt lat="45.48636" lon="5.96031">
        <ele>480</ele>
        <time>2014-08-08T10:21:22Z</time>
      </trkpt>
      <trkpt lat="45.48654" lon="5.96023">
        <ele>479</ele>
        <time>2014-08-08T10:21:29Z</time>
      </trkpt>
      <trkpt lat="45.4867" lon="5.96007">
        <ele>475</ele>
        <time>2014-08-08T10:21:34Z</time>
      </trkpt>
      <trkpt lat="45.48685" lon="5.95987">
        <ele>474</ele>
        <time>2014-08-08T10:21:39Z</time>
      </trkpt>
      <trkpt lat="45.48688" lon="5.95962">
        <ele>474</ele>
        <time>2014-08-08T10:21:47Z</time>
      </trkpt>
      <trkpt lat="45.48693" lon="5.95937">
        <ele>475</ele>
        <time>2014-08-08T10:21:54Z</time>
      </trkpt>
      <trkpt lat="45.48705" lon="5.95914">
        <ele>479</ele>
        <time>2014-08-08T10:22:00Z</time>
      </trkpt>
      <trkpt lat="45.48722" lon="5.95896">
        <ele>477</ele>
        <time>2014-08-08T10:22:07Z</time>
      </trkpt>
      <trkpt lat="45.48732" lon="5.95866">
        <ele>478</ele>
        <time>2014-08-08T10:22:13Z</time>
      </trkpt>
      <trkpt lat="45.48746" lon="5.95843">
        <ele>476</ele>
        <time>2014-08-08T10:22:19Z</time>
      </trkpt>
      <trkpt lat="45.48764" lon="5.95832">
        <ele>478</ele>
        <time>2014-08-08T10:22:26Z</time>
      </trkpt>
      <trkpt lat="45.48784" lon="5.95837">
        <ele>473</ele>
        <time>2014-08-08T10:22:33Z</time>
      </trkpt>
      <trkpt lat="45.48803" lon="5.95848">
        <ele>473</ele>
        <time>2014-08-08T10:22:40Z</time>
      </trkpt>
      <trkpt lat="45.48824" lon="5.95853">
        <ele>474</ele>
        <time>2014-08-08T10:22:57Z</time>
      </trkpt>
      <trkpt lat="45.48851" lon="5.95837">
        <ele>473</ele>
        <time>2014-08-08T10:23:09Z</time>
      </trkpt>
      <trkpt lat="45.48872" lon="5.95825">
        <ele>477</ele>
        <time>2014-08-08T10:23:15Z</time>
      </trkpt>
      <trkpt lat="45.48888" lon="5.95809">
        <ele>476</ele>
        <time>2014-08-08T10:23:20Z</time>
      </trkpt>
      <trkpt lat="45.48905" lon="5.95796">
        <ele>477</ele>
        <time>2014-08-08T10:23:25Z</time>
      </trkpt>
      <trkpt lat="45.4892" lon="5.9578">
        <ele>472</ele>
        <time>2014-08-08T10:23:31Z</time>
      </trkpt>
      <trkpt lat="45.4893" lon="5.95753">
        <ele>475</ele>
        <time>2014-08-08T10:23:35Z</time>
      </trkpt>
      <trkpt lat="45.48952" lon="5.95737">
        <ele>475</ele>
        <time>2014-08-08T10:23:41Z</time>
      </trkpt>
      <trkpt lat="45.4897" lon="5.95746">
        <ele>473</ele>
        <time>2014-08-08T10:23:45Z</time>
      </trkpt>
      <trkpt lat="45.48984" lon="5.95766">
        <ele>468</ele>
        <time>2014-08-08T10:23:50Z</time>
      </trkpt>
      <trkpt lat="45.48997" lon="5.95787">
        <ele>467</ele>
        <time>2014-08-08T10:23:54Z</time>
      </trkpt>
      <trkpt lat="45.49012" lon="5.95804">
        <ele>462</ele>
        <time>2014-08-08T10:23:58Z</time>
      </trkpt>
      <trkpt lat="45.49031" lon="5.95813">
        <ele>462</ele>
        <time>2014-08-08T10:24:04Z</time>
      </trkpt>
      <trkpt lat="45.49053" lon="5.95818">
        <ele>461</ele>
        <time>2014-08-08T10:24:10Z</time>
      </trkpt>
      <trkpt lat="45.49071" lon="5.95828">
        <ele>460</ele>
        <time>2014-08-08T10:24:17Z</time>
      </trkpt>
      <trkpt lat="45.49084" lon="5.95847">
        <ele>456</ele>
        <time>2014-08-08T10:24:32Z</time>
      </trkpt>
      <trkpt lat="45.49096" lon="5.9587">
        <ele>454</ele>
        <time>2014-08-08T10:24:36Z</time>
      </trkpt>
      <trkpt lat="45.49105" lon="5.959">
        <ele>453</ele>
        <time>2014-08-08T10:24:39Z</time>
      </trkpt>
      <trkpt lat="45.49112" lon="5.95925">
        <ele>450</ele>
        <time>2014-08-08T10:24:42Z</time>
      </trkpt>
      <trkpt lat="45.49124" lon="5.95945">
        <ele>448</ele>
        <time>2014-08-08T10:24:45Z</time>
      </trkpt>
      <trkpt lat="45.49137" lon="5.95969">
        <ele>447</ele>
        <time>2014-08-08T10:24:49Z</time>
      </trkpt>
      <trkpt lat="45.49143" lon="5.95995">
        <ele>445</ele>
        <time>2014-08-08T10:24:52Z</time>
      </trkpt>
      <trkpt lat="45.49148" lon="5.96024">
        <ele>442</ele>
        <time>2014-08-08T10:24:55Z</time>
      </trkpt>
      <trkpt lat="45.49133" lon="5.96038">
        <ele>443</ele>
        <time>2014-08-08T10:25:01Z</time>
      </trkpt>
      <trkpt lat="45.49115" lon="5.96049">
        <ele>443</ele>
        <time>2014-08-08T10:25:04Z</time>
      </trkpt>
      <trkpt lat="45.49092" lon="5.96064">
        <ele>443</ele>
        <time>2014-08-08T10:25:07Z</time>
      </trkpt>
      <trkpt lat="45.49071" lon="5.96074">
        <ele>446</ele>
        <time>2014-08-08T10:25:10Z</time>
      </trkpt>
      <trkpt lat="45.49051" lon="5.96084">
        <ele>443</ele>
        <time>2014-08-08T10:25:13Z</time>
      </trkpt>
      <trkpt lat="45.4904" lon="5.96112">
        <ele>443</ele>
        <time>2014-08-08T10:25:17Z</time>
      </trkpt>
      <trkpt lat="45.4903" lon="5.96134">
        <ele>442</ele>
        <time>2014-08-08T10:25:22Z</time>
      </trkpt>
      <trkpt lat="45.49015" lon="5.96155">
        <ele>441</ele>
        <time>2014-08-08T10:25:28Z</time>
      </trkpt>
      <trkpt lat="45.49001" lon="5.96173">
        <ele>440</ele>
        <time>2014-08-08T10:25:33Z</time>
      </trkpt>
      <trkpt lat="45.48986" lon="5.96191">
        <ele>442</ele>
        <time>2014-08-08T10:25:38Z</time>
      </trkpt>
      <trkpt lat="45.48975" lon="5.96212">
        <ele>442</ele>
        <time>2014-08-08T10:25:44Z</time>
      </trkpt>
      <trkpt lat="45.48968" lon="5.96239">
        <ele>442</ele>
        <time>2014-08-08T10:25:51Z</time>
      </trkpt>
      <trkpt lat="45.48951" lon="5.96248">
        <ele>442</ele>
        <time>2014-08-08T10:25:55Z</time>
      </trkpt>
      <trkpt lat="45.48933" lon="5.96255">
        <ele>440</ele>
        <time>2014-08-08T10:25:59Z</time>
      </trkpt>
      <trkpt lat="45.48917" lon="5.96271">
        <ele>440</ele>
        <time>2014-08-08T10:26:04Z</time>
      </trkpt>
      <trkpt lat="45.489" lon="5.96283">
        <ele>440</ele>
        <time>2014-08-08T10:26:09Z</time>
      </trkpt>
      <trkpt lat="45.48881" lon="5.96294">
        <ele>439</ele>
        <time>2014-08-08T10:26:15Z</time>
      </trkpt>
      <trkpt lat="45.48861" lon="5.96305">
        <ele>439</ele>
        <time>2014-08-08T10:26:20Z</time>
      </trkpt>
      <trkpt lat="45.48841" lon="5.96321">
        <ele>438</ele>
        <time>2014-08-08T10:26:24Z</time>
      </trkpt>
      <trkpt lat="45.48823" lon="5.96334">
        <ele>436</ele>
        <time>2014-08-08T10:26:27Z</time>
      </trkpt>
      <trkpt lat="45.48805" lon="5.96343">
        <ele>434</ele>
        <time>2014-08-08T10:26:30Z</time>
      </trkpt>
      <trkpt lat="45.48788" lon="5.96355">
        <ele>433</ele>
        <time>2014-08-08T10:26:33Z</time>
      </trkpt>
      <trkpt lat="45.48771" lon="5.96369">
        <ele>433</ele>
        <time>2014-08-08T10:26:36Z</time>
      </trkpt>
      <trkpt lat="45.48768" lon="5.96396">
        <ele>432</ele>
        <time>2014-08-08T10:26:41Z</time>
      </trkpt>
      <trkpt lat="45.48775" lon="5.96426">
        <ele>429</ele>
        <time>2014-08-08T10:26:46Z</time>
      </trkpt>
      <trkpt lat="45.48783" lon="5.96451">
        <ele>429</ele>
        <time>2014-08-08T10:26:50Z</time>
      </trkpt>
      <trkpt lat="45.48799" lon="5.96472">
        <ele>428</ele>
        <time>2014-08-08T10:26:55Z</time>
      </trkpt>
      <trkpt lat="45.48821" lon="5.9648">
        <ele>428</ele>
        <time>2014-08-08T10:27:01Z</time>
      </trkpt>
      <trkpt lat="45.48839" lon="5.96483">
        <ele>427</ele>
        <time>2014-08-08T10:27:04Z</time>
      </trkpt>
      <trkpt lat="45.4886" lon="5.96485">
        <ele>427</ele>
        <time>2014-08-08T10:27:07Z</time>
      </trkpt>
      <trkpt lat="45.48875" lon="5.96502">
        <ele>424</ele>
        <time>2014-08-08T10:27:10Z</time>
      </trkpt>
      <trkpt lat="45.48879" lon="5.96534">
        <ele>424</ele>
        <time>2014-08-08T10:27:14Z</time>
      </trkpt>
      <trkpt lat="45.48893" lon="5.96553">
        <ele>423</ele>
        <time>2014-08-08T10:27:23Z</time>
      </trkpt>
      <trkpt lat="45.48911" lon="5.96566">
        <ele>422</ele>
        <time>2014-08-08T10:27:30Z</time>
      </trkpt>
      <trkpt lat="45.4892" lon="5.96596">
        <ele>421</ele>
        <time>2014-08-08T10:27:36Z</time>
      </trkpt>
      <trkpt lat="45.48922" lon="5.96625">
        <ele>421</ele>
        <time>2014-08-08T10:27:40Z</time>
      </trkpt>
      <trkpt lat="45.48926" lon="5.96653">
        <ele>421</ele>
        <time>2014-08-08T10:27:46Z</time>
      </trkpt>
      <trkpt lat="45.4893" lon="5.96679">
        <ele>421</ele>
        <time>2014-08-08T10:27:55Z</time>
      </trkpt>
      <trkpt lat="45.48926" lon="5.96705">
        <ele>421</ele>
        <time>2014-08-08T10:28:00Z</time>
      </trkpt>
      <trkpt lat="45.48914" lon="5.96729">
        <ele>422</ele>
        <time>2014-08-08T10:28:06Z</time>
      </trkpt>
      <trkpt lat="45.48904" lon="5.96754">
        <ele>421</ele>
        <time>2014-08-08T10:28:13Z</time>
      </trkpt>
      <trkpt lat="45.48905" lon="5.96783">
        <ele>421</ele>
        <time>2014-08-08T10:28:18Z</time>
      </trkpt>
      <trkpt lat="45.48907" lon="5.96814">
        <ele>420</ele>
        <time>2014-08-08T10:28:23Z</time>
      </trkpt>
      <trkpt lat="45.48913" lon="5.96843">
        <ele>419</ele>
        <time>2014-08-08T10:28:29Z</time>
      </trkpt>
      <trkpt lat="45.48913" lon="5.9687">
        <ele>420</ele>
        <time>2014-08-08T10:28:35Z</time>
      </trkpt>
      <trkpt lat="45.4891" lon="5.96896">
        <ele>421</ele>
        <time>2014-08-08T10:28:41Z</time>
      </trkpt>
      <trkpt lat="45.48916" lon="5.96922">
        <ele>421</ele>
        <time>2014-08-08T10:28:49Z</time>
      </trkpt>
      <trkpt lat="45.48924" lon="5.96947">
        <ele>418</ele>
        <time>2014-08-08T10:28:55Z</time>
      </trkpt>
      <trkpt lat="45.48934" lon="5.96968">
        <ele>418</ele>
        <time>2014-08-08T10:29:01Z</time>
      </trkpt>
      <trkpt lat="45.48954" lon="5.96961">
        <ele>417</ele>
        <time>2014-08-08T10:29:08Z</time>
      </trkpt>
      <trkpt lat="45.48974" lon="5.96956">
        <ele>416</ele>
        <time>2014-08-08T10:29:14Z</time>
      </trkpt>
      <trkpt lat="45.4899" lon="5.96978">
        <ele>415</ele>
        <time>2014-08-08T10:29:21Z</time>
      </trkpt>
      <trkpt lat="45.49007" lon="5.96987">
        <ele>411</ele>
        <time>2014-08-08T10:29:25Z</time>
      </trkpt>
      <trkpt lat="45.4903" lon="5.96995">
        <ele>409</ele>
        <time>2014-08-08T10:29:29Z</time>
      </trkpt>
      <trkpt lat="45.49049" lon="5.96988">
        <ele>407</ele>
        <time>2014-08-08T10:29:32Z</time>
      </trkpt>
      <trkpt lat="45.49067" lon="5.96995">
        <ele>405</ele>
        <time>2014-08-08T10:29:35Z</time>
      </trkpt>
      <trkpt lat="45.49081" lon="5.97017">
        <ele>405</ele>
        <time>2014-08-08T10:29:38Z</time>
      </trkpt>
      <trkpt lat="45.49083" lon="5.97044">
        <ele>406</ele>
        <time>2014-08-08T10:29:41Z</time>
      </trkpt>
      <trkpt lat="45.4908" lon="5.97071">
        <ele>404</ele>
        <time>2014-08-08T10:29:44Z</time>
      </trkpt>
      <trkpt lat="45.49081" lon="5.97097">
        <ele>405</ele>
        <time>2014-08-08T10:29:47Z</time>
      </trkpt>
      <trkpt lat="45.49083" lon="5.97123">
        <ele>407</ele>
        <time>2014-08-08T10:29:51Z</time>
      </trkpt>
      <trkpt lat="45.49091" lon="5.97153">
        <ele>399</ele>
        <time>2014-08-08T10:29:56Z</time>
      </trkpt>
      <trkpt lat="45.49106" lon="5.97172">
        <ele>398</ele>
        <time>2014-08-08T10:30:00Z</time>
      </trkpt>
      <trkpt lat="45.49118" lon="5.97195">
        <ele>396</ele>
        <time>2014-08-08T10:30:04Z</time>
      </trkpt>
      <trkpt lat="45.49123" lon="5.97222">
        <ele>396</ele>
        <time>2014-08-08T10:30:09Z</time>
      </trkpt>
      <trkpt lat="45.49136" lon="5.97241">
        <ele>395</ele>
        <time>2014-08-08T10:30:27Z</time>
      </trkpt>
      <trkpt lat="45.49152" lon="5.97256">
        <ele>391</ele>
        <time>2014-08-08T10:30:40Z</time>
      </trkpt>
      <trkpt lat="45.49159" lon="5.97282">
        <ele>391</ele>
        <time>2014-08-08T10:30:44Z</time>
      </trkpt>
      <trkpt lat="45.49173" lon="5.97307">
        <ele>387</ele>
        <time>2014-08-08T10:30:48Z</time>
      </trkpt>
      <trkpt lat="45.49185" lon="5.9733">
        <ele>386</ele>
        <time>2014-08-08T10:30:51Z</time>
      </trkpt>
      <trkpt lat="45.4919" lon="5.97358">
        <ele>382</ele>
        <time>2014-08-08T10:30:54Z</time>
      </trkpt>
      <trkpt lat="45.49192" lon="5.97389">
        <ele>381</ele>
        <time>2014-08-08T10:30:57Z</time>
      </trkpt>
      <trkpt lat="45.49186" lon="5.97417">
        <ele>377</ele>
        <time>2014-08-08T10:31:00Z</time>
      </trkpt>
      <trkpt lat="45.4918" lon="5.97444">
        <ele>376</ele>
        <time>2014-08-08T10:31:03Z</time>
      </trkpt>
      <trkpt lat="45.49173" lon="5.97479">
        <ele>375</ele>
        <time>2014-08-08T10:31:06Z</time>
      </trkpt>
      <trkpt lat="45.49169" lon="5.97506">
        <ele>373</ele>
        <time>2014-08-08T10:31:09Z</time>
      </trkpt>
      <trkpt lat="45.4916" lon="5.97531">
        <ele>372</ele>
        <time>2014-08-08T10:31:14Z</time>
      </trkpt>
      <trkpt lat="45.49151" lon="5.97557">
        <ele>371</ele>
        <time>2014-08-08T10:31:18Z</time>
      </trkpt>
      <trkpt lat="45.49145" lon="5.97586">
        <ele>371</ele>
        <time>2014-08-08T10:31:22Z</time>
      </trkpt>
      <trkpt lat="45.49133" lon="5.97609">
        <ele>371</ele>
        <time>2014-08-08T10:31:26Z</time>
      </trkpt>
      <trkpt lat="45.49112" lon="5.97613">
        <ele>371</ele>
        <time>2014-08-08T10:31:30Z</time>
      </trkpt>
      <trkpt lat="45.4909" lon="5.97611">
        <ele>370</ele>
        <time>2014-08-08T10:31:34Z</time>
      </trkpt>
      <trkpt lat="45.49068" lon="5.97617">
        <ele>369</ele>
        <time>2014-08-08T10:31:38Z</time>
      </trkpt>
      <trkpt lat="45.49048" lon="5.9763">
        <ele>368</ele>
        <time>2014-08-08T10:31:42Z</time>
      </trkpt>
      <trkpt lat="45.49029" lon="5.97643">
        <ele>368</ele>
        <time>2014-08-08T10:31:46Z</time>
      </trkpt>
      <trkpt lat="45.49009" lon="5.97642">
        <ele>368</ele>
        <time>2014-08-08T10:31:51Z</time>
      </trkpt>
      <trkpt lat="45.48989" lon="5.97638">
        <ele>367</ele>
        <time>2014-08-08T10:31:56Z</time>
      </trkpt>
      <trkpt lat="45.48969" lon="5.97642">
        <ele>367</ele>
        <time>2014-08-08T10:32:02Z</time>
      </trkpt>
      <trkpt lat="45.4895" lon="5.97652">
        <ele>366</ele>
        <time>2014-08-08T10:32:07Z</time>
      </trkpt>
      <trkpt lat="45.48931" lon="5.9766">
        <ele>366</ele>
        <time>2014-08-08T10:32:12Z</time>
      </trkpt>
      <trkpt lat="45.48912" lon="5.97666">
        <ele>366</ele>
        <time>2014-08-08T10:32:17Z</time>
      </trkpt>
      <trkpt lat="45.48892" lon="5.97666">
        <ele>366</ele>
        <time>2014-08-08T10:32:23Z</time>
      </trkpt>
      <trkpt lat="45.4887" lon="5.97662">
        <ele>366</ele>
        <time>2014-08-08T10:32:28Z</time>
      </trkpt>
      <trkpt lat="45.4885" lon="5.97661">
        <ele>366</ele>
        <time>2014-08-08T10:32:33Z</time>
      </trkpt>
      <trkpt lat="45.48832" lon="5.97668">
        <ele>365</ele>
        <time>2014-08-08T10:32:37Z</time>
      </trkpt>
      <trkpt lat="45.48815" lon="5.97689">
        <ele>367</ele>
        <time>2014-08-08T10:32:42Z</time>
      </trkpt>
      <trkpt lat="45.48809" lon="5.97714">
        <ele>367</ele>
        <time>2014-08-08T10:32:46Z</time>
      </trkpt>
      <trkpt lat="45.48809" lon="5.97741">
        <ele>368</ele>
        <time>2014-08-08T10:32:51Z</time>
      </trkpt>
      <trkpt lat="45.4881" lon="5.9777">
        <ele>366</ele>
        <time>2014-08-08T10:32:56Z</time>
      </trkpt>
      <trkpt lat="45.48814" lon="5.978">
        <ele>364</ele>
        <time>2014-08-08T10:33:01Z</time>
      </trkpt>
      <trkpt lat="45.48811" lon="5.97826">
        <ele>363</ele>
        <time>2014-08-08T10:33:04Z</time>
      </trkpt>
      <trkpt lat="45.48804" lon="5.97853">
        <ele>355</ele>
        <time>2014-08-08T10:33:07Z</time>
      </trkpt>
      <trkpt lat="45.48791" lon="5.97875">
        <ele>354</ele>
        <time>2014-08-08T10:33:10Z</time>
      </trkpt>
      <trkpt lat="45.48773" lon="5.97891">
        <ele>352</ele>
        <time>2014-08-08T10:33:13Z</time>
      </trkpt>
      <trkpt lat="45.4875" lon="5.97906">
        <ele>349</ele>
        <time>2014-08-08T10:33:16Z</time>
      </trkpt>
      <trkpt lat="45.48727" lon="5.97917">
        <ele>341</ele>
        <time>2014-08-08T10:33:19Z</time>
      </trkpt>
      <trkpt lat="45.48705" lon="5.97927">
        <ele>340</ele>
        <time>2014-08-08T10:33:22Z</time>
      </trkpt>
      <trkpt lat="45.48688" lon="5.97935">
        <ele>339</ele>
        <time>2014-08-08T10:33:25Z</time>
      </trkpt>
      <trkpt lat="45.48675" lon="5.97958">
        <ele>336</ele>
        <time>2014-08-08T10:33:31Z</time>
      </trkpt>
      <trkpt lat="45.48674" lon="5.97984">
        <ele>332</ele>
        <time>2014-08-08T10:33:37Z</time>
      </trkpt>
      <trkpt lat="45.48693" lon="5.98">
        <ele>324</ele>
        <time>2014-08-08T10:33:42Z</time>
      </trkpt>
      <trkpt lat="45.4871" lon="5.98018">
        <ele>323</ele>
        <time>2014-08-08T10:33:46Z</time>
      </trkpt>
      <trkpt lat="45.48703" lon="5.98048">
        <ele>320</ele>
        <time>2014-08-08T10:33:52Z</time>
      </trkpt>
      <trkpt lat="45.48686" lon="5.98064">
        <ele>318</ele>
        <time>2014-08-08T10:33:55Z</time>
      </trkpt>
      <trkpt lat="45.48668" lon="5.98067">
        <ele>316</ele>
        <time>2014-08-08T10:33:58Z</time>
      </trkpt>
      <trkpt lat="45.4865" lon="5.98067">
        <ele>314</ele>
        <time>2014-08-08T10:34:01Z</time>
      </trkpt>
      <trkpt lat="45.48629" lon="5.98064">
        <ele>314</ele>
        <time>2014-08-08T10:34:04Z</time>
      </trkpt>
      <trkpt lat="45.48609" lon="5.98055">
        <ele>313</ele>
        <time>2014-08-08T10:34:07Z</time>
      </trkpt>
      <trkpt lat="45.48587" lon="5.98049">
        <ele>313</ele>
        <time>2014-08-08T10:34:10Z</time>
      </trkpt>
      <trkpt lat="45.48564" lon="5.98043">
        <ele>310</ele>
        <time>2014-08-08T10:34:13Z</time>
      </trkpt>
      <trkpt lat="45.48543" lon="5.98038">
        <ele>311</ele>
        <time>2014-08-08T10:34:16Z</time>
      </trkpt>
      <trkpt lat="45.48521" lon="5.98034">
        <ele>311</ele>
        <time>2014-08-08T10:34:19Z</time>
      </trkpt>
      <trkpt lat="45.485" lon="5.98047">
        <ele>309</ele>
        <time>2014-08-08T10:34:22Z</time>
      </trkpt>
      <trkpt lat="45.48482" lon="5.98065">
        <ele>305</ele>
        <time>2014-08-08T10:34:25Z</time>
      </trkpt>
      <trkpt lat="45.48465" lon="5.98079">
        <ele>304</ele>
        <time>2014-08-08T10:34:28Z</time>
      </trkpt>
      <trkpt lat="45.48443" lon="5.98084">
        <ele>295</ele>
        <time>2014-08-08T10:34:31Z</time>
      </trkpt>
      <trkpt lat="45.48418" lon="5.98086">
        <ele>296</ele>
        <time>2014-08-08T10:34:34Z</time>
      </trkpt>
      <trkpt lat="45.484" lon="5.98086">
        <ele>293</ele>
        <time>2014-08-08T10:34:36Z</time>
      </trkpt>
      <trkpt lat="45.48381" lon="5.98085">
        <ele>291</ele>
        <time>2014-08-08T10:34:38Z</time>
      </trkpt>
      <trkpt lat="45.48356" lon="5.98085">
        <ele>291</ele>
        <time>2014-08-08T10:34:41Z</time>
      </trkpt>
      <trkpt lat="45.4833" lon="5.98087">
        <ele>292</ele>
        <time>2014-08-08T10:34:44Z</time>
      </trkpt>
      <trkpt lat="45.48309" lon="5.98086">
        <ele>289</ele>
        <time>2014-08-08T10:34:47Z</time>
      </trkpt>
      <trkpt lat="45.48291" lon="5.98079">
        <ele>296</ele>
        <time>2014-08-08T10:34:50Z</time>
      </trkpt>
      <trkpt lat="45.48271" lon="5.9807">
        <ele>295</ele>
        <time>2014-08-08T10:34:53Z</time>
      </trkpt>
      <trkpt lat="45.48252" lon="5.98067">
        <ele>293</ele>
        <time>2014-08-08T10:34:56Z</time>
      </trkpt>
      <trkpt lat="45.48233" lon="5.98066">
        <ele>291</ele>
        <time>2014-08-08T10:34:59Z</time>
      </trkpt>
      <trkpt lat="45.48213" lon="5.98062">
        <ele>292</ele>
        <time>2014-08-08T10:35:02Z</time>
      </trkpt>
      <trkpt lat="45.48194" lon="5.98055">
        <ele>292</ele>
        <time>2014-08-08T10:35:05Z</time>
      </trkpt>
      <trkpt lat="45.48169" lon="5.98055">
        <ele>291</ele>
        <time>2014-08-08T10:35:08Z</time>
      </trkpt>
      <trkpt lat="45.48148" lon="5.98059">
        <ele>289</ele>
        <time>2014-08-08T10:35:11Z</time>
      </trkpt>
      <trkpt lat="45.48129" lon="5.9807">
        <ele>288</ele>
        <time>2014-08-08T10:35:14Z</time>
      </trkpt>
      <trkpt lat="45.48116" lon="5.98104">
        <ele>279</ele>
        <time>2014-08-08T10:35:17Z</time>
      </trkpt>
      <trkpt lat="45.48105" lon="5.98138">
        <ele>278</ele>
        <time>2014-08-08T10:35:20Z</time>
      </trkpt>
      <trkpt lat="45.48097" lon="5.98163">
        <ele>277</ele>
        <time>2014-08-08T10:35:23Z</time>
      </trkpt>
      <trkpt lat="45.48083" lon="5.98179">
        <ele>275</ele>
        <time>2014-08-08T10:35:28Z</time>
      </trkpt>
      <trkpt lat="45.48064" lon="5.98179">
        <ele>274</ele>
        <time>2014-08-08T10:35:33Z</time>
      </trkpt>
      <trkpt lat="45.48046" lon="5.98181">
        <ele>274</ele>
        <time>2014-08-08T10:35:37Z</time>
      </trkpt>
      <trkpt lat="45.48027" lon="5.98184">
        <ele>274</ele>
        <time>2014-08-08T10:35:41Z</time>
      </trkpt>
      <trkpt lat="45.48008" lon="5.98188">
        <ele>274</ele>
        <time>2014-08-08T10:35:45Z</time>
      </trkpt>
      <trkpt lat="45.47986" lon="5.98194">
        <ele>273</ele>
        <time>2014-08-08T10:35:50Z</time>
      </trkpt>
      <trkpt lat="45.47968" lon="5.98198">
        <ele>273</ele>
        <time>2014-08-08T10:35:54Z</time>
      </trkpt>
      <trkpt lat="45.47949" lon="5.98198">
        <ele>273</ele>
        <time>2014-08-08T10:35:58Z</time>
      </trkpt>
      <trkpt lat="45.47931" lon="5.98191">
        <ele>273</ele>
        <time>2014-08-08T10:36:02Z</time>
      </trkpt>
      <trkpt lat="45.47914" lon="5.98177">
        <ele>272</ele>
        <time>2014-08-08T10:36:06Z</time>
      </trkpt>
      <trkpt lat="45.47893" lon="5.98164">
        <ele>274</ele>
        <time>2014-08-08T10:36:11Z</time>
      </trkpt>
      <trkpt lat="45.47875" lon="5.98159">
        <ele>275</ele>
        <time>2014-08-08T10:36:15Z</time>
      </trkpt>
      <trkpt lat="45.47856" lon="5.98156">
        <ele>274</ele>
        <time>2014-08-08T10:36:19Z</time>
      </trkpt>
      <trkpt lat="45.47837" lon="5.98154">
        <ele>274</ele>
        <time>2014-08-08T10:36:23Z</time>
      </trkpt>
      <trkpt lat="45.47815" lon="5.98151">
        <ele>274</ele>
        <time>2014-08-08T10:36:28Z</time>
      </trkpt>
      <trkpt lat="45.47793" lon="5.98148">
        <ele>274</ele>
        <time>2014-08-08T10:36:33Z</time>
      </trkpt>
      <trkpt lat="45.47774" lon="5.98145">
        <ele>274</ele>
        <time>2014-08-08T10:36:38Z</time>
      </trkpt>
      <trkpt lat="45.47756" lon="5.98143">
        <ele>274</ele>
        <time>2014-08-08T10:36:42Z</time>
      </trkpt>
      <trkpt lat="45.47736" lon="5.98144">
        <ele>275</ele>
        <time>2014-08-08T10:36:47Z</time>
      </trkpt>
      <trkpt lat="45.47716" lon="5.98147">
        <ele>276</ele>
        <time>2014-08-08T10:36:52Z</time>
      </trkpt>
      <trkpt lat="45.47696" lon="5.98154">
        <ele>277</ele>
        <time>2014-08-08T10:36:58Z</time>
      </trkpt>
      <trkpt lat="45.47677" lon="5.98159">
        <ele>276</ele>
        <time>2014-08-08T10:37:03Z</time>
      </trkpt>
      <trkpt lat="45.47657" lon="5.98167">
        <ele>278</ele>
        <time>2014-08-08T10:37:11Z</time>
      </trkpt>
      <trkpt lat="45.47638" lon="5.98174">
        <ele>277</ele>
        <time>2014-08-08T10:37:17Z</time>
      </trkpt>
      <trkpt lat="45.47619" lon="5.98181">
        <ele>278</ele>
        <time>2014-08-08T10:37:23Z</time>
      </trkpt>
      <trkpt lat="45.47599" lon="5.98188">
        <ele>278</ele>
        <time>2014-08-08T10:37:29Z</time>
      </trkpt>
      <trkpt lat="45.47582" lon="5.98194">
        <ele>280</ele>
        <time>2014-08-08T10:37:35Z</time>
      </trkpt>
      <trkpt lat="45.47565" lon="5.98211">
        <ele>280</ele>
        <time>2014-08-08T10:37:41Z</time>
      </trkpt>
      <trkpt lat="45.4755" lon="5.9823">
        <ele>280</ele>
        <time>2014-08-08T10:37:47Z</time>
      </trkpt>
      <trkpt lat="45.47533" lon="5.98243">
        <ele>280</ele>
        <time>2014-08-08T10:37:52Z</time>
      </trkpt>
      <trkpt lat="45.47513" lon="5.98255">
        <ele>279</ele>
        <time>2014-08-08T10:37:57Z</time>
      </trkpt>
      <trkpt lat="45.47494" lon="5.98261">
        <ele>279</ele>
        <time>2014-08-08T10:38:01Z</time>
      </trkpt>
      <trkpt lat="45.47486" lon="5.98286">
        <ele>278</ele>
        <time>2014-08-08T10:39:28Z</time>
      </trkpt>
      <trkpt lat="45.47483" lon="5.98313">
        <ele>277</ele>
        <time>2014-08-08T10:39:33Z</time>
      </trkpt>
      <trkpt lat="45.47479" lon="5.98344">
        <ele>276</ele>
        <time>2014-08-08T10:39:38Z</time>
      </trkpt>
      <trkpt lat="45.47467" lon="5.9837">
        <ele>275</ele>
        <time>2014-08-08T10:39:43Z</time>
      </trkpt>
      <trkpt lat="45.47451" lon="5.98389">
        <ele>274</ele>
        <time>2014-08-08T10:39:47Z</time>
      </trkpt>
      <trkpt lat="45.47434" lon="5.98407">
        <ele>274</ele>
        <time>2014-08-08T10:39:51Z</time>
      </trkpt>
      <trkpt lat="45.47416" lon="5.98422">
        <ele>273</ele>
        <time>2014-08-08T10:39:56Z</time>
      </trkpt>
      <trkpt lat="45.474" lon="5.98436">
        <ele>272</ele>
        <time>2014-08-08T10:40:00Z</time>
      </trkpt>
      <trkpt lat="45.47385" lon="5.98451">
        <ele>271</ele>
        <time>2014-08-08T10:40:04Z</time>
      </trkpt>
      <trkpt lat="45.47366" lon="5.98469">
        <ele>271</ele>
        <time>2014-08-08T10:40:08Z</time>
      </trkpt>
      <trkpt lat="45.4735" lon="5.98481">
        <ele>270</ele>
        <time>2014-08-08T10:40:11Z</time>
      </trkpt>
      <trkpt lat="45.47334" lon="5.98497">
        <ele>269</ele>
        <time>2014-08-08T10:40:14Z</time>
      </trkpt>
      <trkpt lat="45.47316" lon="5.98517">
        <ele>268</ele>
        <time>2014-08-08T10:40:18Z</time>
      </trkpt>
      <trkpt lat="45.47297" lon="5.98537">
        <ele>268</ele>
        <time>2014-08-08T10:40:22Z</time>
      </trkpt>
      <trkpt lat="45.47279" lon="5.98558">
        <ele>268</ele>
        <time>2014-08-08T10:40:26Z</time>
      </trkpt>
      <trkpt lat="45.47261" lon="5.98578">
        <ele>269</ele>
        <time>2014-08-08T10:40:30Z</time>
      </trkpt>
      <trkpt lat="45.47245" lon="5.98598">
        <ele>270</ele>
        <time>2014-08-08T10:40:34Z</time>
      </trkpt>
      <trkpt lat="45.47228" lon="5.98615">
        <ele>270</ele>
        <time>2014-08-08T10:40:38Z</time>
      </trkpt>
      <trkpt lat="45.4721" lon="5.98629">
        <ele>270</ele>
        <time>2014-08-08T10:40:42Z</time>
      </trkpt>
      <trkpt lat="45.47193" lon="5.98642">
        <ele>269</ele>
        <time>2014-08-08T10:40:47Z</time>
      </trkpt>
      <trkpt lat="45.47175" lon="5.98647">
        <ele>269</ele>
        <time>2014-08-08T10:41:33Z</time>
      </trkpt>
      <trkpt lat="45.47153" lon="5.98648">
        <ele>269</ele>
        <time>2014-08-08T10:42:58Z</time>
      </trkpt>
      <trkpt lat="45.47135" lon="5.98649">
        <ele>269</ele>
        <time>2014-08-08T10:43:02Z</time>
      </trkpt>
      <trkpt lat="45.47115" lon="5.98657">
        <ele>269</ele>
        <time>2014-08-08T10:43:06Z</time>
      </trkpt>
      <trkpt lat="45.47098" lon="5.98666">
        <ele>269</ele>
        <time>2014-08-08T10:43:10Z</time>
      </trkpt>
      <trkpt lat="45.47078" lon="5.98679">
        <ele>269</ele>
        <time>2014-08-08T10:43:15Z</time>
      </trkpt>
      <trkpt lat="45.47059" lon="5.98686">
        <ele>269</ele>
        <time>2014-08-08T10:43:19Z</time>
      </trkpt>
      <trkpt lat="45.47039" lon="5.98696">
        <ele>270</ele>
        <time>2014-08-08T10:43:23Z</time>
      </trkpt>
      <trkpt lat="45.47021" lon="5.98704">
        <ele>270</ele>
        <time>2014-08-08T10:43:27Z</time>
      </trkpt>
      <trkpt lat="45.47002" lon="5.98717">
        <ele>270</ele>
        <time>2014-08-08T10:43:32Z</time>
      </trkpt>
      <trkpt lat="45.46986" lon="5.98737">
        <ele>272</ele>
        <time>2014-08-08T10:43:37Z</time>
      </trkpt>
      <trkpt lat="45.46971" lon="5.98753">
        <ele>272</ele>
        <time>2014-08-08T10:43:42Z</time>
      </trkpt>
      <trkpt lat="45.46956" lon="5.98771">
        <ele>272</ele>
        <time>2014-08-08T10:43:47Z</time>
      </trkpt>
      <trkpt lat="45.46944" lon="5.98792">
        <ele>272</ele>
        <time>2014-08-08T10:43:52Z</time>
      </trkpt>
      <trkpt lat="45.46935" lon="5.98817">
        <ele>271</ele>
        <time>2014-08-08T10:43:58Z</time>
      </trkpt>
      <trkpt lat="45.46922" lon="5.9884">
        <ele>270</ele>
        <time>2014-08-08T10:44:03Z</time>
      </trkpt>
      <trkpt lat="45.46908" lon="5.9886">
        <ele>271</ele>
        <time>2014-08-08T10:44:08Z</time>
      </trkpt>
      <trkpt lat="45.46892" lon="5.9887">
        <ele>272</ele>
        <time>2014-08-08T10:44:12Z</time>
      </trkpt>
      <trkpt lat="45.46875" lon="5.98881">
        <ele>272</ele>
        <time>2014-08-08T10:44:16Z</time>
      </trkpt>
      <trkpt lat="45.46859" lon="5.98896">
        <ele>273</ele>
        <time>2014-08-08T10:44:21Z</time>
      </trkpt>
      <trkpt lat="45.46842" lon="5.98908">
        <ele>274</ele>
        <time>2014-08-08T10:44:26Z</time>
      </trkpt>
      <trkpt lat="45.46829" lon="5.98927">
        <ele>276</ele>
        <time>2014-08-08T10:44:31Z</time>
      </trkpt>
      <trkpt lat="45.46812" lon="5.98943">
        <ele>277</ele>
        <time>2014-08-08T10:44:37Z</time>
      </trkpt>
      <trkpt lat="45.46794" lon="5.98956">
        <ele>277</ele>
        <time>2014-08-08T10:44:42Z</time>
      </trkpt>
      <trkpt lat="45.46775" lon="5.98961">
        <ele>277</ele>
        <time>2014-08-08T10:44:48Z</time>
      </trkpt>
      <trkpt lat="45.46756" lon="5.98965">
        <ele>277</ele>
        <time>2014-08-08T10:44:54Z</time>
      </trkpt>
      <trkpt lat="45.46738" lon="5.98968">
        <ele>278</ele>
        <time>2014-08-08T10:45:00Z</time>
      </trkpt>
      <trkpt lat="45.46719" lon="5.98973">
        <ele>278</ele>
        <time>2014-08-08T10:45:06Z</time>
      </trkpt>
      <trkpt lat="45.467" lon="5.98975">
        <ele>279</ele>
        <time>2014-08-08T10:45:13Z</time>
      </trkpt>
      <trkpt lat="45.4668" lon="5.98978">
        <ele>279</ele>
        <time>2014-08-08T10:45:20Z</time>
      </trkpt>
      <trkpt lat="45.46662" lon="5.98978">
        <ele>281</ele>
        <time>2014-08-08T10:45:27Z</time>
      </trkpt>
      <trkpt lat="45.46642" lon="5.98975">
        <ele>281</ele>
        <time>2014-08-08T10:45:35Z</time>
      </trkpt>
      <trkpt lat="45.46624" lon="5.98981">
        <ele>282</ele>
        <time>2014-08-08T10:45:40Z</time>
      </trkpt>
      <trkpt lat="45.46604" lon="5.98986">
        <ele>282</ele>
        <time>2014-08-08T10:45:44Z</time>
      </trkpt>
      <trkpt lat="45.46585" lon="5.98991">
        <ele>283</ele>
        <time>2014-08-08T10:45:48Z</time>
      </trkpt>
      <trkpt lat="45.46566" lon="5.98999">
        <ele>284</ele>
        <time>2014-08-08T10:45:54Z</time>
      </trkpt>
      <trkpt lat="45.46545" lon="5.99005">
        <ele>284</ele>
        <time>2014-08-08T10:46:01Z</time>
      </trkpt>
      <trkpt lat="45.46525" lon="5.99003">
        <ele>284</ele>
        <time>2014-08-08T10:46:08Z</time>
      </trkpt>
      <trkpt lat="45.46505" lon="5.99011">
        <ele>284</ele>
        <time>2014-08-08T10:46:14Z</time>
      </trkpt>
      <trkpt lat="45.46484" lon="5.99013">
        <ele>286</ele>
        <time>2014-08-08T10:46:20Z</time>
      </trkpt>
      <trkpt lat="45.46464" lon="5.99017">
        <ele>286</ele>
        <time>2014-08-08T10:46:25Z</time>
      </trkpt>
      <trkpt lat="45.46444" lon="5.99022">
        <ele>287</ele>
        <time>2014-08-08T10:46:31Z</time>
      </trkpt>
      <trkpt lat="45.46424" lon="5.9902">
        <ele>287</ele>
        <time>2014-08-08T10:46:38Z</time>
      </trkpt>
      <trkpt lat="45.46404" lon="5.99021">
        <ele>289</ele>
        <time>2014-08-08T10:46:45Z</time>
      </trkpt>
      <trkpt lat="45.46386" lon="5.9902">
        <ele>289</ele>
        <time>2014-08-08T10:46:51Z</time>
      </trkpt>
      <trkpt lat="45.46363" lon="5.9902">
        <ele>289</ele>
        <time>2014-08-08T10:46:55Z</time>
      </trkpt>
      <trkpt lat="45.46343" lon="5.9902">
        <ele>290</ele>
        <time>2014-08-08T10:46:59Z</time>
      </trkpt>
      <trkpt lat="45.46321" lon="5.99015">
        <ele>291</ele>
        <time>2014-08-08T10:47:04Z</time>
      </trkpt>
      <trkpt lat="45.46301" lon="5.99013">
        <ele>291</ele>
        <time>2014-08-08T10:47:09Z</time>
      </trkpt>
      <trkpt lat="45.46281" lon="5.99003">
        <ele>291</ele>
        <time>2014-08-08T10:47:15Z</time>
      </trkpt>
      <trkpt lat="45.46262" lon="5.98994">
        <ele>292</ele>
        <time>2014-08-08T10:47:20Z</time>
      </trkpt>
      <trkpt lat="45.46243" lon="5.98983">
        <ele>292</ele>
        <time>2014-08-08T10:47:25Z</time>
      </trkpt>
      <trkpt lat="45.46224" lon="5.9897">
        <ele>293</ele>
        <time>2014-08-08T10:47:30Z</time>
      </trkpt>
      <trkpt lat="45.46202" lon="5.98966">
        <ele>293</ele>
        <time>2014-08-08T10:47:35Z</time>
      </trkpt>
      <trkpt lat="45.46184" lon="5.98969">
        <ele>293</ele>
        <time>2014-08-08T10:47:39Z</time>
      </trkpt>
      <trkpt lat="45.46168" lon="5.98951">
        <ele>293</ele>
        <time>2014-08-08T10:47:44Z</time>
      </trkpt>
      <trkpt lat="45.4615" lon="5.98934">
        <ele>295</ele>
        <time>2014-08-08T10:47:52Z</time>
      </trkpt>
      <trkpt lat="45.46133" lon="5.9892">
        <ele>295</ele>
        <time>2014-08-08T10:47:58Z</time>
      </trkpt>
      <trkpt lat="45.46114" lon="5.98921">
        <ele>295</ele>
        <time>2014-08-08T10:48:03Z</time>
      </trkpt>
      <trkpt lat="45.46092" lon="5.98924">
        <ele>296</ele>
        <time>2014-08-08T10:48:08Z</time>
      </trkpt>
      <trkpt lat="45.4607" lon="5.98921">
        <ele>298</ele>
        <time>2014-08-08T10:48:13Z</time>
      </trkpt>
      <trkpt lat="45.46052" lon="5.98918">
        <ele>298</ele>
        <time>2014-08-08T10:48:18Z</time>
      </trkpt>
      <trkpt lat="45.46034" lon="5.9891">
        <ele>299</ele>
        <time>2014-08-08T10:48:24Z</time>
      </trkpt>
      <trkpt lat="45.46015" lon="5.98896">
        <ele>300</ele>
        <time>2014-08-08T10:48:30Z</time>
      </trkpt>
      <trkpt lat="45.45999" lon="5.98881">
        <ele>302</ele>
        <time>2014-08-08T10:48:36Z</time>
      </trkpt>
      <trkpt lat="45.45981" lon="5.98868">
        <ele>302</ele>
        <time>2014-08-08T10:48:43Z</time>
      </trkpt>
      <trkpt lat="45.45964" lon="5.98851">
        <ele>302</ele>
        <time>2014-08-08T10:48:50Z</time>
      </trkpt>
      <trkpt lat="45.45945" lon="5.9884">
        <ele>303</ele>
        <time>2014-08-08T10:48:57Z</time>
      </trkpt>
      <trkpt lat="45.4593" lon="5.98826">
        <ele>303</ele>
        <time>2014-08-08T10:49:03Z</time>
      </trkpt>
      <trkpt lat="45.45916" lon="5.98808">
        <ele>306</ele>
        <time>2014-08-08T10:49:10Z</time>
      </trkpt>
      <trkpt lat="45.45902" lon="5.98789">
        <ele>307</ele>
        <time>2014-08-08T10:49:18Z</time>
      </trkpt>
      <trkpt lat="45.45884" lon="5.98793">
        <ele>308</ele>
        <time>2014-08-08T10:49:23Z</time>
      </trkpt>
      <trkpt lat="45.45865" lon="5.98795">
        <ele>309</ele>
        <time>2014-08-08T10:49:29Z</time>
      </trkpt>
      <trkpt lat="45.45848" lon="5.98803">
        <ele>310</ele>
        <time>2014-08-08T10:49:37Z</time>
      </trkpt>
      <trkpt lat="45.45837" lon="5.98828">
        <ele>311</ele>
        <time>2014-08-08T10:49:45Z</time>
      </trkpt>
      <trkpt lat="45.45829" lon="5.98852">
        <ele>314</ele>
        <time>2014-08-08T10:49:50Z</time>
      </trkpt>
      <trkpt lat="45.45832" lon="5.98878">
        <ele>315</ele>
        <time>2014-08-08T10:49:59Z</time>
      </trkpt>
      <trkpt lat="45.45846" lon="5.98896">
        <ele>311</ele>
        <time>2014-08-08T10:50:06Z</time>
      </trkpt>
      <trkpt lat="45.45852" lon="5.98924">
        <ele>311</ele>
        <time>2014-08-08T10:50:15Z</time>
      </trkpt>
      <trkpt lat="45.45851" lon="5.98953">
        <ele>310</ele>
        <time>2014-08-08T10:50:21Z</time>
      </trkpt>
      <trkpt lat="45.4585" lon="5.98982">
        <ele>309</ele>
        <time>2014-08-08T10:50:27Z</time>
      </trkpt>
      <trkpt lat="45.45846" lon="5.99008">
        <ele>309</ele>
        <time>2014-08-08T10:50:32Z</time>
      </trkpt>
      <trkpt lat="45.45841" lon="5.99035">
        <ele>308</ele>
        <time>2014-08-08T10:50:37Z</time>
      </trkpt>
      <trkpt lat="45.45835" lon="5.9906">
        <ele>308</ele>
        <time>2014-08-08T10:50:43Z</time>
      </trkpt>
      <trkpt lat="45.45825" lon="5.99082">
        <ele>310</ele>
        <time>2014-08-08T10:50:49Z</time>
      </trkpt>
      <trkpt lat="45.45805" lon="5.99088">
        <ele>310</ele>
        <time>2014-08-08T10:50:57Z</time>
      </trkpt>
      <trkpt lat="45.45786" lon="5.99091">
        <ele>310</ele>
        <time>2014-08-08T10:51:04Z</time>
      </trkpt>
      <trkpt lat="45.45766" lon="5.99096">
        <ele>311</ele>
        <time>2014-08-08T10:51:11Z</time>
      </trkpt>
      <trkpt lat="45.45747" lon="5.991">
        <ele>314</ele>
        <time>2014-08-08T10:51:18Z</time>
      </trkpt>
      <trkpt lat="45.45727" lon="5.99105">
        <ele>314</ele>
        <time>2014-08-08T10:51:24Z</time>
      </trkpt>
      <trkpt lat="45.45708" lon="5.99109">
        <ele>315</ele>
        <time>2014-08-08T10:51:30Z</time>
      </trkpt>
      <trkpt lat="45.45689" lon="5.99115">
        <ele>315</ele>
        <time>2014-08-08T10:51:36Z</time>
      </trkpt>
      <trkpt lat="45.45669" lon="5.99121">
        <ele>316</ele>
        <time>2014-08-08T10:51:43Z</time>
      </trkpt>
      <trkpt lat="45.45649" lon="5.99128">
        <ele>318</ele>
        <time>2014-08-08T10:51:49Z</time>
      </trkpt>
      <trkpt lat="45.45631" lon="5.99133">
        <ele>318</ele>
        <time>2014-08-08T10:51:54Z</time>
      </trkpt>
      <trkpt lat="45.45613" lon="5.99137">
        <ele>318</ele>
        <time>2014-08-08T10:51:59Z</time>
      </trkpt>
      <trkpt lat="45.45594" lon="5.99141">
        <ele>318</ele>
        <time>2014-08-08T10:52:04Z</time>
      </trkpt>
      <trkpt lat="45.45574" lon="5.99145">
        <ele>321</ele>
        <time>2014-08-08T10:52:10Z</time>
      </trkpt>
      <trkpt lat="45.45554" lon="5.9915">
        <ele>322</ele>
        <time>2014-08-08T10:52:17Z</time>
      </trkpt>
      <trkpt lat="45.45535" lon="5.99151">
        <ele>324</ele>
        <time>2014-08-08T10:52:24Z</time>
      </trkpt>
      <trkpt lat="45.45517" lon="5.99155">
        <ele>325</ele>
        <time>2014-08-08T10:52:31Z</time>
      </trkpt>
      <trkpt lat="45.45498" lon="5.9916">
        <ele>327</ele>
        <time>2014-08-08T10:52:38Z</time>
      </trkpt>
      <trkpt lat="45.45479" lon="5.99165">
        <ele>328</ele>
        <time>2014-08-08T10:52:45Z</time>
      </trkpt>
      <trkpt lat="45.45459" lon="5.99167">
        <ele>325</ele>
        <time>2014-08-08T10:52:52Z</time>
      </trkpt>
      <trkpt lat="45.45441" lon="5.99171">
        <ele>325</ele>
        <time>2014-08-08T10:52:58Z</time>
      </trkpt>
      <trkpt lat="45.45421" lon="5.99175">
        <ele>326</ele>
        <time>2014-08-08T10:53:05Z</time>
      </trkpt>
      <trkpt lat="45.45401" lon="5.99181">
        <ele>326</ele>
        <time>2014-08-08T10:53:11Z</time>
      </trkpt>
      <trkpt lat="45.4538" lon="5.99187">
        <ele>327</ele>
        <time>2014-08-08T10:53:17Z</time>
      </trkpt>
      <trkpt lat="45.45362" lon="5.9919">
        <ele>327</ele>
        <time>2014-08-08T10:53:22Z</time>
      </trkpt>
      <trkpt lat="45.45342" lon="5.99193">
        <ele>328</ele>
        <time>2014-08-08T10:53:27Z</time>
      </trkpt>
      <trkpt lat="45.45321" lon="5.99197">
        <ele>329</ele>
        <time>2014-08-08T10:53:33Z</time>
      </trkpt>
      <trkpt lat="45.45303" lon="5.99201">
        <ele>329</ele>
        <time>2014-08-08T10:53:37Z</time>
      </trkpt>
      <trkpt lat="45.4528" lon="5.99204">
        <ele>328</ele>
        <time>2014-08-08T10:53:42Z</time>
      </trkpt>
      <trkpt lat="45.45259" lon="5.99208">
        <ele>328</ele>
        <time>2014-08-08T10:53:47Z</time>
      </trkpt>
      <trkpt lat="45.45238" lon="5.99213">
        <ele>330</ele>
        <time>2014-08-08T10:53:52Z</time>
      </trkpt>
      <trkpt lat="45.45218" lon="5.99217">
        <ele>331</ele>
        <time>2014-08-08T10:53:57Z</time>
      </trkpt>
      <trkpt lat="45.45197" lon="5.99222">
        <ele>331</ele>
        <time>2014-08-08T10:54:02Z</time>
      </trkpt>
      <trkpt lat="45.45177" lon="5.99226">
        <ele>331</ele>
        <time>2014-08-08T10:54:07Z</time>
      </trkpt>
      <trkpt lat="45.45156" lon="5.99231">
        <ele>333</ele>
        <time>2014-08-08T10:54:13Z</time>
      </trkpt>
      <trkpt lat="45.45137" lon="5.99234">
        <ele>334</ele>
        <time>2014-08-08T10:54:18Z</time>
      </trkpt>
      <trkpt lat="45.45117" lon="5.9924">
        <ele>334</ele>
        <time>2014-08-08T10:54:24Z</time>
      </trkpt>
      <trkpt lat="45.45099" lon="5.99242">
        <ele>334</ele>
        <time>2014-08-08T10:54:30Z</time>
      </trkpt>
      <trkpt lat="45.45078" lon="5.99248">
        <ele>333</ele>
        <time>2014-08-08T10:54:37Z</time>
      </trkpt>
      <trkpt lat="45.45056" lon="5.99251">
        <ele>332</ele>
        <time>2014-08-08T10:54:42Z</time>
      </trkpt>
      <trkpt lat="45.45037" lon="5.99251">
        <ele>332</ele>
        <time>2014-08-08T10:54:48Z</time>
      </trkpt>
      <trkpt lat="45.45017" lon="5.99247">
        <ele>337</ele>
        <time>2014-08-08T10:54:55Z</time>
      </trkpt>
      <trkpt lat="45.44998" lon="5.99239">
        <ele>337</ele>
        <time>2014-08-08T10:55:01Z</time>
      </trkpt>
      <trkpt lat="45.44979" lon="5.99231">
        <ele>337</ele>
        <time>2014-08-08T10:55:07Z</time>
      </trkpt>
      <trkpt lat="45.44962" lon="5.99222">
        <ele>338</ele>
        <time>2014-08-08T10:55:12Z</time>
      </trkpt>
      <trkpt lat="45.44945" lon="5.99212">
        <ele>338</ele>
        <time>2014-08-08T10:55:17Z</time>
      </trkpt>
      <trkpt lat="45.44929" lon="5.99195">
        <ele>338</ele>
        <time>2014-08-08T10:55:22Z</time>
      </trkpt>
      <trkpt lat="45.44911" lon="5.99177">
        <ele>338</ele>
        <time>2014-08-08T10:55:28Z</time>
      </trkpt>
      <trkpt lat="45.44894" lon="5.99158">
        <ele>339</ele>
        <time>2014-08-08T10:55:32Z</time>
      </trkpt>
      <trkpt lat="45.44877" lon="5.99141">
        <ele>339</ele>
        <time>2014-08-08T10:55:36Z</time>
      </trkpt>
      <trkpt lat="45.4486" lon="5.99121">
        <ele>339</ele>
        <time>2014-08-08T10:55:40Z</time>
      </trkpt>
      <trkpt lat="45.44842" lon="5.99101">
        <ele>339</ele>
        <time>2014-08-08T10:55:44Z</time>
      </trkpt>
      <trkpt lat="45.44824" lon="5.99081">
        <ele>338</ele>
        <time>2014-08-08T10:55:49Z</time>
      </trkpt>
      <trkpt lat="45.44809" lon="5.99063">
        <ele>338</ele>
        <time>2014-08-08T10:55:53Z</time>
      </trkpt>
      <trkpt lat="45.44794" lon="5.99047">
        <ele>338</ele>
        <time>2014-08-08T10:55:57Z</time>
      </trkpt>
      <trkpt lat="45.44779" lon="5.9903">
        <ele>338</ele>
        <time>2014-08-08T10:56:01Z</time>
      </trkpt>
      <trkpt lat="45.44761" lon="5.99011">
        <ele>337</ele>
        <time>2014-08-08T10:56:06Z</time>
      </trkpt>
      <trkpt lat="45.44747" lon="5.98994">
        <ele>337</ele>
        <time>2014-08-08T10:56:10Z</time>
      </trkpt>
      <trkpt lat="45.44732" lon="5.98978">
        <ele>336</ele>
        <time>2014-08-08T10:56:14Z</time>
      </trkpt>
      <trkpt lat="45.44717" lon="5.98961">
        <ele>336</ele>
        <time>2014-08-08T10:56:18Z</time>
      </trkpt>
      <trkpt lat="45.44702" lon="5.98944">
        <ele>335</ele>
        <time>2014-08-08T10:56:22Z</time>
      </trkpt>
      <trkpt lat="45.44685" lon="5.98926">
        <ele>335</ele>
        <time>2014-08-08T10:56:27Z</time>
      </trkpt>
      <trkpt lat="45.44667" lon="5.98908">
        <ele>336</ele>
        <time>2014-08-08T10:56:32Z</time>
      </trkpt>
      <trkpt lat="45.44651" lon="5.98889">
        <ele>335</ele>
        <time>2014-08-08T10:56:37Z</time>
      </trkpt>
      <trkpt lat="45.44634" lon="5.98871">
        <ele>335</ele>
        <time>2014-08-08T10:56:42Z</time>
      </trkpt>
      <trkpt lat="45.44617" lon="5.98853">
        <ele>335</ele>
        <time>2014-08-08T10:56:47Z</time>
      </trkpt>
      <trkpt lat="45.44601" lon="5.98835">
        <ele>335</ele>
        <time>2014-08-08T10:56:52Z</time>
      </trkpt>
      <trkpt lat="45.44585" lon="5.9882">
        <ele>337</ele>
        <time>2014-08-08T10:56:56Z</time>
      </trkpt>
      <trkpt lat="45.44571" lon="5.98803">
        <ele>336</ele>
        <time>2014-08-08T10:57:00Z</time>
      </trkpt>
      <trkpt lat="45.44558" lon="5.98786">
        <ele>336</ele>
        <time>2014-08-08T10:57:04Z</time>
      </trkpt>
      <trkpt lat="45.4454" lon="5.98767">
        <ele>337</ele>
        <time>2014-08-08T10:57:09Z</time>
      </trkpt>
      <trkpt lat="45.44525" lon="5.98751">
        <ele>337</ele>
        <time>2014-08-08T10:57:13Z</time>
      </trkpt>
      <trkpt lat="45.4451" lon="5.98734">
        <ele>339</ele>
        <time>2014-08-08T10:57:17Z</time>
      </trkpt>
      <trkpt lat="45.44496" lon="5.98716">
        <ele>338</ele>
        <time>2014-08-08T10:57:21Z</time>
      </trkpt>
      <trkpt lat="45.4448" lon="5.98697">
        <ele>338</ele>
        <time>2014-08-08T10:57:25Z</time>
      </trkpt>
      <trkpt lat="45.44465" lon="5.98679">
        <ele>338</ele>
        <time>2014-08-08T10:57:29Z</time>
      </trkpt>
      <trkpt lat="45.4445" lon="5.98662">
        <ele>340</ele>
        <time>2014-08-08T10:57:33Z</time>
      </trkpt>
      <trkpt lat="45.44433" lon="5.98643">
        <ele>339</ele>
        <time>2014-08-08T10:57:37Z</time>
      </trkpt>
      <trkpt lat="45.44416" lon="5.98625">
        <ele>338</ele>
        <time>2014-08-08T10:57:41Z</time>
      </trkpt>
      <trkpt lat="45.44401" lon="5.98609">
        <ele>339</ele>
        <time>2014-08-08T10:57:45Z</time>
      </trkpt>
      <trkpt lat="45.44385" lon="5.98595">
        <ele>339</ele>
        <time>2014-08-08T10:57:49Z</time>
      </trkpt>
      <trkpt lat="45.44366" lon="5.98581">
        <ele>341</ele>
        <time>2014-08-08T10:57:54Z</time>
      </trkpt>
      <trkpt lat="45.44347" lon="5.98571">
        <ele>341</ele>
        <time>2014-08-08T10:57:59Z</time>
      </trkpt>
      <trkpt lat="45.44325" lon="5.98564">
        <ele>340</ele>
        <time>2014-08-08T10:58:04Z</time>
      </trkpt>
      <trkpt lat="45.44308" lon="5.98559">
        <ele>340</ele>
        <time>2014-08-08T10:58:08Z</time>
      </trkpt>
      <trkpt lat="45.44287" lon="5.98552">
        <ele>339</ele>
        <time>2014-08-08T10:58:13Z</time>
      </trkpt>
      <trkpt lat="45.44268" lon="5.98546">
        <ele>339</ele>
        <time>2014-08-08T10:58:18Z</time>
      </trkpt>
      <trkpt lat="45.44249" lon="5.98538">
        <ele>338</ele>
        <time>2014-08-08T10:58:22Z</time>
      </trkpt>
      <trkpt lat="45.44231" lon="5.98531">
        <ele>338</ele>
        <time>2014-08-08T10:58:26Z</time>
      </trkpt>
      <trkpt lat="45.44212" lon="5.98527">
        <ele>338</ele>
        <time>2014-08-08T10:58:30Z</time>
      </trkpt>
      <trkpt lat="45.44194" lon="5.98523">
        <ele>338</ele>
        <time>2014-08-08T10:58:34Z</time>
      </trkpt>
      <trkpt lat="45.44173" lon="5.98516">
        <ele>338</ele>
        <time>2014-08-08T10:58:39Z</time>
      </trkpt>
      <trkpt lat="45.44155" lon="5.98508">
        <ele>337</ele>
        <time>2014-08-08T10:58:43Z</time>
      </trkpt>
      <trkpt lat="45.44138" lon="5.98499">
        <ele>339</ele>
        <time>2014-08-08T10:58:47Z</time>
      </trkpt>
      <trkpt lat="45.4412" lon="5.98492">
        <ele>339</ele>
        <time>2014-08-08T10:58:51Z</time>
      </trkpt>
      <trkpt lat="45.44102" lon="5.98485">
        <ele>339</ele>
        <time>2014-08-08T10:58:55Z</time>
      </trkpt>
      <trkpt lat="45.44081" lon="5.98478">
        <ele>339</ele>
        <time>2014-08-08T10:58:59Z</time>
      </trkpt>
      <trkpt lat="45.44062" lon="5.98471">
        <ele>339</ele>
        <time>2014-08-08T10:59:03Z</time>
      </trkpt>
      <trkpt lat="45.44041" lon="5.98463">
        <ele>339</ele>
        <time>2014-08-08T10:59:07Z</time>
      </trkpt>
      <trkpt lat="45.4402" lon="5.98456">
        <ele>339</ele>
        <time>2014-08-08T10:59:11Z</time>
      </trkpt>
      <trkpt lat="45.44" lon="5.98449">
        <ele>340</ele>
        <time>2014-08-08T10:59:15Z</time>
      </trkpt>
      <trkpt lat="45.43982" lon="5.98442">
        <ele>340</ele>
        <time>2014-08-08T10:59:19Z</time>
      </trkpt>
      <trkpt lat="45.43962" lon="5.98434">
        <ele>341</ele>
        <time>2014-08-08T10:59:24Z</time>
      </trkpt>
      <trkpt lat="45.43941" lon="5.98428">
        <ele>341</ele>
        <time>2014-08-08T10:59:29Z</time>
      </trkpt>
      <trkpt lat="45.4392" lon="5.98421">
        <ele>342</ele>
        <time>2014-08-08T10:59:34Z</time>
      </trkpt>
      <trkpt lat="45.43901" lon="5.98415">
        <ele>344</ele>
        <time>2014-08-08T10:59:39Z</time>
      </trkpt>
      <trkpt lat="45.4388" lon="5.98406">
        <ele>344</ele>
        <time>2014-08-08T10:59:44Z</time>
      </trkpt>
      <trkpt lat="45.43858" lon="5.984">
        <ele>344</ele>
        <time>2014-08-08T10:59:49Z</time>
      </trkpt>
      <trkpt lat="45.4384" lon="5.98396">
        <ele>344</ele>
        <time>2014-08-08T10:59:53Z</time>
      </trkpt>
      <trkpt lat="45.43821" lon="5.98391">
        <ele>344</ele>
        <time>2014-08-08T10:59:57Z</time>
      </trkpt>
      <trkpt lat="45.43802" lon="5.98384">
        <ele>344</ele>
        <time>2014-08-08T11:00:01Z</time>
      </trkpt>
      <trkpt lat="45.43782" lon="5.98376">
        <ele>344</ele>
        <time>2014-08-08T11:00:06Z</time>
      </trkpt>
      <trkpt lat="45.43764" lon="5.98369">
        <ele>345</ele>
        <time>2014-08-08T11:00:10Z</time>
      </trkpt>
      <trkpt lat="45.43745" lon="5.98362">
        <ele>344</ele>
        <time>2014-08-08T11:00:14Z</time>
      </trkpt>
      <trkpt lat="45.43724" lon="5.98354">
        <ele>344</ele>
        <time>2014-08-08T11:00:19Z</time>
      </trkpt>
      <trkpt lat="45.43707" lon="5.98347">
        <ele>344</ele>
        <time>2014-08-08T11:00:23Z</time>
      </trkpt>
      <trkpt lat="45.43689" lon="5.98339">
        <ele>344</ele>
        <time>2014-08-08T11:00:27Z</time>
      </trkpt>
      <trkpt lat="45.43666" lon="5.98332">
        <ele>343</ele>
        <time>2014-08-08T11:00:32Z</time>
      </trkpt>
      <trkpt lat="45.43647" lon="5.98325">
        <ele>343</ele>
        <time>2014-08-08T11:00:36Z</time>
      </trkpt>
      <trkpt lat="45.43628" lon="5.98318">
        <ele>343</ele>
        <time>2014-08-08T11:00:40Z</time>
      </trkpt>
      <trkpt lat="45.43607" lon="5.98312">
        <ele>343</ele>
        <time>2014-08-08T11:00:45Z</time>
      </trkpt>
      <trkpt lat="45.43589" lon="5.98304">
        <ele>343</ele>
        <time>2014-08-08T11:00:49Z</time>
      </trkpt>
      <trkpt lat="45.43568" lon="5.98296">
        <ele>342</ele>
        <time>2014-08-08T11:00:53Z</time>
      </trkpt>
      <trkpt lat="45.43545" lon="5.9829">
        <ele>342</ele>
        <time>2014-08-08T11:00:57Z</time>
      </trkpt>
      <trkpt lat="45.43522" lon="5.98285">
        <ele>342</ele>
        <time>2014-08-08T11:01:01Z</time>
      </trkpt>
      <trkpt lat="45.435" lon="5.98278">
        <ele>340</ele>
        <time>2014-08-08T11:01:05Z</time>
      </trkpt>
      <trkpt lat="45.43482" lon="5.98273">
        <ele>340</ele>
        <time>2014-08-08T11:01:08Z</time>
      </trkpt>
      <trkpt lat="45.43463" lon="5.98267">
        <ele>340</ele>
        <time>2014-08-08T11:01:11Z</time>
      </trkpt>
      <trkpt lat="45.43444" lon="5.9826">
        <ele>340</ele>
        <time>2014-08-08T11:01:14Z</time>
      </trkpt>
      <trkpt lat="45.43425" lon="5.98253">
        <ele>340</ele>
        <time>2014-08-08T11:01:17Z</time>
      </trkpt>
      <trkpt lat="45.43405" lon="5.98245">
        <ele>340</ele>
        <time>2014-08-08T11:01:20Z</time>
      </trkpt>
      <trkpt lat="45.43385" lon="5.98238">
        <ele>339</ele>
        <time>2014-08-08T11:01:23Z</time>
      </trkpt>
      <trkpt lat="45.43367" lon="5.98231">
        <ele>339</ele>
        <time>2014-08-08T11:01:26Z</time>
      </trkpt>
      <trkpt lat="45.4335" lon="5.98223">
        <ele>339</ele>
        <time>2014-08-08T11:01:29Z</time>
      </trkpt>
      <trkpt lat="45.43331" lon="5.98217">
        <ele>336</ele>
        <time>2014-08-08T11:01:32Z</time>
      </trkpt>
      <trkpt lat="45.43313" lon="5.98211">
        <ele>336</ele>
        <time>2014-08-08T11:01:35Z</time>
      </trkpt>
      <trkpt lat="45.43295" lon="5.98205">
        <ele>336</ele>
        <time>2014-08-08T11:01:38Z</time>
      </trkpt>
      <trkpt lat="45.43274" lon="5.98198">
        <ele>336</ele>
        <time>2014-08-08T11:01:42Z</time>
      </trkpt>
      <trkpt lat="45.43251" lon="5.9819">
        <ele>335</ele>
        <time>2014-08-08T11:01:46Z</time>
      </trkpt>
      <trkpt lat="45.43228" lon="5.98182">
        <ele>334</ele>
        <time>2014-08-08T11:01:50Z</time>
      </trkpt>
      <trkpt lat="45.43209" lon="5.98176">
        <ele>333</ele>
        <time>2014-08-08T11:01:53Z</time>
      </trkpt>
      <trkpt lat="45.43191" lon="5.9817">
        <ele>333</ele>
        <time>2014-08-08T11:01:56Z</time>
      </trkpt>
      <trkpt lat="45.43174" lon="5.98163">
        <ele>333</ele>
        <time>2014-08-08T11:01:59Z</time>
      </trkpt>
      <trkpt lat="45.43155" lon="5.98156">
        <ele>332</ele>
        <time>2014-08-08T11:02:02Z</time>
      </trkpt>
      <trkpt lat="45.43137" lon="5.98149">
        <ele>332</ele>
        <time>2014-08-08T11:02:05Z</time>
      </trkpt>
      <trkpt lat="45.43114" lon="5.98149">
        <ele>332</ele>
        <time>2014-08-08T11:02:09Z</time>
      </trkpt>
      <trkpt lat="45.43096" lon="5.9815">
        <ele>332</ele>
        <time>2014-08-08T11:02:12Z</time>
      </trkpt>
      <trkpt lat="45.43073" lon="5.98151">
        <ele>331</ele>
        <time>2014-08-08T11:02:16Z</time>
      </trkpt>
      <trkpt lat="45.43055" lon="5.98154">
        <ele>331</ele>
        <time>2014-08-08T11:02:20Z</time>
      </trkpt>
      <trkpt lat="45.43037" lon="5.98161">
        <ele>330</ele>
        <time>2014-08-08T11:02:24Z</time>
      </trkpt>
      <trkpt lat="45.43023" lon="5.98183">
        <ele>329</ele>
        <time>2014-08-08T11:02:29Z</time>
      </trkpt>
      <trkpt lat="45.43011" lon="5.98206">
        <ele>329</ele>
        <time>2014-08-08T11:02:33Z</time>
      </trkpt>
      <trkpt lat="45.42998" lon="5.98229">
        <ele>329</ele>
        <time>2014-08-08T11:02:37Z</time>
      </trkpt>
      <trkpt lat="45.42986" lon="5.98253">
        <ele>329</ele>
        <time>2014-08-08T11:02:42Z</time>
      </trkpt>
      <trkpt lat="45.42971" lon="5.98276">
        <ele>330</ele>
        <time>2014-08-08T11:02:48Z</time>
      </trkpt>
      <trkpt lat="45.42954" lon="5.98296">
        <ele>330</ele>
        <time>2014-08-08T11:02:53Z</time>
      </trkpt>
      <trkpt lat="45.42941" lon="5.98315">
        <ele>330</ele>
        <time>2014-08-08T11:02:57Z</time>
      </trkpt>
      <trkpt lat="45.42928" lon="5.98338">
        <ele>330</ele>
        <time>2014-08-08T11:03:02Z</time>
      </trkpt>
      <trkpt lat="45.42921" lon="5.98364">
        <ele>330</ele>
        <time>2014-08-08T11:03:09Z</time>
      </trkpt>
      <trkpt lat="45.42912" lon="5.98387">
        <ele>329</ele>
        <time>2014-08-08T11:03:17Z</time>
      </trkpt>
    </trkseg>
  </trk>
</gpx>